[[{"header":{"parameterUnit":"m.s-1","parameterCategory":1,"la1":30.6,"la2":29.2853,"lo1":-89.7004,"lo2":-87.6739,"dy":0.0162,"dx":0.0183,"nx":112,"ny":82,"refTime":"2023-02-24T18:00:00:Z","depth":0,"parameterNumber":2,"parameterNumberName":"U-component_of_WINDS"},"data":[0.0,0.0,0.0,0.0,0.0,0.0,0.0,0.0,0.0,0.0,0.0,0.0,0.0,0.0,0.0,0.0,0.0,0.0,0.0,0.0,0.0,0.0,0.0,0.0,0.0,0.0,0.0,0.0,0.0,0.0,0.0,0.0,0.0,0.0,0.0,0.0,0.0,0.0,0.0,0.0,0.0,0.0,0.0,0.0,0.0,0.0,0.0,0.0,0.0,0.0,0.0,0.0,0.0,0.0,0.0,0.0,0.0,0.0,0.0,0.0,0.0,0.0,0.0,0.0,0.0,0.0,0.0,0.0,0.0,0.0,0.0,0.0,0.0,0.0,0.0,0.0,0.0,0.0,0.0,0.0,0.0,0.0,0.0,0.0,0.0,0.0,0.0,0.0,0.0,0.0,-5.5703,-5.5703,-5.5703,-5.5703,-5.5703,-5.5703,-5.5442,-5.4836,0.0,0.0,0.0,0.0,0.0,0.0,0.0,0.0,0.0,0.0,0.0,0.0,0.0,0.0,0.0,0.0,0.0,0.0,0.0,0.0,0.0,0.0,0.0,0.0,0.0,0.0,0.0,0.0,0.0,0.0,0.0,0.0,0.0,0.0,0.0,0.0,0.0,0.0,0.0,0.0,0.0,0.0,0.0,0.0,0.0,0.0,0.0,0.0,0.0,0.0,0.0,0.0,0.0,0.0,0.0,0.0,0.0,0.0,0.0,0.0,0.0,0.0,0.0,0.0,0.0,0.0,0.0,0.0,0.0,0.0,0.0,0.0,0.0,0.0,0.0,0.0,0.0,0.0,0.0,0.0,0.0,0.0,0.0,0.0,0.0,0.0,0.0,0.0,0.0,0.0,0.0,0.0,0.0,0.0,0.0,0.0,0.0,0.0,0.0,0.0,0.0,0.0,0.0,0.0,-5.5703,-5.5703,-5.5703,-5.5703,-5.5703,-5.5703,-5.5442,-5.4836,0.0,0.0,0.0,0.0,0.0,0.0,0.0,0.0,0.0,0.0,0.0,0.0,0.0,0.0,0.0,0.0,0.0,0.0,0.0,0.0,0.0,0.0,0.0,0.0,0.0,0.0,0.0,0.0,0.0,0.0,0.0,0.0,0.0,0.0,0.0,0.0,0.0,0.0,0.0,0.0,0.0,0.0,0.0,0.0,0.0,0.0,0.0,0.0,0.0,0.0,0.0,0.0,0.0,0.0,0.0,0.0,0.0,0.0,0.0,0.0,0.0,0.0,0.0,0.0,0.0,0.0,0.0,0.0,0.0,0.0,0.0,0.0,0.0,0.0,0.0,0.0,0.0,0.0,0.0,0.0,0.0,0.0,0.0,0.0,0.0,0.0,0.0,0.0,0.0,0.0,0.0,0.0,0.0,0.0,0.0,0.0,0.0,0.0,0.0,0.0,0.0,0.0,0.0,-5.5618,-5.5703,-5.5703,-5.5703,-5.5703,-5.5703,-5.5703,-5.5442,-5.4836,-5.4791,0.0,0.0,0.0,0.0,0.0,0.0,0.0,0.0,0.0,0.0,0.0,0.0,0.0,0.0,0.0,0.0,0.0,0.0,0.0,0.0,0.0,0.0,0.0,0.0,0.0,0.0,0.0,0.0,0.0,0.0,0.0,0.0,0.0,0.0,0.0,0.0,0.0,0.0,0.0,0.0,0.0,0.0,0.0,0.0,0.0,0.0,0.0,0.0,0.0,0.0,0.0,0.0,0.0,0.0,0.0,0.0,0.0,0.0,0.0,0.0,0.0,0.0,0.0,0.0,0.0,0.0,0.0,0.0,0.0,0.0,0.0,0.0,0.0,0.0,0.0,0.0,0.0,0.0,0.0,0.0,0.0,0.0,0.0,0.0,0.0,0.0,0.0,0.0,0.0,0.0,0.0,0.0,0.0,0.0,0.0,0.0,0.0,0.0,0.0,0.0,0.0,0.0,-5.5703,-5.5703,-5.5703,-5.5703,-5.5703,-5.5703,-5.5703,-5.5442,-5.4836,-5.4791,0.0,0.0,0.0,0.0,0.0,0.0,0.0,0.0,0.0,0.0,0.0,0.0,0.0,0.0,0.0,0.0,0.0,0.0,0.0,0.0,0.0,0.0,0.0,0.0,0.0,0.0,0.0,0.0,0.0,0.0,0.0,0.0,0.0,0.0,0.0,0.0,0.0,0.0,0.0,0.0,0.0,0.0,0.0,0.0,0.0,0.0,0.0,0.0,0.0,0.0,0.0,0.0,0.0,0.0,0.0,0.0,0.0,0.0,0.0,0.0,0.0,0.0,0.0,0.0,0.0,0.0,0.0,0.0,0.0,0.0,0.0,0.0,0.0,0.0,0.0,0.0,0.0,0.0,0.0,0.0,0.0,0.0,0.0,0.0,0.0,0.0,0.0,0.0,0.0,0.0,0.0,0.0,0.0,0.0,0.0,0.0,0.0,0.0,0.0,0.0,0.0,0.0,-5.5703,-5.5703,-5.5703,-5.5703,-5.5703,-5.5703,-5.5703,-5.5442,-5.4836,-5.4791,0.0,0.0,0.0,0.0,0.0,0.0,0.0,0.0,0.0,0.0,0.0,0.0,0.0,0.0,0.0,0.0,0.0,0.0,0.0,0.0,0.0,0.0,0.0,0.0,0.0,0.0,0.0,0.0,0.0,0.0,0.0,0.0,0.0,0.0,0.0,0.0,0.0,0.0,0.0,0.0,0.0,0.0,0.0,0.0,0.0,0.0,0.0,0.0,0.0,0.0,0.0,0.0,0.0,0.0,0.0,0.0,0.0,0.0,0.0,0.0,0.0,0.0,0.0,0.0,0.0,0.0,0.0,0.0,0.0,0.0,0.0,0.0,0.0,0.0,0.0,0.0,0.0,0.0,0.0,0.0,0.0,0.0,0.0,0.0,0.0,0.0,0.0,0.0,0.0,0.0,0.0,0.0,0.0,0.0,0.0,0.0,0.0,0.0,0.0,0.0,0.0,0.0,-5.5703,-5.5703,0.0,-5.5703,-5.5703,-5.5703,-5.5703,-5.5531,-5.5138,0.0,0.0,0.0,0.0,0.0,0.0,0.0,0.0,0.0,0.0,0.0,0.0,0.0,0.0,0.0,0.0,0.0,0.0,0.0,0.0,0.0,0.0,0.0,0.0,0.0,0.0,0.0,0.0,0.0,0.0,0.0,0.0,0.0,0.0,0.0,0.0,0.0,0.0,0.0,0.0,0.0,0.0,0.0,0.0,0.0,0.0,0.0,0.0,0.0,0.0,0.0,0.0,0.0,0.0,0.0,0.0,0.0,0.0,0.0,0.0,0.0,0.0,0.0,0.0,0.0,0.0,0.0,0.0,0.0,0.0,0.0,0.0,0.0,0.0,0.0,0.0,0.0,0.0,0.0,0.0,0.0,0.0,0.0,0.0,0.0,0.0,0.0,0.0,0.0,0.0,0.0,0.0,0.0,0.0,0.0,0.0,0.0,0.0,0.0,0.0,0.0,0.0,-5.5703,-5.5703,-5.5703,0.0,-5.5703,-5.5703,-5.5703,-5.5703,-5.5585,-5.5314,0.0,0.0,0.0,0.0,0.0,0.0,0.0,0.0,0.0,0.0,0.0,0.0,0.0,0.0,0.0,0.0,0.0,0.0,0.0,0.0,0.0,0.0,0.0,0.0,0.0,0.0,0.0,0.0,0.0,0.0,0.0,0.0,0.0,0.0,0.0,0.0,0.0,0.0,0.0,0.0,0.0,0.0,0.0,0.0,0.0,0.0,0.0,0.0,0.0,0.0,0.0,0.0,0.0,0.0,0.0,0.0,0.0,0.0,0.0,0.0,0.0,0.0,0.0,0.0,0.0,0.0,0.0,0.0,0.0,0.0,0.0,0.0,0.0,0.0,0.0,0.0,0.0,0.0,0.0,0.0,0.0,0.0,0.0,0.0,0.0,0.0,0.0,0.0,0.0,0.0,0.0,0.0,0.0,0.0,0.0,0.0,0.0,0.0,0.0,0.0,0.0,0.0,-5.5684,-5.5684,-5.5665,-5.5665,-5.5665,-5.5665,-5.5665,-5.5665,-5.5546,0.0,0.0,0.0,0.0,0.0,0.0,0.0,0.0,0.0,0.0,0.0,0.0,0.0,0.0,0.0,0.0,0.0,0.0,0.0,0.0,0.0,0.0,0.0,0.0,0.0,0.0,0.0,0.0,0.0,0.0,0.0,0.0,0.0,0.0,0.0,0.0,0.0,0.0,0.0,0.0,0.0,0.0,0.0,0.0,0.0,0.0,0.0,0.0,0.0,0.0,0.0,0.0,0.0,0.0,0.0,0.0,0.0,0.0,0.0,0.0,0.0,0.0,0.0,0.0,0.0,0.0,0.0,0.0,0.0,0.0,0.0,0.0,0.0,0.0,0.0,0.0,0.0,0.0,0.0,0.0,0.0,0.0,0.0,0.0,0.0,0.0,0.0,0.0,0.0,0.0,0.0,0.0,0.0,0.0,0.0,0.0,0.0,0.0,0.0,0.0,0.0,0.0,0.0,-5.4857,-5.4318,-5.3933,-5.3933,-5.3933,-5.3933,-5.3933,-5.3933,-5.3902,-5.3818,0.0,0.0,0.0,0.0,0.0,0.0,0.0,0.0,0.0,0.0,0.0,0.0,0.0,0.0,0.0,0.0,0.0,0.0,0.0,0.0,0.0,0.0,0.0,0.0,0.0,0.0,0.0,0.0,0.0,0.0,0.0,0.0,0.0,0.0,0.0,0.0,0.0,0.0,0.0,0.0,0.0,0.0,0.0,0.0,0.0,0.0,0.0,0.0,0.0,0.0,0.0,0.0,0.0,0.0,0.0,0.0,0.0,0.0,0.0,0.0,0.0,0.0,0.0,0.0,0.0,0.0,0.0,0.0,0.0,0.0,0.0,0.0,0.0,0.0,0.0,0.0,0.0,0.0,0.0,0.0,0.0,0.0,0.0,0.0,0.0,0.0,0.0,0.0,0.0,0.0,0.0,0.0,0.0,0.0,0.0,0.0,0.0,0.0,0.0,0.0,0.0,0.0,-5.403,-5.353,-5.3203,-5.3203,-5.3203,-5.3203,-5.3203,-5.3203,-5.3203,-5.3203,0.0,0.0,0.0,0.0,0.0,0.0,0.0,0.0,0.0,0.0,0.0,0.0,0.0,0.0,0.0,0.0,0.0,0.0,0.0,0.0,0.0,0.0,0.0,0.0,0.0,0.0,0.0,0.0,0.0,0.0,0.0,0.0,0.0,0.0,0.0,0.0,0.0,0.0,0.0,0.0,0.0,0.0,0.0,0.0,0.0,0.0,0.0,0.0,0.0,0.0,0.0,0.0,0.0,0.0,0.0,0.0,0.0,0.0,0.0,0.0,0.0,0.0,0.0,0.0,0.0,0.0,0.0,0.0,0.0,0.0,0.0,0.0,0.0,0.0,0.0,0.0,0.0,0.0,0.0,0.0,0.0,0.0,0.0,0.0,0.0,0.0,0.0,0.0,0.0,0.0,0.0,0.0,0.0,0.0,0.0,0.0,0.0,0.0,0.0,0.0,0.0,0.0,-5.3183,-5.301,-5.2972,-5.2972,-5.2972,-5.2972,-5.2972,-5.2972,-5.2972,-5.2972,0.0,0.0,0.0,0.0,0.0,0.0,0.0,0.0,0.0,0.0,0.0,0.0,0.0,0.0,0.0,0.0,0.0,0.0,0.0,0.0,0.0,0.0,0.0,0.0,0.0,0.0,0.0,0.0,0.0,0.0,0.0,0.0,0.0,0.0,0.0,0.0,0.0,0.0,0.0,0.0,0.0,0.0,0.0,0.0,0.0,0.0,0.0,0.0,0.0,0.0,0.0,0.0,0.0,0.0,0.0,0.0,0.0,0.0,0.0,0.0,-5.5703,0.0,0.0,0.0,0.0,0.0,0.0,0.0,0.0,0.0,0.0,0.0,0.0,0.0,0.0,0.0,0.0,0.0,0.0,0.0,0.0,0.0,0.0,0.0,0.0,0.0,0.0,0.0,0.0,0.0,0.0,0.0,0.0,0.0,0.0,0.0,0.0,0.0,0.0,0.0,0.0,0.0,-5.2192,-5.1625,-5.1221,-5.1221,-5.1221,-5.1221,-5.1221,-5.1221,-5.1221,-5.1221,-5.1837,0.0,0.0,0.0,0.0,0.0,0.0,0.0,0.0,0.0,0.0,0.0,0.0,0.0,0.0,0.0,0.0,0.0,0.0,0.0,0.0,0.0,0.0,0.0,0.0,0.0,0.0,0.0,0.0,0.0,0.0,0.0,0.0,0.0,0.0,0.0,0.0,0.0,0.0,0.0,0.0,0.0,0.0,0.0,0.0,0.0,0.0,0.0,0.0,0.0,0.0,0.0,0.0,0.0,0.0,0.0,0.0,0.0,0.0,0.0,0.0,-5.5703,0.0,0.0,0.0,0.0,0.0,0.0,0.0,0.0,0.0,0.0,0.0,0.0,0.0,0.0,0.0,0.0,0.0,0.0,0.0,0.0,0.0,0.0,0.0,0.0,0.0,0.0,0.0,0.0,0.0,0.0,0.0,0.0,0.0,0.0,0.0,0.0,0.0,0.0,0.0,0.0,-5.1375,-5.0952,-5.0712,-5.0712,-5.0712,-5.0712,-5.0712,-5.0712,-5.0712,-5.0712,-5.1087,0.0,0.0,0.0,0.0,0.0,0.0,0.0,0.0,0.0,0.0,0.0,0.0,0.0,0.0,0.0,0.0,0.0,0.0,0.0,0.0,0.0,0.0,0.0,0.0,0.0,0.0,0.0,0.0,0.0,0.0,0.0,0.0,0.0,0.0,0.0,0.0,0.0,0.0,0.0,0.0,0.0,0.0,0.0,0.0,0.0,0.0,0.0,0.0,0.0,0.0,0.0,0.0,0.0,-5.3203,-5.3203,-5.3203,-5.3203,-5.3203,-5.328,-5.4664,-5.5261,-5.5261,-5.5261,0.0,0.0,0.0,0.0,0.0,0.0,0.0,0.0,0.0,0.0,0.0,0.0,0.0,0.0,0.0,0.0,0.0,0.0,0.0,0.0,0.0,0.0,0.0,0.0,-5.5261,-5.5261,-5.5261,0.0,0.0,0.0,0.0,0.0,0.0,0.0,0.0,0.0,0.0,0.0,-5.0789,-5.0712,-5.0712,-5.0712,-5.0712,-5.0712,-5.0712,-5.0712,-5.0712,-5.0712,-5.0712,-5.0991,0.0,0.0,0.0,0.0,0.0,0.0,0.0,0.0,0.0,0.0,0.0,0.0,0.0,0.0,0.0,0.0,0.0,0.0,0.0,0.0,0.0,0.0,0.0,0.0,0.0,0.0,0.0,0.0,0.0,0.0,0.0,0.0,-5.5959,-5.5959,0.0,0.0,0.0,0.0,0.0,0.0,0.0,0.0,0.0,0.0,0.0,0.0,0.0,-5.3325,-5.3203,-5.3203,-5.3203,-5.3203,-5.3203,-5.3203,-5.3203,-5.3203,-5.3203,-5.3222,-5.3433,0.0,-5.353,-5.353,0.0,0.0,0.0,0.0,0.0,0.0,0.0,0.0,0.0,0.0,0.0,0.0,0.0,0.0,0.0,0.0,0.0,0.0,0.0,0.0,0.0,0.0,-5.4472,-5.3703,-5.353,-5.353,0.0,-5.4126,-5.4434,-5.3683,-5.3433,0.0,0.0,0.0,0.0,0.0,0.0,0.0,-5.0712,-5.0712,-5.0712,-5.0712,-5.0712,-5.0712,-5.0712,-5.0712,-5.0712,-5.0712,-5.0712,-5.075,-5.0837,-5.0856,0.0,0.0,0.0,0.0,0.0,0.0,0.0,0.0,0.0,0.0,0.0,0.0,0.0,0.0,0.0,0.0,0.0,0.0,0.0,0.0,0.0,0.0,0.0,0.0,0.0,0.0,0.0,0.0,0.0,-5.5917,-5.5788,-5.5361,-5.5332,-5.5029,0.0,0.0,0.0,0.0,0.0,0.0,0.0,0.0,0.0,-5.2116,-5.2024,-5.1966,-5.1906,-5.1828,-5.1779,-5.1779,-5.1779,-5.1779,-5.1779,-5.1779,-5.1779,-5.1779,-5.1779,-5.1779,-5.1875,-5.2818,-5.3414,-5.378,0.0,0.0,0.0,0.0,-5.4299,-5.4299,-5.4299,-5.4216,-5.4127,-5.4127,0.0,0.0,0.0,0.0,0.0,0.0,0.0,0.0,0.0,0.0,-5.3664,-5.3299,-5.3203,-5.3068,-5.2577,-5.2779,-5.3068,0.0,-5.2799,-5.2346,-5.1962,0.0,0.0,0.0,0.0,-5.0712,-5.0712,-5.0712,-5.0712,-5.0712,-5.0712,-5.0712,-5.0712,-5.0712,-5.0712,-5.0712,-5.0712,-5.0712,-5.0712,-5.0712,-5.0866,0.0,0.0,0.0,0.0,0.0,0.0,0.0,0.0,0.0,0.0,0.0,0.0,0.0,0.0,0.0,0.0,0.0,0.0,0.0,0.0,0.0,0.0,0.0,0.0,0.0,0.0,0.0,0.0,-5.5665,-5.5424,-5.4663,-5.4601,-5.4294,0.0,0.0,0.0,0.0,0.0,0.0,-5.2103,-5.2064,-5.1784,-5.1159,-5.1028,-5.0953,-5.0903,-5.0797,-5.074,-5.0702,-5.0693,-5.0712,-5.0712,-5.0712,-5.0712,-5.0712,-5.0712,-5.0712,-5.0808,-5.2049,-5.2683,-5.2876,-5.2876,-5.301,-5.3203,-5.3203,-5.3203,-5.3203,-5.3203,-5.3203,-5.3203,-5.3203,-5.3203,-5.3203,-5.3203,0.0,0.0,0.0,0.0,-5.3145,-5.2933,-5.2876,-5.2818,-5.2606,-5.2568,-5.2375,-5.1741,-5.1587,-5.1779,0.0,-5.2049,-5.1587,-5.1587,0.0,0.0,0.0,0.0,-5.0712,-5.0712,-5.0712,-5.0712,-5.0712,-5.0712,-5.0712,-5.0712,-5.0712,-5.0712,-5.0712,-5.0712,-5.0712,-5.0712,-5.0712,-5.0712,-5.0712,0.0,0.0,0.0,0.0,0.0,0.0,0.0,0.0,0.0,0.0,0.0,0.0,0.0,0.0,0.0,0.0,0.0,0.0,0.0,0.0,0.0,0.0,0.0,0.0,0.0,0.0,0.0,0.0,0.0,-5.4055,-5.3889,0.0,0.0,0.0,0.0,-5.1568,-5.1511,-5.1495,-5.1441,-5.1441,-5.1374,-5.1199,-5.1194,-5.1098,-5.09,-5.0896,-5.0835,-5.0692,-5.0693,-5.0712,-5.0712,-5.0712,-5.0712,-5.0712,-5.0712,-5.0712,-5.0712,-5.0789,-5.1279,-5.1962,-5.1962,-5.2462,-5.3203,-5.3203,-5.3203,-5.3203,-5.3203,-5.3203,-5.3203,-5.3203,-5.3203,-5.3203,-5.3203,-5.3203,0.0,0.0,-5.3203,-5.301,-5.2173,-5.1962,-5.1769,-5.101,-5.0827,-5.0808,-5.077,-5.077,-5.077,0.0,-5.0789,-5.077,-5.077,0.0,-5.0712,-5.0712,-5.0712,-5.0712,-5.0712,-5.0712,-5.0712,-5.0712,-5.0712,-5.0712,-5.0712,-5.0712,-5.0712,-5.0712,-5.0712,-5.0712,-5.0712,-5.0712,-5.0712,-5.0712,-5.075,0.0,0.0,0.0,0.0,0.0,0.0,0.0,0.0,0.0,0.0,0.0,0.0,0.0,0.0,0.0,0.0,0.0,0.0,0.0,0.0,0.0,0.0,0.0,0.0,0.0,0.0,0.0,0.0,-5.3164,-5.3089,0.0,-5.1933,-5.1812,-5.1673,-5.1425,-5.1405,-5.1405,-5.1406,-5.1406,-5.1386,-5.1322,-5.1242,-5.116,-5.1082,-5.1049,-5.0996,-5.0966,-5.0874,-5.084,-5.0832,-5.0782,-5.0749,-5.0692,-5.0692,-5.0693,-5.0712,-5.0712,-5.0856,-5.1125,-5.1125,-5.1318,-5.1587,-5.1587,-5.1587,-5.1587,-5.1587,-5.1587,-5.1587,-5.1587,-5.1587,-5.1587,-5.1587,-5.1587,-5.1587,-5.1587,-5.1587,-5.151,-5.1202,-5.1125,-5.1048,-5.077,-5.0712,-5.0712,-5.0712,-5.0712,-5.0712,-5.0712,-5.0712,-5.0712,-5.0712,-5.0712,-5.0712,-5.0712,-5.0712,-5.0712,-5.0712,-5.0712,-5.0712,-5.0712,-5.0712,-5.0712,-5.0712,-5.0712,-5.075,-5.0816,-5.074,-5.075,-5.0836,-5.0836,-5.0784,-5.0693,-5.0775,-5.0803,0.0,0.0,0.0,0.0,0.0,0.0,0.0,0.0,0.0,0.0,0.0,0.0,0.0,0.0,0.0,0.0,0.0,0.0,0.0,0.0,0.0,0.0,0.0,0.0,0.0,0.0,-5.3118,-5.2287,-5.2224,-5.2031,-5.1465,-5.1406,-5.1406,-5.1406,-5.1406,-5.1406,-5.1406,-5.1406,-5.1406,-5.1406,-5.1319,-5.1261,-5.1228,-5.117,-5.112,-5.1103,-5.102,-5.0946,-5.09,-5.084,-5.0771,-5.0701,-5.0702,-5.0702,-5.0712,-5.0712,-5.0712,-5.0712,-5.0712,-5.0712,-5.0712,-5.0712,-5.0712,-5.0712,-5.0712,-5.0712,-5.0712,-5.0712,-5.0712,-5.0712,-5.0712,-5.0712,-5.0712,-5.0712,-5.0712,-5.0712,-5.0712,-5.0712,-5.0712,-5.0712,-5.0712,-5.0712,-5.0712,-5.0712,-5.0712,-5.0712,-5.0712,-5.0712,-5.0712,-5.0712,-5.0712,-5.0712,-5.0712,-5.0712,-5.0712,-5.0712,-5.0712,-5.0712,-5.0712,-5.0712,-5.0712,-5.0712,-5.0758,-5.0887,-5.0827,-5.0816,-5.0923,-5.0905,-5.0858,-5.0776,-5.0858,-5.0863,-5.0805,0.0,0.0,0.0,0.0,0.0,0.0,0.0,0.0,0.0,0.0,0.0,0.0,0.0,0.0,0.0,0.0,0.0,0.0,0.0,0.0,0.0,0.0,0.0,-5.2464,-5.2581,-5.2343,-5.1504,-5.1406,-5.1406,-5.1406,-5.1406,-5.1406,-5.1406,-5.1406,-5.1406,-5.1406,-5.1406,-5.1406,-5.1406,-5.1426,-5.1403,-5.1338,-5.1308,-5.1255,-5.1183,-5.1191,-5.112,-5.0998,-5.0995,-5.0901,-5.0787,-5.0798,-5.077,-5.077,-5.075,-5.0731,-5.0731,-5.0712,-5.0712,-5.0712,-5.0712,-5.0712,-5.0712,-5.0712,-5.0712,-5.0712,-5.0712,-5.0712,-5.0712,-5.0712,-5.0712,-5.0712,-5.0712,-5.0712,-5.0712,-5.0712,-5.0712,-5.0712,-5.0712,-5.0712,-5.0712,-5.0712,-5.0712,-5.0712,-5.0712,-5.0712,-5.0712,-5.0712,-5.0712,-5.0712,-5.0712,-5.0712,0.0,-5.0712,-5.0693,-5.0693,-5.0693,-5.0693,-5.0721,-5.0721,-5.0721,-5.0767,-5.0894,-5.0902,-5.093,-5.1002,-5.0944,-5.091,-5.091,-5.0902,-5.0937,-5.1002,0.0,0.0,0.0,0.0,0.0,0.0,0.0,0.0,0.0,0.0,0.0,0.0,0.0,0.0,0.0,0.0,0.0,0.0,0.0,0.0,0.0,0.0,-5.1695,-5.1695,-5.1737,-5.1679,-5.1426,-5.1406,-5.1406,-5.1406,-5.1406,-5.1406,-5.1406,-5.1406,-5.1406,-5.1406,-5.1406,-5.1406,-5.1406,-5.2012,-5.2324,-5.2322,-5.2926,-5.3217,-5.3192,-5.3142,-5.3114,-5.3072,-5.2911,-5.2848,-5.2797,-5.2704,-5.2664,-5.2588,-5.1915,-5.1645,-5.1588,-5.0952,-5.0712,-5.0712,-5.0712,-5.0712,-5.0712,-5.0712,-5.0712,-5.0712,-5.0712,-5.0712,-5.0712,-5.0712,-5.0712,-5.0712,-5.0712,-5.0712,-5.0712,-5.0712,-5.0712,-5.0712,-5.0712,-5.0712,-5.0712,-5.0712,-5.0712,-5.0712,-5.0712,-5.0712,-5.0712,-5.0712,-5.0712,-5.0712,-5.0712,-5.0712,0.0,-5.0712,-5.0775,-5.081,-5.0702,-5.0784,-5.0841,-5.0841,-5.0841,-5.0928,-5.1113,-5.1027,-5.1014,-5.1141,-5.1138,-5.1123,-5.1123,-5.1022,-5.0991,0.0,0.0,0.0,0.0,0.0,0.0,0.0,0.0,0.0,0.0,0.0,0.0,0.0,0.0,0.0,0.0,0.0,0.0,0.0,0.0,0.0,0.0,-5.1676,-5.1406,-5.1406,-5.1406,-5.1406,-5.1406,-5.1406,-5.1406,-5.1406,-5.1406,-5.1406,-5.1406,-5.1406,-5.1562,-5.1933,-5.1933,-5.2109,-5.248,-5.2988,-5.3242,-5.3242,-5.375,-5.4004,-5.4004,-5.396,-5.393,-5.3893,-5.3759,-5.3677,-5.3633,-5.3509,-5.3436,-5.3404,-5.279,-5.2531,0.0,0.0,0.0,0.0,0.0,-5.0712,-5.0712,-5.0712,-5.0712,-5.0712,-5.0712,-5.0712,-5.0712,-5.0712,-5.0712,-5.0712,-5.0712,-5.0712,-5.0712,-5.0712,-5.0712,-5.0712,-5.0712,-5.0712,-5.0712,-5.0712,-5.0712,-5.0712,-5.0712,-5.0712,0.0,-5.0712,-5.0712,-5.0712,-5.0712,-5.074,-5.0775,-5.0775,-5.0875,-5.0916,-5.0835,-5.0894,-5.0951,-5.0951,-5.0951,0.0,0.0,0.0,-5.1128,-5.1199,-5.1203,0.0,0.0,0.0,-5.1099,-5.1159,-5.1159,0.0,0.0,-5.1223,-5.1231,0.0,0.0,0.0,0.0,0.0,0.0,0.0,0.0,0.0,0.0,0.0,0.0,0.0,0.0,0.0,0.0,-5.1406,-5.1406,-5.1406,-5.1406,-5.1406,-5.1406,-5.1406,-5.1406,-5.1406,-5.1484,-5.1543,-5.1543,-5.1641,-5.2031,-5.2812,0.0,0.0,0.0,0.0,-5.4141,-5.4141,-5.4238,-5.4297,-5.4297,-5.4297,-5.4255,-5.4195,-5.4142,-5.4069,-5.4,-5.3869,-5.3804,-5.379,-5.3548,-5.3398,-5.3148,-5.1597,-5.0981,-5.0981,-5.0866,-5.0846,-5.0827,-5.0731,0.0,0.0,-5.0712,-5.0712,-5.0712,-5.0712,-5.0712,-5.0712,-5.0712,-5.0712,-5.0712,-5.0712,-5.0712,-5.0712,-5.0712,-5.0712,-5.0712,-5.0712,-5.0712,-5.0712,-5.0712,-5.0712,-5.0693,-5.0721,-5.0702,-5.0712,-5.0712,-5.0819,-5.0894,-5.0894,-5.0979,-5.102,-5.1008,0.0,0.0,-5.1025,-5.1025,-5.1074,-5.1211,-5.1214,-5.1214,-5.1214,-5.1214,-5.1214,-5.1214,-5.1214,-5.1288,-5.1394,-5.1394,-5.1333,-5.1214,-5.1094,-5.1036,0.0,0.0,0.0,0.0,0.0,0.0,0.0,0.0,0.0,0.0,0.0,0.0,0.0,0.0,0.0,-5.1386,-5.1406,-5.1406,-5.1406,-5.1406,-5.1406,-5.1406,-5.1406,-5.1406,-5.1406,-5.2031,-5.2441,-5.2441,-5.3105,-5.3574,-5.373,-5.375,-5.3828,-5.3984,-5.4687,-5.5058,-5.5058,-5.5742,-5.6094,-5.6094,0.0,0.0,-5.6073,-5.6014,-5.5975,-5.5959,-5.5758,-5.5676,-5.5605,-5.4763,-5.3985,-5.3263,-5.2877,-5.2722,-5.2626,-5.1933,-5.1673,-5.1587,-5.0933,-5.0712,-5.0712,-5.0712,-5.0712,-5.0712,-5.0712,-5.0712,0.0,-5.0712,-5.0712,-5.0712,-5.0712,-5.0712,-5.0712,-5.0712,-5.0712,-5.0712,-5.0712,-5.0712,-5.0712,-5.0712,-5.0712,-5.0721,-5.0841,-5.0776,-5.0712,-5.0712,-5.0819,-5.0894,-5.0894,-5.1058,-5.1128,-5.1014,-5.1108,-5.1155,-5.1155,-5.1155,-5.1214,-5.1357,-5.1362,-5.1362,-5.1362,-5.1362,-5.1362,-5.1362,-5.1362,-5.1367,-5.1394,-5.1394,-5.139,-5.1362,-5.133,-5.1258,0.0,0.0,0.0,0.0,0.0,0.0,0.0,0.0,0.0,0.0,0.0,-5.159,0.0,0.0,-5.1321,-5.1386,-5.1406,-5.1406,-5.1406,-5.1777,-5.1894,-5.1445,-5.1797,-5.2051,-5.2051,-5.2832,-5.3359,-5.3359,-5.375,-5.4199,-5.4629,-5.4648,-5.4844,-5.5293,-5.5723,-5.5957,-5.5957,-5.6387,-5.6601,-5.6601,-5.6601,-5.6601,-5.6601,-5.6578,-5.6554,-5.6531,-5.634,-5.625,-5.6195,-5.557,-5.4979,-5.4494,-5.4463,-5.3933,-5.3145,-5.2712,-5.2538,-5.2481,-5.2087,-5.1664,-5.1298,-5.1298,-5.1029,-5.0712,-5.0712,-5.0712,-5.0712,-5.0712,-5.0712,-5.0712,-5.0712,-5.0712,-5.0712,-5.0712,-5.0712,-5.0712,-5.0712,-5.0712,-5.0712,-5.0712,-5.0712,-5.074,-5.0882,-5.0841,-5.0808,-5.0851,-5.0959,-5.1047,-5.1047,-5.1206,-5.1265,-5.1207,-5.1255,-5.1297,-5.1297,-5.1297,-5.1327,-5.1392,-5.1394,-5.1394,-5.1394,-5.1394,-5.1394,-5.1394,-5.1394,-5.1394,-5.1394,-5.1394,-5.1394,-5.1394,-5.1394,-5.1362,0.0,0.0,0.0,0.0,0.0,0.0,0.0,0.0,-5.1874,-5.1904,-5.152,-5.1183,-5.1145,-5.1283,-5.1406,-5.1406,-5.1543,-5.1641,-5.1641,-5.2402,-5.2695,-5.1992,-5.2539,-5.2949,-5.2949,-5.373,-5.4258,-5.4258,-5.4414,-5.4805,-5.5527,-5.5547,-5.5879,-5.6582,-5.6601,-5.6601,-5.6601,-5.6601,-5.6601,-5.6601,-5.6601,-5.6601,-5.6601,-5.6601,-5.6601,-5.6582,-5.6397,-5.6279,-5.6266,-5.6024,-5.5846,-5.5735,-5.5735,-5.4897,-5.3664,-5.351,-5.3453,-5.3433,-5.326,-5.2741,-5.2154,-5.2154,-5.1702,-5.1144,-5.0971,-5.0933,-5.0894,-5.075,-5.0712,-5.0712,-5.0712,-5.0712,-5.0712,-5.0712,-5.0712,-5.0712,-5.0712,-5.0712,-5.0712,-5.0712,-5.0721,-5.0775,-5.089,-5.0942,-5.0972,-5.099,-5.1103,-5.1203,-5.1203,-5.1325,-5.1394,-5.1394,-5.1394,-5.1394,-5.1394,-5.1394,-5.1394,-5.1394,-5.1396,-5.1396,-5.1394,-5.1398,-5.14,-5.1398,-5.14,-5.14,-5.14,-5.14,-5.14,-5.1398,-5.1398,-5.1396,-5.5905,-5.5383,-5.4628,-5.3758,-5.302,-5.2453,0.0,0.0,-5.1072,-5.1199,-5.1201,-5.1222,-5.1279,-5.1339,-5.1406,-5.1406,-5.2051,-5.2558,-5.2558,-5.3301,-5.3828,-5.3711,-5.3808,-5.3848,-5.3848,-5.4648,-5.5156,-5.5156,-5.5879,-5.6348,-5.6445,-5.6445,-5.6504,-5.6601,-5.6601,-5.6601,-5.6601,-5.6601,-5.6601,-5.6601,-5.6601,-5.6601,-5.6601,-5.6601,-5.6601,-5.6582,-5.6397,-5.6281,-5.6207,-5.604,-5.5932,-5.5885,-5.5885,-5.569,-5.5318,-5.4626,-5.4357,-5.4241,-5.3472,-5.3145,-5.3049,-5.3049,-5.2991,-5.2779,-5.2,-5.1769,-5.1625,-5.0894,-5.0712,-5.0712,-5.0712,-5.0712,-5.0712,-5.0712,-5.0712,-5.0712,-5.0712,-5.0712,-5.0712,-5.0712,-5.0793,-5.0898,-5.0979,-5.1093,-5.1128,-5.102,-5.1103,-5.1203,-5.1203,-5.1325,-5.1394,-5.1394,-5.1394,-5.1394,-5.1394,-5.1394,-5.1394,-5.1394,-5.1403,-5.1403,-5.1394,-5.1409,-5.1394,-5.1408,-5.1394,-5.1396,-5.1396,-5.1396,-5.1394,-5.1408,-5.1408,-5.1403,-5.4554,-5.4167,0.0,0.0,-5.2384,-5.2015,-5.1551,-5.112,-5.0877,-5.0952,-5.1049,-5.1269,-5.183,-5.2032,-5.2279,0.0,-5.3223,-5.3457,-5.3457,-5.4219,-5.4765,-5.4765,-5.5195,-5.5312,-5.4805,-5.5547,-5.6055,-5.6055,-5.6387,-5.6601,-5.6601,-5.6601,-5.6601,-5.6601,-5.6601,-5.6601,-5.6601,-5.6601,-5.6601,-5.6601,-5.6601,-5.6601,-5.6601,-5.6601,-5.658,-5.6528,-5.6381,-5.6241,-5.6128,-5.5993,-5.5904,-5.5836,-5.5806,-5.5745,-5.5665,-5.5318,-5.5203,-5.5145,-5.478,-5.4357,-5.3953,-5.3953,-5.3606,-5.3126,-5.2779,-5.2288,-5.1827,-5.1491,-5.1048,-5.0712,-5.0712,-5.0712,-5.0712,-5.0712,-5.0712,-5.0712,-5.0712,-5.0712,-5.0721,-5.0801,-5.0866,-5.0949,-5.1093,-5.1159,-5.1207,-5.1238,-5.1288,-5.1322,-5.1322,-5.1362,-5.1394,-5.1394,-5.1394,-5.1394,-5.1394,-5.1394,-5.1394,-5.1394,-5.1398,-5.1402,-5.1403,-5.139,-5.1394,-5.1395,-5.1397,-5.1398,-5.1398,-5.1398,-5.1397,-5.1395,-5.1395,-5.1394,-5.3195,0.0,0.0,-5.1919,-5.1724,-5.1597,-5.1018,-5.1012,-5.1168,-5.1222,-5.1482,-5.1903,-5.2636,-5.2848,-5.316,-5.3886,-5.4199,-5.4355,-5.4355,-5.5117,-5.5664,-5.5664,-5.6211,-5.6348,-5.5723,-5.623,-5.6601,-5.6601,-5.6601,-5.6601,-5.6601,-5.6601,-5.6601,-5.6601,-5.6601,-5.6601,-5.6601,-5.6601,-5.6601,-5.6601,-5.6601,-5.6601,-5.6601,-5.6601,-5.6579,-5.6522,-5.6413,-5.6299,-5.6191,-5.6056,-5.5931,-5.5847,-5.5767,-5.5735,-5.5703,-5.5703,-5.5703,-5.5703,-5.5703,-5.5318,-5.4818,-5.4818,-5.4395,-5.3857,-5.3626,-5.3126,-5.2558,-5.2327,-5.1664,-5.1029,-5.1029,-5.0856,-5.0712,-5.0712,-5.0712,-5.0702,-5.074,-5.0758,-5.0793,-5.0905,-5.0951,-5.1023,-5.1159,-5.1222,-5.1291,-5.139,-5.1394,-5.1394,-5.1394,-5.1394,-5.1394,-5.1394,-5.1394,-5.1394,-5.1394,-5.1394,-5.1394,-5.1394,-5.1396,-5.1402,-5.1409,-5.1394,-5.1397,-5.14,-5.1402,-5.1402,-5.1402,-5.1402,-5.1402,-5.14,-5.14,-5.1399,0.0,0.0,-5.1818,-5.0952,-5.0785,-5.0821,-5.0801,-5.1468,-5.2057,-5.2057,-5.2782,-5.3475,-5.3638,-5.3731,-5.3813,-5.3964,-5.4707,-5.5254,-5.5254,-5.6015,-5.6562,-5.6562,-5.6582,-5.6582,0.0,-5.6582,-5.6601,-5.6601,-5.6601,-5.6601,-5.6601,-5.6601,-5.6601,-5.6601,-5.6601,-5.6601,-5.6601,-5.6601,-5.6601,-5.6601,-5.6601,-5.6601,-5.6601,-5.6601,-5.6601,-5.6582,-5.6523,-5.6484,-5.6475,-5.6269,-5.6102,-5.5994,-5.5913,-5.5816,-5.5703,-5.5703,-5.5703,-5.5703,-5.5703,-5.5684,-5.5665,-5.5665,-5.5645,-5.5472,-5.4703,-5.4434,-5.4241,-5.3395,-5.2519,-5.1865,-5.1865,-5.1279,-5.0712,-5.0712,-5.0712,-5.074,-5.0866,-5.0887,-5.0913,-5.0972,-5.1089,-5.1195,-5.1199,-5.1319,-5.1392,-5.1394,-5.1394,-5.1394,-5.1394,-5.1394,-5.1394,-5.1394,-5.1394,-5.1394,-5.1394,-5.1394,-5.1394,-5.1394,-5.1403,-5.1409,-5.1409,-5.1401,-5.1404,-5.1405,-5.1406,-5.1406,-5.1406,-5.1406,-5.1406,-5.1405,-5.1405,-5.1401,0.0,0.0,-5.1943,-5.1682,-5.2048,-5.2471,-5.2471,-5.2694,-5.2907,-5.2907,-5.3146,-5.3561,-5.4238,-5.4479,-5.481,-5.5476,-5.5913,-5.6152,-5.6152,-5.6426,-5.6601,-5.6601,-5.6601,0.0,0.0,0.0,0.0,-5.6601,-5.6601,-5.6601,-5.6601,-5.6601,-5.6601,-5.6601,-5.6601,-5.6601,-5.6601,-5.6601,-5.6601,-5.6601,-5.6601,-5.6601,-5.6601,-5.6601,-5.6601,-5.6601,-5.6525,-5.6508,-5.6482,-5.6275,-5.6116,-5.5998,-5.593,-5.5817,-5.5703,-5.5703,-5.5703,-5.5703,-5.5703,-5.5703,-5.5703,-5.5703,-5.5703,-5.5645,-5.5376,-5.4914,-5.4434,-5.4145,-5.3433,-5.2635,-5.2038,-5.1692,-5.1356,-5.0827,-5.0712,-5.075,-5.0874,-5.0894,-5.0949,-5.1103,-5.1163,-5.1238,-5.1325,-5.1364,-5.1394,-5.1394,-5.1394,-5.1394,-5.1394,-5.1394,-5.1394,-5.1394,-5.1394,-5.1394,-5.1394,-5.1394,-5.1394,-5.1394,-5.1405,-5.1391,-5.1395,-5.1402,-5.1405,-5.1406,-5.1406,-5.1406,-5.1406,-5.1406,-5.1406,-5.1406,-5.1406,-5.1406,0.0,-5.2002,-5.2435,-5.2483,-5.2878,-5.3263,-5.3263,-5.3504,-5.3734,-5.3734,-5.3965,-5.4371,-5.5001,-5.5294,-5.5637,-5.6283,-5.6512,-5.6601,-5.6601,-5.6601,-5.6601,-5.6601,-5.6601,-5.6601,0.0,0.0,0.0,-5.6601,-5.6601,-5.6601,-5.6601,-5.6601,-5.6601,-5.6601,-5.6601,-5.6601,-5.6601,-5.6601,-5.6601,-5.6601,-5.6601,-5.6601,-5.6601,-5.6601,-5.6601,-5.6601,-5.6555,-5.6548,-5.6525,-5.6342,-5.6213,-5.6128,-5.5986,-5.5861,-5.5778,-5.5716,-5.5703,-5.5703,-5.5703,-5.5703,-5.5703,-5.5703,-5.5703,-5.5703,-5.5703,-5.5338,-5.4934,-5.4934,-5.4318,-5.3549,-5.2972,-5.2596,-5.2154,-5.1337,-5.1164,-5.1149,-5.0978,-5.0978,-5.1058,-5.1238,-5.1262,-5.1297,-5.139,-5.1394,-5.1394,-5.1394,-5.1394,-5.1394,-5.1394,-5.1394,-5.1394,-5.1394,-5.1394,-5.1394,-5.1394,-5.1394,-5.1394,-5.1394,-5.1405,-5.1393,-5.1398,-5.1403,-5.1405,-5.1406,-5.1406,-5.1406,-5.1406,-5.1406,-5.1406,-5.1406,-5.1406,-5.1406,-5.2991,-5.3241,-5.328,-5.328,-5.3299,-5.3337,-5.3337,-5.3972,-5.4549,-5.4549,-5.5164,-5.5748,0.0,0.0,-5.6232,-5.6371,-5.6511,-5.6601,-5.6601,-5.6601,-5.6601,0.0,0.0,0.0,0.0,0.0,0.0,-5.6601,0.0,-5.6601,-5.6601,-5.6601,-5.6601,-5.6601,-5.6601,-5.6601,-5.6601,-5.6601,-5.6601,-5.6601,-5.6601,-5.6601,-5.6601,-5.6601,-5.6601,-5.6601,-5.6601,-5.6601,-5.6582,-5.6458,-5.6405,-5.6374,-5.6123,-5.5965,-5.5889,-5.5758,-5.5714,-5.5703,-5.5703,-5.5703,-5.5703,-5.5703,-5.5703,-5.5703,-5.5703,-5.5703,-5.5703,-5.5703,-5.5145,-5.4549,-5.4511,-5.3895,-5.3049,-5.2173,-5.2076,-5.1989,-5.1289,-5.1191,-5.1303,-5.1445,-5.1433,-5.1394,-5.1394,-5.1394,-5.1394,-5.1394,-5.1394,-5.1394,-5.1394,-5.1394,-5.1394,-5.1394,-5.1394,-5.1394,-5.1394,-5.1394,-5.1394,-5.1394,-5.1405,-5.1394,-5.1398,-5.1403,-5.1405,-5.1406,-5.1406,-5.1406,-5.1406,-5.1406,-5.1406,-5.1406,-5.1406,-5.1406,-5.3145,-5.3664,-5.4164,-5.4164,-5.4626,-5.5049,-5.5049,-5.5222,-5.5395,-5.5395,-5.5549,-5.5705,0.0,0.0,0.0,-5.6257,-5.6454,0.0,-5.6601,-5.6601,0.0,0.0,0.0,-5.6601,-5.6601,-5.6601,0.0,0.0,-5.6601,-5.6601,-5.6601,-5.6601,-5.6601,-5.6601,-5.6601,-5.6601,-5.6601,-5.6601,-5.6601,-5.6601,-5.6601,-5.6601,-5.6601,-5.6601,-5.6601,-5.6601,-5.6601,-5.6601,-5.6601,-5.6561,-5.6483,-5.6384,-5.632,-5.6122,-5.5907,-5.5854,-5.5789,-5.5703,-5.5703,-5.5703,-5.5703,-5.5703,-5.5703,-5.5703,-5.5703,-5.5703,-5.5703,-5.5703,-5.5549,-5.5261,-5.4664,-5.4337,-5.3953,-5.3087,-5.2982,-5.305,-5.2964,-5.2519,-5.2203,-5.2342,-5.1843,-5.1394,-5.1394,-5.1394,-5.1394,-5.1394,-5.1394,-5.1394,-5.1394,-5.1394,-5.1394,-5.1394,-5.1394,-5.1394,-5.1394,-5.1402,-5.1407,-5.1407,-5.1397,-5.1402,-5.1404,-5.1405,-5.1406,-5.1406,-5.1406,-5.1406,-5.1406,-5.1406,-5.1406,-5.1406,-5.1406,-5.1406,-5.4203,-5.4645,-5.503,-5.503,-5.5376,-5.5703,-5.5703,-5.5703,-5.5703,-5.5703,-5.5703,0.0,0.0,0.0,0.0,0.0,0.0,0.0,-5.6601,-5.6601,-5.6601,0.0,-5.6601,0.0,-5.6601,-5.6601,-5.6601,0.0,-5.6601,-5.6601,-5.6601,-5.6601,-5.6601,-5.6601,-5.6601,-5.6601,-5.6601,-5.6601,-5.6601,-5.6601,-5.6601,-5.6601,-5.6601,-5.6601,-5.6601,-5.6601,0.0,-5.6601,-5.6601,-5.66,-5.657,-5.6472,-5.6381,-5.6247,-5.6064,-5.6013,-5.5896,-5.5789,-5.5789,-5.5748,-5.5703,-5.5703,-5.5703,-5.5703,-5.5703,-5.5703,-5.5703,-5.5703,-5.5703,-5.5588,-5.5145,-5.503,-5.483,-5.4034,-5.3953,-5.3998,-5.3747,-5.3405,-5.3175,-5.3264,-5.2565,-5.196,-5.196,-5.1648,-5.1394,-5.1394,-5.1394,-5.1394,-5.1394,-5.1394,-5.1394,-5.1394,-5.1394,-5.1394,-5.1394,-5.1403,-5.1409,-5.1409,-5.1401,-5.1405,-5.1405,-5.1406,-5.1406,-5.1406,-5.1406,-5.1406,-5.1406,-5.1406,-5.1406,-5.1406,-5.1406,-5.1406,-5.5511,-5.5703,-5.5703,-5.5703,-5.5703,-5.5703,-5.5703,-5.5703,-5.5703,-5.5703,0.0,0.0,-5.5703,0.0,-5.6037,-5.6175,0.0,-5.6522,-5.6582,-5.6601,-5.6601,-5.6601,-5.6601,-5.6601,-5.6601,-5.6601,-5.6601,-5.6601,-5.6601,-5.6601,-5.6601,-5.6601,-5.6601,-5.6601,-5.6601,-5.6601,-5.6601,-5.6601,-5.6601,-5.6601,-5.6601,-5.6601,-5.6601,-5.6601,-5.6601,-5.6601,-5.6601,-5.6601,-5.6599,-5.6596,-5.6609,-5.6577,-5.6404,-5.6324,-5.6279,-5.6164,-5.6042,-5.5907,-5.5907,-5.5808,-5.5703,-5.5703,-5.5703,-5.5703,-5.5703,-5.5703,-5.5703,-5.5703,-5.5703,-5.5703,-5.5703,-5.5703,-5.5554,-5.4991,-5.4958,-5.4879,-5.4264,-5.4147,-5.4147,-5.4029,-5.3385,-5.288,-5.288,-5.2156,-5.157,-5.157,-5.1472,-5.1394,-5.1394,-5.1394,-5.1394,-5.1394,-5.1394,-5.1394,-5.1396,-5.1405,-5.1391,-5.1393,-5.1402,-5.1405,-5.1405,-5.1406,-5.1406,-5.1406,-5.1406,-5.1406,-5.1406,-5.1406,-5.1406,-5.1406,-5.1406,-5.1406,-5.5665,-5.5703,-5.5703,-5.5703,-5.5703,-5.5703,-5.5703,-5.5703,0.0,0.0,0.0,-5.5703,-5.5703,-5.5863,0.0,-5.6175,0.0,0.0,0.0,0.0,-5.6601,0.0,0.0,0.0,0.0,0.0,0.0,0.0,0.0,-5.6601,-5.6601,-5.6601,-5.6601,-5.6601,-5.6601,-5.6601,-5.6601,-5.6601,-5.6601,-5.6601,-5.6601,-5.6601,-5.6601,-5.6601,-5.6601,-5.6601,-5.6601,0.0,-5.6599,-5.6599,-5.6594,-5.66,-5.6554,-5.6458,-5.6308,-5.627,-5.611,-5.5907,-5.5907,-5.5808,-5.5703,-5.5703,-5.5703,-5.5703,-5.5703,-5.5703,-5.5703,-5.5703,-5.5703,-5.5703,-5.5703,-5.5703,-5.5708,-5.5698,-5.5792,-5.5901,-5.5861,-5.5454,-5.4869,-5.4147,-5.3873,-5.3776,-5.3776,-5.3053,-5.247,-5.247,-5.1863,-5.1394,-5.1394,-5.1394,-5.1394,-5.1394,-5.1394,-5.1398,-5.1407,-5.1394,-5.1399,-5.1403,-5.1406,-5.1406,-5.1406,-5.1406,-5.1406,-5.1406,-5.1406,-5.1406,-5.1406,-5.1406,-5.1406,-5.1406,-5.1406,-5.1406,-5.5703,-5.5703,-5.5703,-5.5703,-5.5703,-5.5703,-5.5703,0.0,0.0,0.0,0.0,-5.5703,-5.5703,0.0,0.0,0.0,0.0,0.0,0.0,0.0,0.0,0.0,0.0,0.0,0.0,0.0,0.0,0.0,0.0,-5.6601,-5.6601,-5.6601,-5.6601,-5.6601,-5.6601,-5.6601,-5.6601,-5.6601,-5.6601,-5.6601,-5.6601,-5.6601,-5.6601,-5.6601,-5.6601,-5.6601,-5.6601,-5.6601,-5.6597,-5.6597,-5.6609,-5.6595,-5.6595,-5.6538,-5.6469,-5.6469,-5.6314,-5.6104,-5.6104,-5.5975,-5.5808,-5.5898,-5.5808,-5.5703,-5.5703,-5.5703,-5.5716,-5.5779,-5.5789,-5.5789,-5.5789,-5.5854,-5.593,-5.599,-5.6191,-5.6383,-5.6443,-5.6199,-5.5845,-5.5435,-5.4986,-5.4674,-5.4674,-5.3951,-5.3385,-5.3385,-5.2624,-5.2078,-5.2078,-5.1687,-5.1394,-5.1394,-5.1394,-5.1398,-5.1408,-5.1395,-5.14,-5.1404,-5.1406,-5.1406,-5.1406,-5.1406,-5.1406,-5.1406,-5.1406,-5.1406,-5.1406,-5.1406,-5.1406,-5.1406,-5.1406,-5.1406,-5.5703,-5.5703,-5.5703,-5.5703,-5.5703,-5.5703,-5.5703,-5.5703,0.0,0.0,0.0,-5.5703,-5.5703,0.0,0.0,0.0,0.0,0.0,0.0,0.0,0.0,0.0,0.0,0.0,0.0,0.0,0.0,0.0,0.0,0.0,-5.6601,-5.6601,-5.6601,-5.6601,-5.6601,-5.6601,-5.6601,-5.6601,-5.6601,-5.6601,-5.6601,-5.6601,-5.6601,-5.6601,-5.6601,-5.6601,-5.6601,-5.66,-5.6594,-5.6593,-5.6605,-5.6608,-5.6606,-5.6606,-5.6606,-5.6606,-5.6472,-5.6292,-5.6292,-5.6141,-5.5951,-5.6077,-5.5946,-5.5748,-5.5779,-5.5789,-5.5798,-5.5913,-5.5946,-5.5946,-5.5946,-5.6027,-5.6104,-5.6135,-5.6383,-5.6606,-5.6606,-5.6606,-5.6606,-5.6606,-5.6059,-5.5571,-5.5571,-5.4869,-5.4283,-5.4283,-5.3541,-5.2977,-5.2977,-5.2214,-5.1687,-5.1671,-5.1515,-5.1402,-5.1391,-5.1397,-5.1402,-5.1405,-5.1406,-5.1406,-5.1406,-5.1406,-5.1406,-5.1406,-5.1406,-5.1406,-5.1406,-5.1406,-5.1406,-5.1406,-5.1406,-5.1406,-5.5703,-5.5703,-5.5703,-5.5703,-5.5703,-5.5703,-5.5703,0.0,0.0,0.0,-5.5703,-5.5703,-5.5703,-5.5806,0.0,0.0,0.0,0.0,0.0,0.0,0.0,0.0,0.0,0.0,0.0,0.0,0.0,0.0,0.0,0.0,-5.6601,-5.6601,-5.6601,-5.6601,-5.6601,-5.6601,-5.6601,-5.6601,-5.6601,-5.6601,-5.6601,-5.6601,-5.6601,-5.6601,-5.6601,-5.6601,-5.6601,-5.6601,0.0,-5.6595,-5.6607,-5.6598,-5.661,-5.6606,-5.6606,-5.6606,-5.6472,-5.6292,-5.6292,-5.6197,-5.6078,-5.6091,-5.6005,-5.5896,-5.6035,-5.6057,-5.6057,-5.6071,-5.6078,-5.6078,-5.6078,-5.6084,-5.6128,-5.6257,-5.6443,-5.6606,-5.6606,-5.6606,-5.6606,-5.6606,-5.6547,-5.6489,-5.6489,-5.5767,-5.5181,-5.5181,-5.4439,-5.3873,-5.3873,-5.3112,-5.2589,-5.2576,-5.1877,-5.1391,-5.1397,-5.1402,-5.1405,-5.1406,-5.1406,-5.1406,-5.1406,-5.1406,-5.1406,-5.1406,-5.1406,-5.1406,-5.1406,-5.1406,-5.1406,-5.1406,-5.1406,-5.1406,-5.5703,-5.5703,-5.5703,-5.5703,-5.5703,-5.5703,-5.5703,0.0,0.0,-5.5703,-5.5703,-5.5703,-5.5703,-5.5785,-5.5856,0.0,0.0,0.0,0.0,0.0,0.0,0.0,0.0,0.0,0.0,0.0,0.0,0.0,0.0,0.0,-5.7344,-5.6894,-5.6601,-5.6601,-5.6601,-5.6601,-5.6601,-5.6601,-5.6601,-5.6601,-5.6601,-5.6601,-5.6601,-5.6601,-5.6601,-5.6601,-5.6601,-5.6601,0.0,-5.6598,-5.6594,-5.6607,-5.66,-5.6595,-5.6595,-5.6608,-5.6553,-5.6475,-5.6475,-5.6367,-5.6242,-5.6355,-5.6271,-5.6135,-5.6104,-5.6097,-5.6116,-5.6191,-5.6212,-5.6212,-5.6212,-5.6212,-5.6257,-5.6439,-5.6533,-5.6606,-5.6606,-5.6606,-5.6606,-5.6606,-5.6606,-5.6606,-5.6606,-5.6313,-5.6079,-5.6079,-5.5337,-5.4771,-5.4771,-5.401,-5.3485,-5.3489,-5.2225,-5.1394,-5.1402,-5.1404,-5.1405,-5.1406,-5.1406,-5.1406,-5.1406,-5.1406,-5.1406,-5.1406,-5.1406,-5.1406,-5.1406,-5.1406,-5.1406,-5.1406,-5.1406,-5.1406,-5.5703,-5.5703,-5.5703,-5.5703,-5.5703,-5.5703,0.0,0.0,0.0,-5.5703,-5.5703,-5.5714,-5.5735,-5.5776,-5.5846,0.0,0.0,0.0,0.0,0.0,0.0,0.0,0.0,0.0,0.0,0.0,0.0,0.0,0.0,0.0,-5.8242,-5.7695,-5.7246,-5.6992,-5.6973,-5.6855,-5.6601,-5.6601,-5.6601,-5.6601,-5.6601,-5.6601,-5.6601,-5.6601,-5.6601,-5.6601,-5.6601,-5.6601,0.0,-5.66,-5.6598,-5.6595,-5.6607,-5.6605,-5.6603,-5.6595,-5.6591,-5.6591,-5.6606,-5.6503,-5.6413,-5.6555,-5.6503,-5.6375,-5.6291,-5.6246,-5.6261,-5.6367,-5.6386,-5.6386,-5.6386,-5.6386,-5.6416,-5.6577,-5.6606,-5.6606,-5.6606,-5.6606,-5.6606,-5.6606,-5.6606,-5.6606,-5.6606,-5.6606,-5.6606,-5.6606,-5.6079,-5.5689,-5.5689,-5.4927,-5.4381,-5.4385,-5.3064,-5.2058,-5.1813,-5.1775,-5.1679,-5.1426,-5.1406,-5.1406,-5.1406,-5.1406,-5.1406,-5.1406,-5.1406,-5.1406,-5.1406,-5.1406,-5.1406,-5.1406,-5.1406,-5.1406,-5.5703,-5.5703,-5.5703,-5.5703,-5.5703,-5.5703,0.0,0.0,0.0,-5.5703,-5.5703,-5.5724,-5.5787,-5.5846,-5.5914,-5.599,0.0,0.0,0.0,0.0,0.0,0.0,0.0,0.0,0.0,0.0,0.0,0.0,0.0,0.0,-5.914,-5.918,-5.8789,-5.791,-5.789,-5.7461,-5.6601,-5.6601,-5.6601,-5.6601,-5.6601,-5.6601,-5.6601,-5.6601,-5.6601,-5.6601,-5.6601,-5.6601,0.0,-5.66,-5.6599,-5.6599,-5.6595,-5.6593,-5.6592,-5.6605,-5.6602,-5.66,-5.6608,-5.6604,-5.6604,-5.6606,-5.6604,-5.6604,-5.6604,-5.6584,-5.6604,-5.6604,-5.6604,-5.6604,-5.6604,-5.6604,-5.6604,-5.6606,-5.6606,-5.6606,-5.6606,-5.6606,-5.6606,-5.6606,-5.6606,-5.6606,-5.6606,-5.6606,-5.6606,-5.6606,-5.6586,-5.6586,-5.6586,-5.5825,-5.5283,-5.5292,-5.4493,-5.3617,-5.2765,-5.2691,-5.2323,-5.1445,-5.1406,-5.1406,-5.1406,-5.1406,-5.1406,-5.1406,-5.1406,-5.1406,-5.1406,-5.1406,-5.1406,-5.1406,-5.1406,-5.1406,-5.5703,-5.5703,-5.5703,-5.5703,-5.5703,-5.5703,-5.5703,0.0,0.0,-5.5703,-5.5703,-5.5724,-5.5787,-5.5846,-5.5914,-5.599,0.0,0.0,0.0,0.0,0.0,0.0,0.0,0.0,0.0,0.0,0.0,0.0,0.0,0.0,-5.998,-6.0019,-5.9648,-5.8808,-5.8203,-5.7773,-5.748,-5.6894,-5.6601,-5.6601,-5.6601,-5.6601,-5.6601,-5.6601,-5.6601,-5.6601,-5.6601,-5.6601,-5.6601,-5.6601,-5.6601,-5.6601,-5.6599,-5.6597,-5.6597,-5.6592,-5.6609,-5.6609,-5.6606,-5.6602,-5.6596,-5.6596,-5.6593,-5.6606,-5.6606,-5.6606,-5.6606,-5.6606,-5.6606,-5.6606,-5.6606,-5.6606,-5.6606,-5.6606,-5.6606,-5.6606,-5.6606,-5.6606,-5.6606,-5.6606,-5.6606,-5.6606,-5.6606,-5.6606,-5.6606,-5.6606,-5.6606,-5.6606,-5.6606,-5.6352,-5.6181,-5.619,-5.5938,-5.5181,-5.3706,-5.3591,-5.3475,-5.3183,-5.3183,-5.3183,-5.3183,-5.3183,-5.3183,-5.3183,-5.3183,-5.3183,-5.3183,-5.3183,-5.3183,-5.3183,-5.3183,-5.3183,0.0,-5.5703,-5.5703,-5.5703,-5.5703,0.0,0.0,0.0,0.0,0.0,-5.5703,-5.5735,-5.5826,-5.5875,-5.5924,-5.5989,0.0,0.0,0.0,0.0,0.0,0.0,0.0,0.0,0.0,0.0,0.0,0.0,0.0,0.0,-6.0859,-6.0898,-6.0664,-6.0156,-5.9004,-5.8223,-5.789,-5.7031,-5.6601,-5.6601,-5.6601,-5.6601,-5.6601,-5.6601,-5.6601,-5.6601,-5.6601,-5.6601,0.0,-5.6601,-5.6601,-5.6601,-5.6601,-5.6601,-5.66,-5.6596,-5.6593,-5.6592,-5.6606,-5.66,-5.6596,-5.6596,-5.6591,-5.6606,-5.6606,-5.6606,-5.6606,-5.6606,-5.6606,-5.6606,-5.6606,-5.6606,-5.6606,-5.6606,-5.6606,-5.6606,-5.6606,-5.6606,-5.6606,-5.6606,-5.6606,-5.6606,-5.6606,-5.6606,-5.6606,-5.6606,-5.6606,-5.6606,-5.6606,-5.6606,-5.661,-5.66,-5.6602,-5.6158,-5.5075,-5.4685,-5.4354,-5.4023,-5.4004,-5.4004,-5.4004,-5.4004,-5.4004,-5.4004,-5.4004,-5.4004,-5.4004,-5.4004,-5.4004,-5.4004,-5.4004,-5.4004,0.0,0.0,0.0,0.0,0.0,0.0,0.0,0.0,0.0,0.0,0.0,0.0,0.0,0.0,-5.5914,-5.5995,0.0,0.0,0.0,0.0,0.0,0.0,0.0,0.0,0.0,0.0,0.0,0.0,0.0,-6.0859,-6.166,-6.1699,-6.1699,-6.1699,-6.0078,-5.8808,-5.8008,-5.707,-5.6601,-5.6601,-5.6601,-5.6601,-5.6601,-5.6601,-5.6601,0.0,-5.6601,-5.6601,-5.6601,-5.6601,-5.6601,-5.6601,-5.6601,-5.6601,-5.6601,-5.6597,-5.6593,-5.6592,-5.6595,-5.6608,-5.6606,-5.6606,-5.6606,-5.6606,-5.6606,-5.6606,-5.6606,-5.6606,-5.6606,-5.6606,-5.6606,-5.6606,-5.6606,-5.6606,-5.6606,-5.6606,-5.6606,-5.6606,-5.6606,-5.6606,-5.6606,-5.6606,-5.6606,-5.6606,-5.6606,-5.6606,-5.6606,-5.6606,-5.6606,-5.6606,-5.6591,-5.6602,-5.6602,-5.6609,-5.6599,-5.5857,-5.5057,-5.4238,-5.418,-5.418,-5.418,-5.418,-5.418,-5.418,-5.418,-5.418,-5.418,-5.418,-5.418,-5.418,-5.418,-5.418,0.0,0.0,0.0,0.0,0.0,0.0,0.0,0.0,0.0,0.0,0.0,0.0,0.0,0.0,0.0,0.0,0.0,0.0,0.0,0.0,0.0,0.0,0.0,0.0,0.0,0.0,0.0,0.0,0.0,-6.1484,-6.1699,-6.1699,-6.1699,-6.1699,-6.0078,-5.9101,-5.8906,-5.7363,-5.6601,-5.6601,-5.6601,-5.6601,-5.6601,-5.6601,-5.6601,-5.6601,-5.6601,-5.6601,-5.6601,-5.6601,-5.6601,-5.6601,-5.6601,-5.6601,-5.6601,-5.6599,-5.6598,-5.6597,-5.6591,-5.6603,-5.6596,-5.6608,-5.6606,-5.6606,-5.6606,-5.6606,-5.6606,-5.6606,-5.6606,-5.6606,-5.6606,-5.6606,-5.6606,-5.6606,-5.6606,-5.6606,-5.6606,-5.6606,-5.6606,-5.6606,-5.6606,-5.6606,-5.6606,-5.6606,-5.6606,-5.6606,-5.6606,-5.6606,-5.6606,-5.6606,-5.6593,-5.6609,-5.6591,-5.6595,-5.6601,-5.6405,-5.621,-5.5996,-5.5996,-5.5996,-5.5996,-5.5996,-5.5996,-5.5996,-5.5996,-5.5996,-5.5996,-5.5996,-5.5996,-5.5996,-5.5996,-5.5996,0.0,0.0,0.0,0.0,0.0,0.0,0.0,0.0,0.0,0.0,0.0,0.0,0.0,0.0,0.0,0.0,0.0,0.0,0.0,0.0,0.0,0.0,0.0,0.0,0.0,0.0,0.0,0.0,0.0,-6.1699,-6.1699,-6.1699,-6.1699,-6.1699,-6.0078,-5.9199,-5.9199,-5.7461,-5.6601,-5.6601,-5.6601,-5.6601,-5.6601,-5.6601,-5.6601,-5.6601,-5.6601,-5.6601,-5.6601,-5.6601,-5.6601,-5.6601,-5.6601,-5.6601,-5.6601,-5.6599,-5.6597,-5.6596,-5.6606,-5.6598,-5.6595,-5.6608,-5.6606,-5.6606,-5.6606,-5.6606,-5.6606,-5.6606,-5.6606,-5.6606,-5.6606,-5.6606,-5.6606,-5.6606,-5.6606,-5.6606,-5.6606,-5.6606,-5.6606,-5.6606,-5.6606,-5.6606,-5.6606,-5.6606,-5.6606,-5.6606,-5.6606,-5.6606,-5.6606,-5.6606,-5.6595,-5.6592,-5.6593,-5.6597,-5.6601,-5.6601,-5.6601,-5.6601,-5.6601,-5.6601,-5.6601,-5.6601,-5.6601,-5.6601,-5.6601,-5.6601,-5.6601,-5.6601,-5.6601,-5.6601,-5.6601,-5.6601,0.0,0.0,0.0,0.0,0.0,0.0,0.0,0.0,0.0,0.0,0.0,0.0,0.0,0.0,0.0,0.0,0.0,0.0,0.0,0.0,0.0,0.0,0.0,0.0,0.0,0.0,0.0,0.0,-6.1699,-6.1699,-6.1699,-6.1699,-6.1699,-6.1699,-6.0078,-5.9199,-5.9199,-5.7461,-5.6601,-5.6601,-5.6601,-5.6601,-5.6601,-5.6601,-5.6601,-5.6601,0.0,0.0,-5.6601,-5.6601,-5.6601,-5.6601,-5.6601,-5.6601,-5.6601,-5.6597,-5.6592,-5.6609,-5.6593,-5.6606,-5.6606,-5.6606,-5.6606,-5.6606,-5.6606,-5.6606,-5.6606,-5.6606,-5.6606,-5.6606,-5.6606,-5.6606,-5.6606,-5.6606,-5.6606,-5.6606,-5.6606,-5.6606,-5.6606,-5.6606,-5.6606,-5.6606,-5.6606,-5.6606,-5.6606,-5.6606,-5.6606,-5.6606,-5.6606,-5.6606,-5.6595,-5.6592,-5.6593,-5.6597,-5.6601,-5.6601,-5.6601,-5.6601,-5.6601,-5.6601,-5.6601,-5.6601,-5.6601,-5.6601,-5.6601,-5.6601,-5.6601,-5.6601,-5.6601,-5.6601,-5.6601,-5.6601,-5.5703,-5.5703,0.0,0.0,0.0,0.0,0.0,0.0,0.0,0.0,0.0,0.0,0.0,0.0,0.0,0.0,0.0,0.0,0.0,0.0,0.0,0.0,0.0,0.0,0.0,0.0,0.0,0.0,-6.1699,-6.1699,-6.1699,-6.1699,-6.1699,-6.1699,-6.0078,-5.9199,-5.9199,-5.7461,-5.6601,-5.6601,-5.6601,-5.6601,-5.6601,-5.6601,-5.6601,-5.6601,0.0,-5.6601,-5.6601,-5.6601,-5.6601,-5.6601,-5.6601,-5.6601,-5.6599,-5.6595,-5.6609,-5.6602,-5.6591,-5.6606,-5.6606,-5.6606,-5.6606,-5.6606,-5.6606,-5.6606,-5.6606,-5.6606,-5.6606,-5.6606,-5.6606,-5.6606,-5.6606,-5.6606,-5.6606,-5.6606,-5.6606,-5.6606,-5.6606,-5.6606,-5.6606,-5.6606,-5.6606,-5.6606,-5.6606,-5.6606,-5.6606,-5.6606,-5.6606,-5.6606,-5.6595,-5.6592,-5.6593,-5.6597,-5.6601,-5.6601,-5.6601,-5.6601,-5.6601,-5.6601,-5.6601,-5.6601,-5.6601,-5.6601,-5.6601,-5.6601,-5.6601,-5.6601,-5.6601,-5.6601,-5.6601,-5.6601,-5.5703,-5.5703,-5.5703,0.0,0.0,0.0,0.0,0.0,0.0,0.0,0.0,0.0,0.0,0.0,0.0,0.0,0.0,0.0,0.0,0.0,0.0,0.0,0.0,0.0,0.0,0.0,0.0,-6.1609,-6.1678,-6.1699,-6.1699,-6.1699,-6.1699,-6.1699,-6.0078,-5.9199,-5.9199,-5.7461,-5.6601,-5.6601,-5.6601,-5.6601,-5.6601,-5.6601,-5.6601,-5.6601,0.0,-5.6601,-5.6601,-5.6601,-5.6601,-5.6601,-5.6601,-5.6601,-5.6596,-5.6594,-5.6606,-5.6593,-5.6595,-5.6591,-5.6606,-5.6606,-5.6606,-5.6606,-5.6606,-5.6606,-5.6606,-5.6606,-5.6606,-5.6606,-5.6606,-5.6606,-5.6606,-5.6606,-5.6606,-5.6606,-5.6606,-5.6606,-5.6606,-5.6606,-5.6606,-5.6606,-5.6606,-5.6606,-5.6606,-5.6606,-5.6606,-5.6606,-5.6606,-5.6606,-5.6593,-5.6606,-5.6591,-5.6596,-5.6601,-5.6601,-5.6601,-5.6601,-5.6601,-5.6601,-5.6601,-5.6601,-5.6601,-5.6601,-5.6601,-5.6601,-5.6601,-5.6601,-5.6601,-5.6601,-5.6601,-5.6601,-5.5703,-5.5703,-5.5703,0.0,0.0,0.0,0.0,0.0,0.0,0.0,0.0,0.0,0.0,0.0,0.0,0.0,0.0,0.0,0.0,0.0,0.0,0.0,0.0,0.0,0.0,0.0,0.0,-6.1603,-6.1651,-6.1679,-6.1699,-6.1699,-6.1601,-6.1406,-5.9961,-5.9101,-5.8906,-5.7363,-5.6601,-5.6601,-5.6601,-5.6601,-5.6601,-5.6601,-5.6601,-5.6601,-5.6601,-5.6601,-5.6601,-5.6601,-5.6601,-5.66,-5.6601,-5.6599,-5.6591,-5.6607,-5.66,-5.6606,-5.6595,-5.6593,-5.6606,-5.6606,-5.6723,-5.6879,-5.6879,-5.7016,-5.7192,-5.7192,-5.7194,-5.7096,-5.6704,-5.6743,-5.6879,-5.6879,-5.7035,-5.7192,-5.7192,-5.7192,-5.7133,-5.6918,-5.6881,-5.6825,-5.663,-5.6593,-5.6593,-5.6593,-5.6591,-5.661,-5.661,-5.6606,-5.661,-5.66,-5.6606,-5.6594,-5.6599,-5.6601,-5.6601,-5.6601,-5.6601,-5.6601,-5.6601,-5.6601,-5.6601,-5.6601,-5.6601,-5.6601,-5.6601,-5.6601,-5.6601,-5.6601,-5.6601,-5.6601,-5.5703,-5.5703,-5.5703,-5.5703,0.0,0.0,0.0,0.0,0.0,0.0,0.0,0.0,0.0,0.0,0.0,0.0,0.0,0.0,0.0,0.0,0.0,0.0,0.0,0.0,0.0,0.0,-6.1401,-6.1598,-6.1607,-6.1624,-6.1699,-6.1699,-6.1328,-6.0527,-5.9648,-5.8808,-5.8008,-5.707,-5.6601,-5.6601,-5.6601,-5.6601,-5.6601,-5.6601,-5.6601,-5.6601,-5.6601,-5.6601,-5.6601,-5.6601,-5.6601,-5.6601,-5.66,-5.6595,-5.6602,-5.6593,-5.6606,-5.6606,-5.6606,-5.6606,-5.6606,-5.6606,-5.7113,-5.7719,-5.7719,-5.8285,-5.8927,-5.8927,-5.8918,-5.8552,-5.6999,-5.7153,-5.7719,-5.7719,-5.8324,-5.8927,-5.8927,-5.8927,-5.8675,-5.7875,-5.7707,-5.748,-5.6737,-5.6606,-5.6592,-5.6592,-5.6605,-5.66,-5.66,-5.6593,-5.661,-5.66,-5.6602,-5.6609,-5.6599,-5.6601,-5.6601,-5.6601,-5.6601,-5.6601,-5.6601,-5.6601,-5.6601,-5.6601,-5.6601,-5.6601,-5.6601,-5.6601,-5.6601,-5.6601,-5.6601,-5.6601,-5.5703,-5.5703,-5.5703,-5.5703,0.0,0.0,0.0,0.0,0.0,0.0,0.0,0.0,0.0,0.0,0.0,0.0,0.0,0.0,0.0,0.0,0.0,0.0,0.0,0.0,0.0,-6.1252,-6.1349,-6.1475,-6.1546,-6.1388,-6.0918,-6.0898,-6.0508,-5.9687,-5.8828,-5.8223,-5.789,-5.7031,-5.6601,-5.6601,-5.6601,-5.6601,-5.6601,-5.6601,-5.6601,-5.6601,-5.6601,-5.6601,-5.664,-5.7187,-5.7402,-5.746,-5.7962,-5.8149,-5.8142,-5.8158,-5.8152,-5.8148,-5.8154,-5.8152,-5.8148,-5.8148,-5.8363,-5.8616,-5.8616,-5.8831,-5.9102,-5.9102,-5.9093,-5.8943,-5.8326,-5.8389,-5.8607,-5.8619,-5.887,-5.9102,-5.9102,-5.9102,-5.9005,-5.8675,-5.8607,-5.8517,-5.8203,-5.7741,-5.7413,-5.7413,-5.6942,-5.6609,-5.6609,-5.6606,-5.6605,-5.6609,-5.6593,-5.6597,-5.6601,-5.6601,-5.6601,-5.6601,-5.6601,-5.6601,-5.6601,-5.6601,-5.6601,-5.6601,-5.6601,-5.6601,-5.6601,-5.6601,-5.6601,-5.6601,-5.6601,-5.6601,-5.5703,-5.5703,0.0,0.0,0.0,0.0,0.0,0.0,0.0,0.0,0.0,0.0,0.0,0.0,0.0,0.0,0.0,0.0,0.0,0.0,0.0,0.0,0.0,0.0,0.0,-6.1175,-6.116,-6.0962,-6.1066,-6.0781,-5.9996,-5.9999,-5.9648,-5.8828,-5.8203,-5.7773,-5.748,-5.6894,-5.6601,-5.6601,-5.6875,-5.7012,-5.7012,-5.7012,-5.7168,-5.7422,-5.7422,-5.7422,-5.7461,-5.8066,-5.83,-5.8336,-5.8875,-5.9102,-5.9095,-5.9095,-5.9089,-5.9104,-5.9093,-5.9089,-5.9102,-5.9102,-5.9282,-5.9519,-5.9519,-5.9697,-5.9915,-5.9915,-5.9922,-5.9927,-5.9917,-5.9725,-5.9514,-5.9503,-5.9714,-5.9929,-5.9929,-5.9927,-5.9844,-5.9553,-5.9507,-5.9418,-5.9144,-5.8664,-5.8316,-5.8316,-5.7807,-5.7318,-5.7044,-5.7004,-5.6905,-5.6632,-5.6597,-5.66,-5.6601,-5.6601,-5.6601,-5.6601,-5.6601,-5.6601,-5.6601,-5.6601,-5.6601,-5.6601,-5.6601,-5.6601,-5.6601,-5.6601,-5.6601,-5.6601,-5.6601,-5.6601,-5.5703,0.0,0.0,0.0,0.0,0.0,0.0,0.0,0.0,0.0,0.0,0.0,0.0,0.0,0.0,0.0,0.0,0.0,0.0,0.0,0.0,0.0,0.0,0.0,-6.1002,-6.1079,-6.0773,-6.0046,-6.0041,-5.9771,-5.9026,-5.9117,-5.8789,-5.793,-5.789,-5.7461,-5.6601,-5.6601,-5.6601,-5.6621,-5.748,-5.789,-5.789,-5.791,-5.8379,-5.9199,-5.9199,-5.9199,-5.9199,-5.9219,-5.9178,-5.9112,-5.9112,-5.9122,-5.9122,-5.9122,-5.9122,-5.9122,-5.9122,-5.9122,-5.9122,-5.9122,-5.9716,-6.0409,-6.0409,-6.1019,-6.1709,-6.1709,-6.1694,-6.1696,-6.1691,-6.1065,-6.0419,-6.0411,-6.1073,-6.1697,-6.1697,-6.1709,-6.1447,-6.0588,-6.0409,-6.0147,-5.9268,-5.9178,-5.9219,-5.9219,-5.9199,-5.8884,-5.8025,-5.7905,-5.7569,-5.669,-5.6597,-5.6599,-5.6599,-5.6601,-5.6601,-5.6601,-5.6601,-5.6601,-5.6601,-5.6601,-5.6601,-5.6601,-5.6601,-5.6601,-5.6601,-5.6601,-5.6601,-5.6601,-5.6601,-5.6601,-5.5703,0.0,0.0,0.0,0.0,0.0,0.0,0.0,0.0,0.0,0.0,0.0,0.0,0.0,0.0,0.0,0.0,0.0,0.0,0.0,0.0,0.0,0.0,0.0,-5.9319,-5.9339,-5.9263,-5.9101,-5.919,-5.8917,-5.8126,-5.8218,-5.789,-5.7012,-5.6992,-5.6855,-5.6601,-5.6601,-5.6914,-5.7519,-5.7773,-5.789,-5.793,-5.8535,-5.8965,-5.9199,-5.9199,-5.9199,-5.9238,-5.9804,-6.0387,-6.0928,-6.0928,-6.0938,-6.0939,-6.0928,-6.0926,-6.0937,-6.0937,-6.0937,-6.0937,-6.0937,-6.1095,-6.1315,-6.1315,-6.1499,-6.1701,-6.1701,-6.1707,-6.1691,-6.1704,-6.1514,-6.1303,-6.131,-6.1516,-6.1705,-6.1705,-6.1709,-6.1616,-6.1362,-6.1317,-6.1227,-6.0973,-6.0448,-6.0039,-6.0039,-5.9551,-5.9101,-5.8847,-5.8281,-5.7792,-5.7538,-5.6972,-5.6601,-5.6601,-5.6601,-5.6601,-5.6601,-5.6601,-5.6601,-5.6601,-5.6601,-5.6601,-5.6601,-5.6601,-5.6601,-5.6601,-5.6601,-5.6601,-5.6601,-5.6601,-5.6601,0.0,0.0,0.0,0.0,0.0,0.0,0.0,0.0,0.0,0.0,0.0,0.0,0.0,0.0,0.0,0.0,0.0,0.0,0.0,0.0,0.0,0.0,0.0,-5.8217,-5.8574,-5.8613,-5.8463,-5.818,-5.824,-5.797,-5.7197,-5.7265,-5.7126,-5.6621,-5.6601,-5.6601,-5.6601,-5.6601,-5.7031,-5.789,-5.8242,-5.8574,-5.8906,-5.9433,-5.9863,-6.0195,-6.0195,-6.0195,-6.0234,-6.0722,-6.1226,-6.1708,-6.1705,-6.1696,-6.1701,-6.1707,-6.1709,-6.1707,-6.1707,-6.169,-6.1694,-6.1694,-6.1694,-6.1694,-6.1694,-6.1701,-6.1708,-6.1708,-6.1692,-6.1695,-6.1692,-6.1695,-6.1695,-6.1705,-6.1697,-6.1694,-6.1694,-6.1692,-6.1692,-6.1692,-6.1704,-6.1693,-6.1695,-6.1268,-6.0918,-6.0918,-6.0215,-5.9687,-5.9687,-5.8945,-5.8418,-5.8418,-5.7949,-5.7637,-5.7637,-5.7324,-5.7129,-5.7129,-5.6797,-5.6601,-5.6601,-5.6601,-5.6601,-5.6601,-5.6601,-5.6601,-5.6601,-5.6601,-5.6601,-5.6601,-5.6601,-5.6601,0.0,0.0,0.0,0.0,0.0,0.0,0.0,0.0,0.0,0.0,0.0,0.0,0.0,0.0,0.0,0.0,0.0,0.0,0.0,0.0,0.0,0.0,0.0,-5.7501,-5.8294,-5.8352,-5.8023,-5.7241,-5.7249,-5.7008,-5.6342,-5.6439,-5.6527,-5.6601,-5.6601,-5.6601,-5.6601,-5.6601,-5.707,-5.8027,-5.8828,-5.9668,-6.0527,-6.0527,-6.0957,-6.1699,-6.1699,-6.1699,-6.1699,-6.1698,-6.1695,-6.1709,-6.1702,-6.1694,-6.1703,-6.1703,-6.1692,-6.1699,-6.1699,-6.1704,-6.1709,-6.1709,-6.1709,-6.1709,-6.1709,-6.1694,-6.1697,-6.1697,-6.1698,-6.1699,-6.1699,-6.1698,-6.1696,-6.1692,-6.1709,-6.1708,-6.1707,-6.1696,-6.1703,-6.1703,-6.1694,-6.1704,-6.169,-6.1695,-6.1698,-6.1699,-6.1035,-6.0527,-6.0527,-5.9805,-5.9316,-5.9316,-5.9238,-5.9199,-5.9199,-5.8476,-5.8027,-5.8027,-5.7265,-5.6836,-5.6836,-5.668,-5.6601,-5.6601,-5.6601,-5.6601,-5.6601,-5.6601,-5.6601,-5.6601,-5.6601,-5.6601,0.0,0.0,0.0,0.0,0.0,0.0,0.0,0.0,0.0,0.0,0.0,0.0,0.0,0.0,0.0,0.0,0.0,0.0,0.0,0.0,0.0,0.0,-5.6274,-5.636,-5.6534,-5.6553,-5.6476,-5.6293,-5.6384,-5.6405,-5.6303,-5.6439,-5.6527,-5.6601,-5.6601,-5.6601,-5.6601,-5.6601,-5.7383,-5.8926,-5.9101,-5.998,-6.1426,-6.1426,-6.1523,-6.1699,-6.1699,-6.1699,-6.1699,-6.1698,-6.1697,-6.1696,-6.1695,-6.1691,-6.1705,-6.1691,-6.1691,-6.1707,-6.1707,-6.1708,-6.1709,-6.1709,-6.1709,-6.1709,-6.1709,-6.1694,-6.1697,-6.1697,-6.1697,-6.1698,-6.1698,-6.1695,-6.1692,-6.1695,-6.1709,-6.1699,-6.1709,-6.1697,-6.1704,-6.1704,-6.1694,-6.1698,-6.1698,-6.1699,-6.1699,-6.1699,-6.1543,-6.1426,-6.1426,-6.0664,-6.0137,-6.0137,-5.957,-5.9199,-5.9199,-5.9023,-5.8926,-5.8926,-5.873,-5.8633,-5.8633,-5.7324,-5.6601,-5.6601,-5.6601,-5.6601,-5.6601,-5.6601,-5.6601,-5.6601,-5.6601,-5.6601,0.0,0.0,0.0,0.0,0.0,0.0,0.0,0.0,0.0,0.0,0.0,0.0,0.0,0.0,0.0,0.0,0.0,0.0,0.0,0.0,0.0,0.0,-5.6012,-5.6012,-5.6012,-5.6012,-5.6012,-5.6012,-5.6056,-5.6168,-5.6284,-5.637,-5.6467,-5.6601,-5.6601,-5.6601,-5.6601,-5.6601,-5.7461,-5.9199,-5.9199,-6.0078,-6.1699,-6.1699,-6.1699,-6.1699,-6.1699,-6.1699,-6.1699,-6.1698,-6.1697,-6.1697,-6.1695,-6.1692,-6.1709,-6.1693,-6.1694,-6.1694,-6.1694,-6.1695,-6.1696,-6.1696,-6.1695,-6.1694,-6.1694,-6.1695,-6.1697,-6.1697,-6.1698,-6.1698,-6.1698,-6.1698,-6.1697,-6.1697,-6.1692,-6.1704,-6.1702,-6.1707,-6.1709,-6.1709,-6.1694,-6.1697,-6.1698,-6.1699,-6.1699,-6.1699,-6.1699,-6.1699,-6.1699,-6.1308,-6.1015,-6.1015,-6.0644,-6.039,-6.039,-6.0019,-5.9765,-5.9765,-5.9414,-5.9199,-5.9199,-5.832,-5.7656,-5.7226,-5.7226,-5.7012,-5.6601,-5.6601,-5.6601,-5.6601,-5.6601,-5.6601,0.0,0.0,0.0,0.0,0.0,0.0,0.0,0.0,0.0,0.0,0.0,0.0,0.0,0.0,0.0,0.0,0.0,0.0,0.0,0.0,0.0,0.0,-5.6012,-5.6012,-5.6012,-5.6012,-5.6012,-5.6012,-5.6012,-5.6085,-5.6279,-5.6292,-5.638,-5.6582,-5.6601,-5.6601,-5.6601,-5.6601,-5.7461,-5.9199,-5.9492,-6.0351,-6.1699,-6.1699,-6.1699,-6.1699,-6.1699,-6.1699,-6.1699,-6.1698,-6.1698,-6.1697,-6.1694,-6.1692,-6.1692,-6.1692,-6.1695,-6.1698,-6.1698,-6.1699,-6.1699,-6.1699,-6.1699,-6.1698,-6.1698,-6.1698,-6.1698,-6.1698,-6.1699,-6.1699,-6.1699,-6.1699,-6.1699,-6.1698,-6.1695,-6.1692,-6.1695,-6.1692,-6.1708,-6.1708,-6.1691,-6.1694,-6.1697,-6.1699,-6.1699,-6.1699,-6.1699,-6.1699,-6.1699,-6.1699,-6.1699,-6.1699,-6.1699,-6.1699,-6.1699,-6.1035,-6.0625,-6.0625,-6.0,-5.9629,-5.9629,-5.9629,-5.9219,-5.8359,-5.8203,-5.7773,-5.7051,-5.6894,-5.6816,-5.6816,-5.668,-5.6601,0.0,0.0,0.0,0.0,0.0,0.0,0.0,0.0,0.0,0.0,0.0,0.0,0.0,0.0,0.0,0.0,0.0,0.0,0.0,0.0,0.0,0.0,-5.6012,-5.6012,-5.6012,-5.6012,-5.6012,-5.6012,-5.6012,-5.6085,-5.6279,-5.6292,-5.638,-5.6582,-5.6601,-5.6601,-5.6601,-5.6601,-5.7461,-5.9219,-6.0664,-6.1484,-6.1699,-6.1699,-6.1699,-6.1699,-6.1699,-6.1699,-6.1699,-6.1699,-6.1699,-6.1699,-6.1699,-6.1699,-6.1699,-6.1699,-6.1699,-6.1699,-6.1699,-6.1699,-6.1699,-6.1699,-6.1699,-6.1699,-6.1699,-6.1699,-6.1699,-6.1699,-6.1699,-6.1699,-6.1699,-6.1699,-6.1698,-6.1699,-6.1698,-6.1695,-6.1704,-6.1701,-6.1702,-6.1708,-6.1696,-6.1699,-6.1699,-6.1699,-6.1699,-6.1699,-6.1699,-6.1699,-6.1699,-6.1699,-6.1699,-6.1699,-6.1699,-6.1699,-6.1699,-6.1582,-6.1523,-6.1523,-6.1426,-6.1367,-6.1367,-6.1367,-6.0957,-6.0078,-5.9375,-5.8965,-5.8848,-5.8086,-5.7734,-5.7715,-5.6953,-5.6601,0.0,0.0,0.0,0.0,0.0,0.0,0.0,0.0,0.0,0.0,0.0,0.0,0.0,0.0,0.0,0.0,0.0,0.0,0.0,0.0,0.0,0.0,-5.6012,-5.6012,-5.6012,-5.6012,-5.6012,-5.6012,-5.6012,-5.6085,-5.6279,-5.6292,-5.638,-5.6582,-5.6601,-5.6601,-5.6601,-5.6601,-5.7461,-5.9219,-6.0898,-6.1699,-6.1699,-6.1699,-6.1699,-6.1699,-6.1699,-6.1699,-6.1699,-6.1699,-6.1699,-6.1699,-6.1699,-6.1699,-6.1699,-6.1699,-6.1699,-6.1699,-6.1699,-6.1699,-6.1699,-6.1699,-6.1699,-6.1699,-6.1699,-6.1699,-6.1699,-6.1699,-6.1699,-6.1699,-6.1699,-6.1699,-6.1699,-6.1699,-6.1698,-6.1696,-6.1692,-6.1694,-6.1695,-6.1697,-6.1699,-6.1699,-6.1699,-6.1699,-6.1699,-6.1699,-6.1699,-6.1699,-6.1699,-6.1699,-6.1699,-6.1699,-6.1699,-6.1699,-6.1699,-6.1699,-6.1699,-6.1699,-6.1699,-6.1699,-6.1699,-6.1699,-6.1523,-6.1133,-6.0293,-5.9648,-5.9199,-5.8828,-5.8633,-5.8613,-5.8242,-5.7793,0.0,0.0,0.0,0.0,0.0,0.0,0.0,0.0,0.0,0.0,0.0,0.0,0.0,0.0,0.0,0.0,0.0,0.0,0.0,0.0,0.0,0.0,-5.6012,-5.6012,-5.6012,-5.6012,-5.6012,-5.6012,-5.6012,-5.6085,-5.6279,-5.6292,-5.638,-5.6582,-5.6601,-5.6601,-5.6601,-5.7031,-5.791,-5.9219,-6.0898,-6.1699,-6.1699,-6.1699,-6.1699,-6.1699,-6.1699,-6.1699,-6.1699,-6.1699,-6.1699,-6.1699,-6.1699,-6.1699,-6.1699,-6.1699,-6.1699,-6.1699,-6.1699,-6.1699,-6.1699,-6.1699,-6.1699,-6.1699,-6.1699,-6.1699,-6.1699,-6.1699,-6.1699,-6.1699,-6.1699,-6.1699,-6.1699,-6.1699,-6.1699,-6.1698,-6.1696,-6.1698,-6.1699,-6.1699,-6.1699,-6.1699,-6.1699,-6.1699,-6.1699,-6.1699,-6.1699,-6.1699,-6.1699,-6.1699,-6.1699,-6.1699,-6.1699,-6.1699,-6.1699,-6.1699,-6.1699,-6.1699,-6.1699,-6.1699,-6.1699,-6.1699,-6.1699,-6.1699,-6.1055,-6.0449,-5.9824,-5.9609,-5.9492,-5.9492,-5.9297,-5.8848,0.0,0.0,0.0,0.0,0.0,0.0,0.0,0.0,0.0,0.0,0.0,0.0,0.0,0.0,0.0,0.0,0.0,0.0,0.0,0.0,0.0,0.0,0.0,-5.6012,-5.6012,-5.6012,-5.6012,-5.6012,-5.6012,-5.6085,-5.6279,-5.6292,-5.638,-5.6582,-5.6601,-5.6601,-5.6601,-5.8242,-5.9101,-5.9219,-6.0898,-6.1699,-6.1699,-6.1699,-6.1699,-6.1699,-6.1699,-6.1699,-6.1699,-6.1699,-6.1699,-6.1699,-6.1699,-6.1699,-6.1699,-6.1699,-6.1699,-6.1699,-6.1699,-6.1699,-6.1699,-6.1699,-6.1699,-6.1699,-6.1699,-6.1699,-6.1699,-6.1699,-6.1699,-6.1699,-6.1699,-6.1699,-6.1699,-6.1699,-6.1699,-6.1699,-6.1692,-6.1695,-6.1697,-6.1697,-6.1699,-6.1699,-6.1699,-6.1699,-6.1699,-6.1699,-6.1699,-6.1699,-6.1699,-6.1699,-6.1699,-6.1699,-6.1699,-6.1699,-6.1699,-6.1699,-6.1699,-6.1699,-6.1699,-6.1699,-6.1699,-6.1699,-6.1699,-6.1699,-6.166,-6.1601,-6.1562,-6.0742,-6.0332,-6.0312,-5.9551,-5.918,0.0,0.0,0.0,0.0,0.0,0.0,0.0,0.0,0.0,0.0,0.0,0.0,0.0,0.0,0.0,0.0,0.0,0.0,0.0,0.0,0.0,0.0,0.0,-5.6012,-5.6012,-5.6012,-5.6012,-5.6012,-5.6012,-5.6085,-5.6279,-5.6292,-5.638,-5.6582,-5.6601,-5.6875,-5.7422,-5.8613,-5.9453,-5.998,-6.1152,-6.1699,-6.1699,-6.1699,-6.1699,-6.1699,-6.1699,-6.1699,-6.1699,-6.1699,-6.1699,-6.1699,-6.1699,-6.1699,-6.1699,-6.1699,-6.1699,-6.1699,-6.1699,-6.1699,-6.1699,-6.1699,-6.1699,-6.1699,-6.1699,-6.1699,-6.1699,-6.1699,-6.1699,-6.1699,-6.1699,-6.1699,-6.1699,-6.1699,-6.1699,-6.1699,-6.1698,-6.1698,-6.1699,-6.1699,-6.1699,-6.1699,-6.1699,-6.1699,-6.1699,-6.1699,-6.1699,-6.1699,-6.1699,-6.1699,-6.1699,-6.1699,-6.1699,-6.1699,-6.1699,-6.1699,-6.1699,-6.1699,-6.1699,-6.1699,-6.1699,-6.1699,-6.1699,-6.1699,-6.1699,-6.1699,-6.1699,-6.1387,-6.123,-6.123,-6.0937,-6.0508,0.0,0.0,0.0,0.0,0.0,0.0,0.0,0.0,0.0,0.0,0.0,0.0,0.0,0.0,0.0,0.0,0.0,0.0,0.0,0.0,0.0,0.0,0.0,-5.6005,-5.6005,-5.5995,-5.6012,-5.6012,-5.6012,0.0,-5.6279,-5.6292,-5.638,-5.6582,-5.6875,-5.7305,-5.789,-5.9023,-5.9863,-6.041,-6.1289,-6.1699,-6.1699,-6.1699,-6.1699,-6.1699,-6.1699,-6.1699,-6.1699,-6.1699,-6.1699,-6.1699,-6.1699,-6.1699,-6.1699,-6.1699,-6.1699,-6.1699,-6.1699,-6.1699,-6.1699,-6.1699,-6.1699,-6.1699,-6.1699,-6.1699,-6.1699,-6.1699,-6.1699,-6.1699,-6.1699,-6.1699,-6.1699,-6.1699,-6.1699,-6.1699,-6.1699,-6.1699,-6.1699,-6.1699,-6.1699,-6.1699,-6.1699,-6.1699,-6.1699,-6.1699,-6.1699,-6.1699,-6.1699,-6.1699,-6.1699,-6.1699,-6.1699,-6.1699,-6.1699,-6.1699,-6.1699,-6.1699,-6.1699,-6.1699,-6.1699,-6.1699,-6.1699,-6.1699,-6.1699,-6.1699,-6.1699,-6.1699,-6.1699,-6.1699,-6.1699,-6.1387,0.0,0.0,0.0,0.0,0.0,0.0,0.0,0.0,0.0,0.0,0.0,0.0,0.0,0.0,0.0,0.0,0.0,0.0,0.0,0.0,0.0,0.0,0.0,-5.5999,-5.5999,-5.5996,-5.6012,-5.6012,-5.6012,-5.6085,-5.6279,-5.6316,-5.6403,-5.6621,-5.7461,-5.793,-5.7969,-5.959,-6.041,-6.0449,-6.1308,-6.1699,-6.1699,-6.1699,-6.1699,-6.1699,-6.1699,-6.1699,-6.1699,-6.1699,-6.1699,-6.1699,-6.1699,-6.1699,-6.1699,-6.1699,-6.1699,-6.1699,-6.1699,-6.1699,-6.1699,-6.1699,-6.1699,-6.1699,-6.1699,-6.1699,-6.1699,-6.1699,-6.1699,-6.1699,-6.1699,-6.1699,-6.1699,-6.1699,-6.1699,-6.1699,-6.1699,-6.1699,-6.1699,-6.1699,-6.1699,-6.1699,-6.1699,-6.1699,-6.1699,-6.1699,-6.1699,-6.1699,-6.1699,-6.1699,-6.1699,-6.1699,-6.1699,-6.1699,-6.1699,-6.1699,-6.1699,-6.1699,-6.1699,-6.1699,-6.1699,-6.1699,-6.1699,-6.1699,-6.1699,-6.1699,-6.1699,-6.1699,-6.1699,-6.1699,-6.1699,-6.1699,-5.5703,0.0,0.0,0.0,0.0,0.0,0.0,0.0,0.0,0.0,0.0,0.0,0.0,0.0,0.0,0.0,0.0,0.0,0.0,0.0,0.0,0.0,0.0,0.0,-5.5999,-5.5996,-5.6012,0.0,-5.6012,-5.6085,-5.6279,-5.6445,-5.6831,-5.7519,-5.7773,-5.8476,-5.9707,-6.0176,-6.0723,-6.1348,-6.1582,-6.1699,-6.1699,-6.1699,-6.1699,-6.1699,-6.1699,-6.1699,-6.1699,-6.1699,-6.1699,-6.1699,-6.1699,-6.1699,-6.1699,-6.1699,-6.1699,-6.1699,-6.1699,-6.1699,-6.1699,-6.1699,-6.1699,-6.1699,-6.1699,-6.1699,-6.1699,-6.1699,-6.1699,-6.1699,-6.1699,-6.1699,-6.1699,-6.1699,-6.1699,-6.1699,-6.1699,-6.1699,-6.1699,-6.1699,-6.1699,-6.1699,-6.1699,-6.1699,-6.1699,-6.1699,-6.1699,-6.1699,-6.1699,-6.1699,-6.1699,-6.1699,-6.1699,-6.1699,-6.1699,-6.1699,-6.1699,-6.1699,-6.1699,-6.1699,-6.1699,-6.1699,-6.1699,-6.1699,-6.1699,-6.1699,-6.1699,-6.1699,-6.1699,-6.1699,-6.1699,-6.1699,0.0,0.0,0.0,0.0,0.0,0.0,-5.5756,-5.5787,-5.5816,0.0,0.0,0.0,0.0,0.0,0.0,0.0,0.0,0.0,0.0,0.0,0.0,0.0,0.0,0.0,-5.5962,-5.5989,-5.6005,-5.6003,-5.6012,-5.6085,-5.6279,-5.6837,-5.7383,-5.7871,-5.8574,-5.9414,-6.039,-6.0762,-6.1191,-6.1699,-6.1699,-6.1699,-6.1699,-6.1699,-6.1699,-6.1699,-6.1699,-6.1699,-6.1699,-6.1699,-6.1699,-6.1699,-6.1699,-6.1699,-6.1699,-6.1699,-6.1699,-6.1699,-6.1699,-6.1699,-6.1699,-6.1699,-6.1699,-6.1699,-6.1699,-6.1699,-6.1699,-6.1699,-6.1699,-6.1699,-6.1699,-6.1699,-6.1699,-6.1699,-6.1699,-6.1699,-6.1699,-6.1699,-6.1699,-6.1699,-6.1699,-6.1699,-6.1699,-6.1699,-6.1699,-6.1699,-6.1699,-6.1699,-6.1699,-6.1699,-6.1699,-6.1699,-6.1699,-6.1699,-6.1699,-6.1699,-6.1699,-6.1699,-6.1699,-6.1699,-6.1699,-6.1699,-6.1699,-6.1699,-6.1699,-6.1699,-6.1699,-6.1699,-6.1699,-6.1699,-6.1699,-6.1699,0.0,0.0,0.0,0.0,0.0,0.0,-5.5826,-5.5856,-5.5875,0.0,0.0,0.0,0.0,0.0,0.0,0.0,0.0,0.0,0.0,0.0,0.0,0.0,0.0,0.0,-5.5885,-5.5962,-5.5989,-5.5995,-5.6026,-5.616,-5.644,-5.7365,-5.7988,-5.8164,-5.9629,-6.0449,-6.0547,-6.1308,-6.1699,-6.1699,-6.1699,-6.1699,-6.1699,-6.1699,-6.1699,-6.1699,-6.1699,-6.1699,-6.1699,-6.1699,-6.1699,-6.1699,-6.1699,-6.1699,-6.1699,-6.1699,-6.1699,-6.1699,-6.1699,-6.1699,-6.1699,-6.1699,-6.1699,-6.1699,-6.1699,-6.1699,-6.1699,-6.1699,-6.1699,-6.1699,-6.1699,-6.1699,-6.1699,-6.1699,-6.1699,-6.1699,-6.1699,-6.1699,-6.1699,-6.1699,-6.1699,-6.1699,-6.1699,-6.1699,-6.1699,-6.1699,-6.1699,-6.1699,-6.1699,-6.1699,-6.1699,-6.1699,-6.1699,-6.1699,-6.1699,-6.1699,-6.1699,-6.1699,-6.1699,-6.1699,-6.1699,-6.1699,-6.1699,-6.1699,-6.1699,-6.1699,-6.1699,-6.1699,-6.1699,-6.1699,-6.1699,-6.1699,0.0,0.0,0.0,0.0,0.0,0.0,-5.5895,-5.5924,-5.5962,0.0,0.0,0.0,0.0,0.0,0.0,0.0,0.0,0.0,0.0,0.0,0.0,0.0,0.0,0.0,-5.5826,-5.5924,-5.5999,-5.6008,-5.6162,-5.6563,-5.7306,-5.7697,-5.8515,-5.9863,-6.0234,-6.0742,-6.1445,-6.1621,-6.1699,-6.1699,-6.1699,-6.1699,-6.1699,-6.1699,-6.1699,-6.1699,-6.1699,-6.1699,-6.1699,-6.1699,-6.1699,-6.1699,-6.1699,-6.1699,-6.1699,-6.1699,-6.1699,-6.1699,-6.1699,-6.1699,-6.1699,-6.1699,-6.1699,-6.1699,-6.1699,-6.1699,-6.1699,-6.1699,-6.1699,-6.1699,-6.1699,-6.1699,-6.1699,-6.1699,-6.1699,-6.1699,-6.1699,-6.1699,-6.1699,-6.1699,-6.1699,-6.1699,-6.1699,-6.1699,-6.1699,-6.1699,-6.1699,-6.1699,-6.1699,-6.1699,-6.1699,-6.1699,-6.1699,-6.1699,-6.1699,-6.1699,-6.1699,-6.1699,-6.1699,-6.1699,-6.1699,-6.1699,-6.1699,-6.1699,-6.1699,-6.1699,-6.1699,-6.1699,-6.1699,-6.1699,-6.1699,-6.1699,0.0,0.0,0.0,-5.5951,0.0,0.0,0.0,-5.598,-5.5969,0.0,0.0,0.0,0.0,0.0,0.0,0.0,0.0,0.0,0.0,0.0,0.0,0.0,0.0,0.0,-5.5806,-5.5856,-5.5924,-5.599,-5.6595,-5.7135,-5.7583,-5.8577,-5.9531,-6.0371,-6.082,-6.1269,-6.1699,-6.1699,-6.1699,-6.1699,-6.1699,-6.1699,-6.1699,-6.1699,-6.1699,-6.1699,-6.1699,-6.1699,-6.1699,-6.1699,-6.1699,-6.1699,-6.1699,-6.1699,-6.1699,-6.1699,-6.1699,-6.1699,-6.1699,-6.1699,-6.1699,-6.1699,-6.1699,-6.1699,-6.1699,-6.1699,-6.1699,-6.1699,-6.1699,-6.1699,-6.1699,-6.1699,-6.1699,-6.1699,-6.1699,-6.1699,-6.1699,-6.1699,-6.1699,-6.1699,-6.1699,-6.1699,-6.1699,-6.1699,-6.1699,-6.1699,-6.1699,-6.1699,-6.1699,-6.1699,-6.1699,-6.1699,-6.1699,-6.1699,-6.1699,-6.1699,-6.1699,-6.1699,-6.1699,-6.1699,-6.1699,-6.1699,-6.1699,-6.1699,-6.1699,-6.1699,-6.1699,-6.1699,-6.1699,-6.1699,-6.1699,-6.1699,0.0,0.0,0.0,0.0,0.0,-5.5995,0.0,0.0,0.0,0.0,0.0,0.0,0.0,0.0,0.0,0.0,0.0,0.0,0.0,0.0,0.0,0.0,0.0,0.0,-5.5776,-5.5797,-5.5885,-5.6033,-5.7008,-5.7689,-5.786,-5.9478,-6.0488,-6.0644,-6.1328,-6.1699,-6.1699,-6.1699,-6.1699,-6.1699,-6.1699,-6.1699,-6.1699,-6.1699,-6.1699,-6.1699,-6.1699,-6.1699,-6.1699,-6.1699,-6.1699,-6.1699,-6.1699,-6.1699,-6.1699,-6.1699,-6.1699,-6.1699,-6.1699,-6.1699,-6.1699,-6.1699,-6.1699,-6.1699,-6.1699,-6.1699,-6.1699,-6.1699,-6.1699,-6.1699,-6.1699,-6.1699,-6.1699,-6.1699,-6.1699,-6.1699,-6.1699,-6.1699,-6.1699,-6.1699,-6.1699,-6.1699,-6.1699,-6.1699,-6.1699,-6.1699,-6.1699,-6.1699,-6.1699,-6.1699,-6.1699,-6.1699,-6.1699,-6.1699,-6.1699,-6.1699,-6.1699,-6.1699,-6.1699,-6.1699,-6.1699,-6.1699,-6.1699,-6.1699,-6.1699,-6.1699,-6.1699,-6.1699,-6.1699,-6.1699,-6.1699,-6.1699,0.0,0.0,0.0,0.0,-5.6012,0.0,0.0,0.0,-5.6003,-5.5995,0.0,0.0,0.0,0.0,0.0,0.0,0.0,0.0,0.0,0.0,0.0,0.0,0.0,0.0,-5.5714,-5.5816,-5.5968,-5.6167,-5.7069,-5.7966,-5.8805,-5.9838,-6.0742,-6.1523,-6.164,-6.1699,-6.1699,-6.1699,-6.1699,-6.1699,-6.1699,-6.1699,-6.1699,-6.1699,-6.1699,-6.1699,-6.1699,-6.1699,-6.1699,-6.1699,-6.1699,-6.1699,-6.1699,-6.1699,-6.1699,-6.1699,-6.1699,-6.1699,-6.1699,-6.1699,-6.1699,-6.1699,-6.1699,-6.1699,-6.1699,-6.1699,-6.1699,-6.1699,-6.1699,-6.1699,-6.1699,-6.1699,-6.1699,-6.1699,-6.1699,-6.1699,-6.1699,-6.1699,-6.1699,-6.1699,-6.1699,-6.1699,-6.1699,-6.1699,-6.1699,-6.1699,-6.1699,-6.1699,-6.1699,-6.1699,-6.1699,-6.1699,-6.1699,-6.1699,-6.1699,-6.1699,-6.1699,-6.1699,-6.1699,-6.1699,-6.1699,-6.1699,-6.1699,-6.1699,-6.1699,-6.1699,-6.1699,-6.1699,-6.1699,-6.1699,-6.1699,-6.1699,0.0,0.0,0.0,0.0,0.0,0.0,-5.6012,0.0,-5.6012,0.0,0.0,0.0,0.0,0.0,0.0,0.0,-5.6007,0.0,0.0,0.0,0.0,0.0,0.0,0.0,-5.5756,-5.5874,-5.6001,-5.6088,-5.7522,-5.8577,-5.8987,-6.0367,-6.1328,-6.1699,-6.1699,-6.1699,-6.1699,-6.1699,-6.1699,-6.1699,-6.1699,-6.1699,-6.1699,-6.1699,-6.1699,-6.1699,-6.1699,-6.1699,-6.1699,-6.1699,-6.1699,-6.1699,-6.1699,-6.1699,-6.1699,-6.1699,-6.1699,-6.1699,-6.1699,-6.1699,-6.1699,-6.1699,-6.1699,-6.1699,-6.1699,-6.1699,-6.1699,-6.1699,-6.1699,-6.1699,-6.1699,-6.1699,-6.1699,-6.1699,-6.1699,-6.1699,-6.1699,-6.1699,-6.1699,-6.1699,-6.1699,-6.1699,-6.1699,-6.1699,-6.1699,-6.1699,-6.1699,-6.1699,-6.1699,-6.1699,-6.1699,-6.1699,-6.1699,-6.1699,-6.1699,-6.1699,-6.1699,-6.1699,-6.1699,-6.1699,-6.1699,-6.1699,-6.1699,-6.1699,-6.1699,-6.1699,-6.1699,-6.1699,-6.1699,-6.1699,-6.1699,-6.1699,-5.6051,0.0,0.0,0.0,0.0,0.0,0.0,0.0,0.0,0.0,0.0,0.0,0.0,0.0,0.0,0.0,0.0,-5.5998,0.0,0.0,0.0,0.0,0.0,0.0,0.0,-5.5974,-5.6153,-5.6446,-5.8044,-5.9111,-5.9372,-6.0856,-6.1699,-6.1699,-6.1699,-6.1699,-6.1699,-6.1699,-6.1699,-6.1699,-6.1699,-6.1699,-6.1699,-6.1699,-6.1699,-6.1699,-6.1699,-6.1699,-6.1699,-6.1699,-6.1699,-6.1699,-6.1699,-6.1699,-6.1699,-6.1699,-6.1699,-6.1699,-6.1699,-6.1699,-6.1699,-6.1699,-6.1699,-6.1699,-6.1699,-6.1699,-6.1699,-6.1699,-6.1699,-6.1699,-6.1699,-6.1699,-6.1699,-6.1699,-6.1699,-6.1699,-6.1699,-6.1699,-6.1699,-6.1699,-6.1699,-6.1699,-6.1699,-6.1699,-6.1699,-6.1699,-6.1699,-6.1699,-6.1699,-6.1699,-6.1699,-6.1699,-6.1699,-6.1699,-6.1699,-6.1699,-6.1699,-6.1699,-6.1699,-6.1699,-6.1699,-6.1699,-6.1699,-6.1699,-6.1699,-6.1699,-6.1699,-6.1699,-6.1699,-6.1699,-6.1699,-6.1699,0.0,0.0,0.0,-5.6012,0.0,0.0,0.0,0.0,-5.6012,0.0,0.0,0.0,0.0,0.0,0.0,-5.6012,0.0,0.0,0.0,0.0,0.0,0.0,0.0,0.0,0.0,-5.6095,-5.6522,-5.7567,-5.8492,-5.9394,-6.0309,-6.121,-6.1699,-6.1699,-6.1699,-6.1699,-6.1699,-6.1699,-6.1699,-6.1699,-6.1699,-6.1699,-6.1699,-6.1699,-6.1699,-6.1699,-6.1699,-6.1699,-6.1699,-6.1699,-6.1699,-6.1699,-6.1699,-6.1699,-6.1699,-6.1699,-6.1699,-6.1699,-6.1699,-6.1699,-6.1699,-6.1699,-6.1699,-6.1699,-6.1699,-6.1699,-6.1699,-6.1699,-6.1699,-6.1699,-6.1699,-6.1699,-6.1699,-6.1699,-6.1699,-6.1699,-6.1699,-6.1699,-6.1699,-6.1699,-6.1699,-6.1699,-6.1699,-6.1699,-6.1699,-6.1699,-6.1699,-6.1699,-6.1699,-6.1699,-6.1699,-6.1699,-6.1699,-6.1699,-6.1699,-6.1699,-6.1699,-6.1699,-6.1699,-6.1699,-6.1699,-6.1699,-6.1699,-6.1699,-6.1699,-6.1699,-6.1699,-6.1699,-6.1699,-6.1699,-6.1699,-6.1699,0.0,0.0,-5.6203,-5.6203,0.0,0.0,0.0,0.0,0.0,0.0,0.0,0.0,0.0,0.0,-5.6012,-5.6012,-5.6071,0.0,0.0,0.0,0.0,0.0,0.0,0.0,0.0,0.0,0.0,-5.7637,-5.8598,-5.9509,-6.0351,-6.123,-6.1699,-6.1699,-6.1699,-6.1699,-6.1699,-6.1699,-6.1699,-6.1699,-6.1699,-6.1699,-6.1699,-6.1699,-6.1699,-6.1699,-6.1699,-6.1699,-6.1699,-6.1699,-6.1699,-6.1699,-6.1699,-6.1699,-6.1699,-6.1699,-6.1699,-6.1699,-6.1699,-6.1699,-6.1699,-6.1699,-6.1699,-6.1699,-6.1699,-6.1699,-6.1699,-6.1699,-6.1699,-6.1699,-6.1699,-6.1699,-6.1699,-6.1699,-6.1699,-6.1699,-6.1699,-6.1699,-6.1699,-6.1699,-6.1699,-6.1699,-6.1699,-6.1699,-6.1699,-6.1699,-6.1699,-6.1699,-6.1699,-6.1699,-6.1699,-6.1699,-6.1699,-6.1699,-6.1699,-6.1699,-6.1699,-6.1699,-6.1699,-6.1699,-6.1699,-6.1699,-6.1699,-6.1699,-6.1699,-6.1699,-6.1699,-6.1699,-6.1699,-6.1699,-6.1699,-6.1699,-5.7716,-5.7213,0.0,-5.639,-5.6292,0.0,-5.6292,0.0,0.0,0.0,0.0,0.0,0.0,0.0,0.0,-5.6093,-5.6168,0.0,0.0,-5.6247,0.0,0.0,0.0,0.0,0.0,0.0,-5.6907,-5.8135,-5.8823,-5.9687,0.0,-6.1387,-6.1699,-6.1699,-6.1699,-6.1699,-6.1699,-6.1699,-6.1699,-6.1699,-6.1699,-6.1699,-6.1699,-6.1699,-6.1699,-6.1699,-6.1699,-6.1699,-6.1699,-6.1699,-6.1699,-6.1699,-6.1699,-6.1699,-6.1699,-6.1699,-6.1699,-6.1699,-6.1699,-6.1699,-6.1699,-6.1699,-6.1699,-6.1699,-6.1699,-6.1699,-6.1699,-6.1699,-6.1699,-6.1699,-6.1699,-6.1699,-6.1699,-6.1699,-6.1699,-6.1699,-6.1699,-6.1699,-6.1699,-6.1699,-6.1699,-6.1699,-6.1699,-6.1699,-6.1699,-6.1699,-6.1699,-6.1699,-6.1699,-6.1699,-6.1699,-6.1699,-6.1699,-6.1699,-6.1699,-6.1699,-6.1699,-6.1699,-6.1699,-6.1699,-6.1699,-6.1699,-6.1855,-6.2168,-6.1855,-6.1855,-6.2168,-6.1855,-6.1699,-6.1699,-6.1699,-6.1699]},{"header":{"parameterUnit":"m.s-1","parameterCategory":1,"la1":30.6,"la2":29.2853,"lo1":-89.7004,"lo2":-87.6739,"dy":0.0162,"dx":0.0183,"nx":112,"ny":82,"refTime":"2023-02-24T18:00:00:Z","depth":0,"parameterNumber":3,"parameterNumberName":"V-component_of_WINDS"},"data":[0.0,0.0,0.0,0.0,0.0,0.0,0.0,0.0,0.0,0.0,0.0,0.0,0.0,0.0,0.0,0.0,0.0,0.0,0.0,0.0,0.0,0.0,0.0,0.0,0.0,0.0,0.0,0.0,0.0,0.0,0.0,0.0,0.0,0.0,0.0,0.0,0.0,0.0,0.0,0.0,0.0,0.0,0.0,0.0,0.0,0.0,0.0,0.0,0.0,0.0,0.0,0.0,0.0,0.0,0.0,0.0,0.0,0.0,0.0,0.0,0.0,0.0,0.0,0.0,0.0,0.0,0.0,0.0,0.0,0.0,0.0,0.0,0.0,0.0,0.0,0.0,0.0,0.0,0.0,0.0,0.0,0.0,0.0,0.0,0.0,0.0,0.0,0.0,0.0,0.0,-0.9822,-0.9822,-0.9822,-0.9822,-0.9822,-0.9822,-1.0902,-1.3545,0.0,0.0,0.0,0.0,0.0,0.0,0.0,0.0,0.0,0.0,0.0,0.0,0.0,0.0,0.0,0.0,0.0,0.0,0.0,0.0,0.0,0.0,0.0,0.0,0.0,0.0,0.0,0.0,0.0,0.0,0.0,0.0,0.0,0.0,0.0,0.0,0.0,0.0,0.0,0.0,0.0,0.0,0.0,0.0,0.0,0.0,0.0,0.0,0.0,0.0,0.0,0.0,0.0,0.0,0.0,0.0,0.0,0.0,0.0,0.0,0.0,0.0,0.0,0.0,0.0,0.0,0.0,0.0,0.0,0.0,0.0,0.0,0.0,0.0,0.0,0.0,0.0,0.0,0.0,0.0,0.0,0.0,0.0,0.0,0.0,0.0,0.0,0.0,0.0,0.0,0.0,0.0,0.0,0.0,0.0,0.0,0.0,0.0,0.0,0.0,0.0,0.0,0.0,0.0,-0.9822,-0.9822,-0.9822,-0.9822,-0.9822,-0.9822,-1.0902,-1.3545,0.0,0.0,0.0,0.0,0.0,0.0,0.0,0.0,0.0,0.0,0.0,0.0,0.0,0.0,0.0,0.0,0.0,0.0,0.0,0.0,0.0,0.0,0.0,0.0,0.0,0.0,0.0,0.0,0.0,0.0,0.0,0.0,0.0,0.0,0.0,0.0,0.0,0.0,0.0,0.0,0.0,0.0,0.0,0.0,0.0,0.0,0.0,0.0,0.0,0.0,0.0,0.0,0.0,0.0,0.0,0.0,0.0,0.0,0.0,0.0,0.0,0.0,0.0,0.0,0.0,0.0,0.0,0.0,0.0,0.0,0.0,0.0,0.0,0.0,0.0,0.0,0.0,0.0,0.0,0.0,0.0,0.0,0.0,0.0,0.0,0.0,0.0,0.0,0.0,0.0,0.0,0.0,0.0,0.0,0.0,0.0,0.0,0.0,0.0,0.0,0.0,0.0,0.0,-1.0183,-0.9822,-0.9822,-0.9822,-0.9822,-0.9822,-0.9822,-1.0902,-1.3545,-1.3725,0.0,0.0,0.0,0.0,0.0,0.0,0.0,0.0,0.0,0.0,0.0,0.0,0.0,0.0,0.0,0.0,0.0,0.0,0.0,0.0,0.0,0.0,0.0,0.0,0.0,0.0,0.0,0.0,0.0,0.0,0.0,0.0,0.0,0.0,0.0,0.0,0.0,0.0,0.0,0.0,0.0,0.0,0.0,0.0,0.0,0.0,0.0,0.0,0.0,0.0,0.0,0.0,0.0,0.0,0.0,0.0,0.0,0.0,0.0,0.0,0.0,0.0,0.0,0.0,0.0,0.0,0.0,0.0,0.0,0.0,0.0,0.0,0.0,0.0,0.0,0.0,0.0,0.0,0.0,0.0,0.0,0.0,0.0,0.0,0.0,0.0,0.0,0.0,0.0,0.0,0.0,0.0,0.0,0.0,0.0,0.0,0.0,0.0,0.0,0.0,0.0,0.0,-0.9822,-0.9822,-0.9822,-0.9822,-0.9822,-0.9822,-0.9822,-1.0902,-1.3545,-1.3725,0.0,0.0,0.0,0.0,0.0,0.0,0.0,0.0,0.0,0.0,0.0,0.0,0.0,0.0,0.0,0.0,0.0,0.0,0.0,0.0,0.0,0.0,0.0,0.0,0.0,0.0,0.0,0.0,0.0,0.0,0.0,0.0,0.0,0.0,0.0,0.0,0.0,0.0,0.0,0.0,0.0,0.0,0.0,0.0,0.0,0.0,0.0,0.0,0.0,0.0,0.0,0.0,0.0,0.0,0.0,0.0,0.0,0.0,0.0,0.0,0.0,0.0,0.0,0.0,0.0,0.0,0.0,0.0,0.0,0.0,0.0,0.0,0.0,0.0,0.0,0.0,0.0,0.0,0.0,0.0,0.0,0.0,0.0,0.0,0.0,0.0,0.0,0.0,0.0,0.0,0.0,0.0,0.0,0.0,0.0,0.0,0.0,0.0,0.0,0.0,0.0,0.0,-0.9822,-0.9822,-0.9822,-0.9822,-0.9822,-0.9822,-0.9822,-1.0902,-1.3545,-1.3725,0.0,0.0,0.0,0.0,0.0,0.0,0.0,0.0,0.0,0.0,0.0,0.0,0.0,0.0,0.0,0.0,0.0,0.0,0.0,0.0,0.0,0.0,0.0,0.0,0.0,0.0,0.0,0.0,0.0,0.0,0.0,0.0,0.0,0.0,0.0,0.0,0.0,0.0,0.0,0.0,0.0,0.0,0.0,0.0,0.0,0.0,0.0,0.0,0.0,0.0,0.0,0.0,0.0,0.0,0.0,0.0,0.0,0.0,0.0,0.0,0.0,0.0,0.0,0.0,0.0,0.0,0.0,0.0,0.0,0.0,0.0,0.0,0.0,0.0,0.0,0.0,0.0,0.0,0.0,0.0,0.0,0.0,0.0,0.0,0.0,0.0,0.0,0.0,0.0,0.0,0.0,0.0,0.0,0.0,0.0,0.0,0.0,0.0,0.0,0.0,0.0,0.0,-0.9822,-0.9822,0.0,-0.9822,-0.9822,-0.9822,-0.9822,-1.0543,-1.235,0.0,0.0,0.0,0.0,0.0,0.0,0.0,0.0,0.0,0.0,0.0,0.0,0.0,0.0,0.0,0.0,0.0,0.0,0.0,0.0,0.0,0.0,0.0,0.0,0.0,0.0,0.0,0.0,0.0,0.0,0.0,0.0,0.0,0.0,0.0,0.0,0.0,0.0,0.0,0.0,0.0,0.0,0.0,0.0,0.0,0.0,0.0,0.0,0.0,0.0,0.0,0.0,0.0,0.0,0.0,0.0,0.0,0.0,0.0,0.0,0.0,0.0,0.0,0.0,0.0,0.0,0.0,0.0,0.0,0.0,0.0,0.0,0.0,0.0,0.0,0.0,0.0,0.0,0.0,0.0,0.0,0.0,0.0,0.0,0.0,0.0,0.0,0.0,0.0,0.0,0.0,0.0,0.0,0.0,0.0,0.0,0.0,0.0,0.0,0.0,0.0,0.0,-0.9822,-0.9822,-0.9822,0.0,-0.9822,-0.9822,-0.9822,-0.9822,-1.0365,-1.1631,0.0,0.0,0.0,0.0,0.0,0.0,0.0,0.0,0.0,0.0,0.0,0.0,0.0,0.0,0.0,0.0,0.0,0.0,0.0,0.0,0.0,0.0,0.0,0.0,0.0,0.0,0.0,0.0,0.0,0.0,0.0,0.0,0.0,0.0,0.0,0.0,0.0,0.0,0.0,0.0,0.0,0.0,0.0,0.0,0.0,0.0,0.0,0.0,0.0,0.0,0.0,0.0,0.0,0.0,0.0,0.0,0.0,0.0,0.0,0.0,0.0,0.0,0.0,0.0,0.0,0.0,0.0,0.0,0.0,0.0,0.0,0.0,0.0,0.0,0.0,0.0,0.0,0.0,0.0,0.0,0.0,0.0,0.0,0.0,0.0,0.0,0.0,0.0,0.0,0.0,0.0,0.0,0.0,0.0,0.0,0.0,0.0,0.0,0.0,0.0,0.0,0.0,-0.9819,-0.9819,-0.9815,-0.9815,-0.9815,-0.9815,-0.9815,-0.9815,-1.0358,0.0,0.0,0.0,0.0,0.0,0.0,0.0,0.0,0.0,0.0,0.0,0.0,0.0,0.0,0.0,0.0,0.0,0.0,0.0,0.0,0.0,0.0,0.0,0.0,0.0,0.0,0.0,0.0,0.0,0.0,0.0,0.0,0.0,0.0,0.0,0.0,0.0,0.0,0.0,0.0,0.0,0.0,0.0,0.0,0.0,0.0,0.0,0.0,0.0,0.0,0.0,0.0,0.0,0.0,0.0,0.0,0.0,0.0,0.0,0.0,0.0,0.0,0.0,0.0,0.0,0.0,0.0,0.0,0.0,0.0,0.0,0.0,0.0,0.0,0.0,0.0,0.0,0.0,0.0,0.0,0.0,0.0,0.0,0.0,0.0,0.0,0.0,0.0,0.0,0.0,0.0,0.0,0.0,0.0,0.0,0.0,0.0,0.0,0.0,0.0,0.0,0.0,0.0,-0.9673,-0.9578,-0.951,-0.951,-0.951,-0.951,-0.951,-0.951,-0.9686,-1.0035,0.0,0.0,0.0,0.0,0.0,0.0,0.0,0.0,0.0,0.0,0.0,0.0,0.0,0.0,0.0,0.0,0.0,0.0,0.0,0.0,0.0,0.0,0.0,0.0,0.0,0.0,0.0,0.0,0.0,0.0,0.0,0.0,0.0,0.0,0.0,0.0,0.0,0.0,0.0,0.0,0.0,0.0,0.0,0.0,0.0,0.0,0.0,0.0,0.0,0.0,0.0,0.0,0.0,0.0,0.0,0.0,0.0,0.0,0.0,0.0,0.0,0.0,0.0,0.0,0.0,0.0,0.0,0.0,0.0,0.0,0.0,0.0,0.0,0.0,0.0,0.0,0.0,0.0,0.0,0.0,0.0,0.0,0.0,0.0,0.0,0.0,0.0,0.0,0.0,0.0,0.0,0.0,0.0,0.0,0.0,0.0,0.0,0.0,0.0,0.0,0.0,0.0,-0.9527,-0.9439,-0.9381,-0.9381,-0.9381,-0.9381,-0.9381,-0.9381,-0.9381,-0.9381,0.0,0.0,0.0,0.0,0.0,0.0,0.0,0.0,0.0,0.0,0.0,0.0,0.0,0.0,0.0,0.0,0.0,0.0,0.0,0.0,0.0,0.0,0.0,0.0,0.0,0.0,0.0,0.0,0.0,0.0,0.0,0.0,0.0,0.0,0.0,0.0,0.0,0.0,0.0,0.0,0.0,0.0,0.0,0.0,0.0,0.0,0.0,0.0,0.0,0.0,0.0,0.0,0.0,0.0,0.0,0.0,0.0,0.0,0.0,0.0,0.0,0.0,0.0,0.0,0.0,0.0,0.0,0.0,0.0,0.0,0.0,0.0,0.0,0.0,0.0,0.0,0.0,0.0,0.0,0.0,0.0,0.0,0.0,0.0,0.0,0.0,0.0,0.0,0.0,0.0,0.0,0.0,0.0,0.0,0.0,0.0,0.0,0.0,0.0,0.0,0.0,0.0,-0.9378,-0.9347,-0.934,-0.934,-0.934,-0.934,-0.934,-0.934,-0.934,-0.934,0.0,0.0,0.0,0.0,0.0,0.0,0.0,0.0,0.0,0.0,0.0,0.0,0.0,0.0,0.0,0.0,0.0,0.0,0.0,0.0,0.0,0.0,0.0,0.0,0.0,0.0,0.0,0.0,0.0,0.0,0.0,0.0,0.0,0.0,0.0,0.0,0.0,0.0,0.0,0.0,0.0,0.0,0.0,0.0,0.0,0.0,0.0,0.0,0.0,0.0,0.0,0.0,0.0,0.0,0.0,0.0,0.0,0.0,0.0,0.0,-0.9822,0.0,0.0,0.0,0.0,0.0,0.0,0.0,0.0,0.0,0.0,0.0,0.0,0.0,0.0,0.0,0.0,0.0,0.0,0.0,0.0,0.0,0.0,0.0,0.0,0.0,0.0,0.0,0.0,0.0,0.0,0.0,0.0,0.0,0.0,0.0,0.0,0.0,0.0,0.0,0.0,0.0,-0.9262,-0.9103,-0.9032,-0.9032,-0.9032,-0.9032,-0.9032,-0.9032,-0.9032,-0.9032,-0.914,0.0,0.0,0.0,0.0,0.0,0.0,0.0,0.0,0.0,0.0,0.0,0.0,0.0,0.0,0.0,0.0,0.0,0.0,0.0,0.0,0.0,0.0,0.0,0.0,0.0,0.0,0.0,0.0,0.0,0.0,0.0,0.0,0.0,0.0,0.0,0.0,0.0,0.0,0.0,0.0,0.0,0.0,0.0,0.0,0.0,0.0,0.0,0.0,0.0,0.0,0.0,0.0,0.0,0.0,0.0,0.0,0.0,0.0,0.0,0.0,-0.9822,0.0,0.0,0.0,0.0,0.0,0.0,0.0,0.0,0.0,0.0,0.0,0.0,0.0,0.0,0.0,0.0,0.0,0.0,0.0,0.0,0.0,0.0,0.0,0.0,0.0,0.0,0.0,0.0,0.0,0.0,0.0,0.0,0.0,0.0,0.0,0.0,0.0,0.0,0.0,0.0,-0.9059,-0.8984,-0.8885,-0.8885,-0.8885,-0.8885,-0.8885,-0.8885,-0.8885,-0.8885,-0.9008,0.0,0.0,0.0,0.0,0.0,0.0,0.0,0.0,0.0,0.0,0.0,0.0,0.0,0.0,0.0,0.0,0.0,0.0,0.0,0.0,0.0,0.0,0.0,0.0,0.0,0.0,0.0,0.0,0.0,0.0,0.0,0.0,0.0,0.0,0.0,0.0,0.0,0.0,0.0,0.0,0.0,0.0,0.0,0.0,0.0,0.0,0.0,0.0,0.0,0.0,0.0,0.0,0.0,-0.9381,-0.9381,-0.9381,-0.9381,-0.9381,-0.9395,-0.9639,-0.9744,-0.9744,-0.9744,0.0,0.0,0.0,0.0,0.0,0.0,0.0,0.0,0.0,0.0,0.0,0.0,0.0,0.0,0.0,0.0,0.0,0.0,0.0,0.0,0.0,0.0,0.0,0.0,-0.9744,-0.9744,-0.9744,0.0,0.0,0.0,0.0,0.0,0.0,0.0,0.0,0.0,0.0,0.0,-0.8898,-0.8885,-0.8885,-0.8885,-0.8885,-0.8885,-0.8885,-0.8885,-0.8885,-0.8885,-0.8885,-0.8991,0.0,0.0,0.0,0.0,0.0,0.0,0.0,0.0,0.0,0.0,0.0,0.0,0.0,0.0,0.0,0.0,0.0,0.0,0.0,0.0,0.0,0.0,0.0,0.0,0.0,0.0,0.0,0.0,0.0,0.0,0.0,0.0,-0.7243,-0.7243,0.0,0.0,0.0,0.0,0.0,0.0,0.0,0.0,0.0,0.0,0.0,0.0,0.0,-0.8029,-0.9381,-0.9381,-0.9381,-0.9381,-0.9381,-0.9381,-0.9381,-0.9381,-0.9381,-0.9384,-0.9422,0.0,-0.9439,-0.9439,0.0,0.0,0.0,0.0,0.0,0.0,0.0,0.0,0.0,0.0,0.0,0.0,0.0,0.0,0.0,0.0,0.0,0.0,0.0,0.0,0.0,0.0,-0.9605,-0.9469,-0.9439,-0.9439,0.0,-0.9544,-0.9598,-0.9466,-0.9422,0.0,0.0,0.0,0.0,0.0,0.0,0.0,-0.8885,-0.8885,-0.8885,-0.8885,-0.8885,-0.8885,-0.8885,-0.8885,-0.8885,-0.8885,-0.8885,-0.8892,-0.8964,-0.8967,0.0,0.0,0.0,0.0,0.0,0.0,0.0,0.0,0.0,0.0,0.0,0.0,0.0,0.0,0.0,0.0,0.0,0.0,0.0,0.0,0.0,0.0,0.0,0.0,0.0,0.0,0.0,0.0,0.0,-0.7983,-0.7035,-0.6675,-0.6243,-0.5784,0.0,0.0,0.0,0.0,0.0,0.0,0.0,0.0,0.0,-0.565,-0.6445,-0.7188,-0.7873,-0.8731,-0.913,-0.913,-0.913,-0.913,-0.913,-0.913,-0.913,-0.913,-0.913,-0.913,-0.9147,-0.9313,-0.9418,-0.9483,0.0,0.0,0.0,0.0,-0.9574,-0.9574,-0.9574,-0.9926,-1.0399,-1.0399,0.0,0.0,0.0,0.0,0.0,0.0,0.0,0.0,0.0,0.0,-0.9462,-0.9398,-0.9381,-0.9357,-0.933,-0.9306,-0.9357,0.0,-0.931,-0.9289,-0.9221,0.0,0.0,0.0,0.0,-0.8885,-0.8885,-0.8885,-0.8885,-0.8885,-0.8885,-0.8885,-0.8885,-0.8885,-0.8885,-0.8885,-0.8885,-0.8885,-0.8885,-0.8885,-0.8912,0.0,0.0,0.0,0.0,0.0,0.0,0.0,0.0,0.0,0.0,0.0,0.0,0.0,0.0,0.0,0.0,0.0,0.0,0.0,0.0,0.0,0.0,0.0,0.0,0.0,0.0,0.0,0.0,-0.7081,-0.5948,-0.5324,-0.4717,-0.4154,0.0,0.0,0.0,0.0,0.0,0.0,-0.3586,-0.3584,-0.3678,-0.3914,-0.497,-0.5862,-0.6589,-0.7762,-0.8491,-0.8826,-0.8881,-0.8885,-0.8885,-0.8885,-0.8885,-0.8885,-0.8885,-0.8885,-0.8902,-0.9178,-0.9289,-0.9323,-0.9323,-0.9347,-0.9381,-0.9381,-0.9381,-0.9381,-0.9381,-0.9381,-0.9381,-0.9381,-0.9381,-0.9381,-0.9381,0.0,0.0,0.0,0.0,-0.9371,-0.9334,-0.9323,-0.9313,-0.9276,-0.9269,-0.9235,-0.9123,-0.9096,-0.913,0.0,-0.9178,-0.9096,-0.9096,0.0,0.0,0.0,0.0,-0.8885,-0.8885,-0.8885,-0.8885,-0.8885,-0.8885,-0.8885,-0.8885,-0.8885,-0.8885,-0.8885,-0.8885,-0.8885,-0.8885,-0.8885,-0.8885,-0.8885,0.0,0.0,0.0,0.0,0.0,0.0,0.0,0.0,0.0,0.0,0.0,0.0,0.0,0.0,0.0,0.0,0.0,0.0,0.0,0.0,0.0,0.0,0.0,0.0,0.0,0.0,0.0,0.0,0.0,-0.2242,-0.2471,0.0,0.0,0.0,0.0,-0.1182,-0.1124,-0.0955,-0.0617,-0.0617,-0.1121,-0.2291,-0.2403,-0.3685,-0.6306,-0.6644,-0.7371,-0.854,-0.8768,-0.8885,-0.8885,-0.8885,-0.8885,-0.8885,-0.8885,-0.8885,-0.8885,-0.8898,-0.9042,-0.9221,-0.9221,-0.9309,-0.9381,-0.9381,-0.9381,-0.9381,-0.9381,-0.9381,-0.9381,-0.9381,-0.9381,-0.9381,-0.9381,-0.9381,0.0,0.0,-0.9381,-0.9347,-0.9258,-0.9221,-0.9187,-0.8994,-0.8905,-0.8902,-0.8895,-0.8895,-0.8895,0.0,-0.8898,-0.8895,-0.8895,0.0,-0.8885,-0.8885,-0.8885,-0.8885,-0.8885,-0.8885,-0.8885,-0.8885,-0.8885,-0.8885,-0.8885,-0.8885,-0.8885,-0.8885,-0.8885,-0.8885,-0.8885,-0.8885,-0.8885,-0.8885,-0.8892,0.0,0.0,0.0,0.0,0.0,0.0,0.0,0.0,0.0,0.0,0.0,0.0,0.0,0.0,0.0,0.0,0.0,0.0,0.0,0.0,0.0,0.0,0.0,0.0,0.0,0.0,0.0,0.0,-0.2031,-0.1332,0.0,-0.017,-0.0678,-0.0846,-0.0337,-0.0336,-0.028,-0.0168,-0.0168,-0.0336,-0.0784,-0.1677,-0.2681,-0.3628,-0.4747,-0.5472,-0.5919,-0.6811,-0.7202,-0.7257,-0.7986,-0.8436,-0.8654,-0.8654,-0.8768,-0.8885,-0.8885,-0.8967,-0.9015,-0.9015,-0.9049,-0.9096,-0.9096,-0.9096,-0.9096,-0.9096,-0.9096,-0.9096,-0.9096,-0.9096,-0.9096,-0.9096,-0.9096,-0.9096,-0.9096,-0.9096,-0.9083,-0.9028,-0.9015,-0.9001,-0.8895,-0.8885,-0.8885,-0.8885,-0.8885,-0.8885,-0.8885,-0.8885,-0.8885,-0.8885,-0.8885,-0.8885,-0.8885,-0.8885,-0.8885,-0.8885,-0.8885,-0.8885,-0.8885,-0.8885,-0.8885,-0.8885,-0.8885,-0.8549,-0.7765,-0.8491,-0.8549,-0.7768,-0.7768,-0.81,-0.8881,-0.8156,-0.8103,0.0,0.0,0.0,0.0,0.0,0.0,0.0,0.0,0.0,0.0,0.0,0.0,0.0,0.0,0.0,0.0,0.0,0.0,0.0,0.0,0.0,0.0,0.0,0.0,0.0,0.0,-0.1681,-0.1369,-0.0513,0.0,0.0,0.0,0.0,0.0,0.0,0.0,0.0,0.0,0.0,0.0,-0.0952,-0.1678,-0.2069,-0.3186,-0.3911,-0.4359,-0.525,-0.5917,-0.6306,-0.7202,-0.7928,-0.8484,-0.8598,-0.8712,-0.8885,-0.8885,-0.8885,-0.8885,-0.8885,-0.8885,-0.8885,-0.8885,-0.8885,-0.8885,-0.8885,-0.8885,-0.8885,-0.8885,-0.8885,-0.8885,-0.8885,-0.8885,-0.8885,-0.8885,-0.8885,-0.8885,-0.8885,-0.8885,-0.8885,-0.8885,-0.8885,-0.8885,-0.8885,-0.8885,-0.8885,-0.8885,-0.8885,-0.8885,-0.8885,-0.8885,-0.8885,-0.8885,-0.8885,-0.8885,-0.8885,-0.8885,-0.8885,-0.8885,-0.8885,-0.8885,-0.8885,-0.8885,-0.838,-0.7152,-0.7823,-0.7765,-0.6591,-0.6871,-0.7487,-0.8269,-0.7487,-0.7318,-0.7706,0.0,0.0,0.0,0.0,0.0,0.0,0.0,0.0,0.0,0.0,0.0,0.0,0.0,0.0,0.0,0.0,0.0,0.0,0.0,0.0,0.0,0.0,0.0,-0.2405,-0.1319,-0.0343,-0.0056,0.0,0.0,0.0,0.0,0.0,0.0,0.0,0.0,0.0,0.0,0.0,0.0,0.0,-0.0561,-0.1737,-0.2016,-0.2742,-0.386,-0.4254,-0.5035,-0.6149,-0.6487,-0.7324,-0.8442,-0.8729,-0.8895,-0.8895,-0.8892,-0.8888,-0.8888,-0.8885,-0.8885,-0.8885,-0.8885,-0.8885,-0.8885,-0.8885,-0.8885,-0.8885,-0.8885,-0.8885,-0.8885,-0.8885,-0.8885,-0.8885,-0.8885,-0.8885,-0.8885,-0.8885,-0.8885,-0.8885,-0.8885,-0.8885,-0.8885,-0.8885,-0.8885,-0.8885,-0.8885,-0.8885,-0.8885,-0.8885,-0.8885,-0.8885,-0.8885,-0.8885,0.0,-0.8885,-0.8881,-0.8881,-0.8881,-0.8881,-0.883,-0.883,-0.883,-0.8325,-0.7096,-0.7041,-0.6536,-0.5417,-0.6424,-0.6985,-0.6985,-0.7041,-0.648,-0.5417,0.0,0.0,0.0,0.0,0.0,0.0,0.0,0.0,0.0,0.0,0.0,0.0,0.0,0.0,0.0,0.0,0.0,0.0,0.0,0.0,0.0,0.0,-0.0677,-0.0677,-0.0395,-0.0113,0.0,0.0,0.0,0.0,0.0,0.0,0.0,0.0,0.0,0.0,0.0,0.0,0.0,0.0,-0.0171,-0.0514,-0.0577,-0.0755,-0.1103,-0.2088,-0.2725,-0.313,-0.4978,-0.6138,-0.6717,-0.7818,-0.8341,-0.8565,-0.8688,-0.8758,-0.8749,-0.887,-0.8885,-0.8885,-0.8885,-0.8885,-0.8885,-0.8885,-0.8885,-0.8885,-0.8885,-0.8885,-0.8885,-0.8885,-0.8885,-0.8885,-0.8885,-0.8885,-0.8885,-0.8885,-0.8885,-0.8885,-0.8885,-0.8885,-0.8885,-0.8885,-0.8885,-0.8885,-0.8885,-0.8885,-0.8885,-0.8885,-0.8885,-0.8885,-0.8885,-0.8885,0.0,-0.8885,-0.8156,-0.7934,-0.8826,-0.81,-0.7598,-0.7598,-0.7598,-0.6705,-0.4697,-0.5363,-0.5306,-0.4137,-0.4418,-0.4585,-0.4585,-0.5419,-0.5697,0.0,0.0,0.0,0.0,0.0,0.0,0.0,0.0,0.0,0.0,0.0,0.0,0.0,0.0,0.0,0.0,0.0,0.0,0.0,0.0,0.0,0.0,-0.062,0.0,0.0,0.0,0.0,0.0,0.0,0.0,0.0,0.0,0.0,0.0,0.0,0.0,0.0,0.0,0.0,0.0,0.0,0.0,0.0,0.0,0.0,0.0,-0.0706,-0.1294,-0.1882,-0.3406,-0.4519,-0.5223,-0.6689,-0.7391,-0.7624,-0.842,-0.8791,0.0,0.0,0.0,0.0,0.0,-0.8885,-0.8885,-0.8885,-0.8885,-0.8885,-0.8885,-0.8885,-0.8885,-0.8885,-0.8885,-0.8885,-0.8885,-0.8885,-0.8885,-0.8885,-0.8885,-0.8885,-0.8885,-0.8885,-0.8885,-0.8885,-0.8885,-0.8885,-0.8885,-0.8885,0.0,-0.8885,-0.8885,-0.8885,-0.8885,-0.8491,-0.8156,-0.8156,-0.7093,-0.6647,-0.7371,-0.6813,-0.6369,-0.6369,-0.6369,0.0,0.0,0.0,-0.4305,-0.3636,-0.358,0.0,0.0,0.0,-0.4414,-0.3914,-0.3914,0.0,0.0,-0.5553,-0.5837,0.0,0.0,0.0,0.0,0.0,0.0,0.0,0.0,0.0,0.0,0.0,0.0,0.0,0.0,0.0,0.0,0.0,0.0,0.0,0.0,0.0,0.0,0.0,0.0,0.0,0.0,0.0,0.0,0.0,0.0,0.0,0.0,0.0,0.0,0.0,0.0,0.0,0.0,0.0,0.0,0.0,-0.0533,-0.1597,-0.2009,-0.2775,-0.3894,-0.5603,-0.6368,-0.6485,-0.8122,-0.8816,-0.8894,-0.8924,-0.8932,-0.8932,-0.8912,-0.8908,-0.8905,-0.8888,0.0,0.0,-0.8885,-0.8885,-0.8885,-0.8885,-0.8885,-0.8885,-0.8885,-0.8885,-0.8885,-0.8885,-0.8885,-0.8885,-0.8885,-0.8885,-0.8885,-0.8885,-0.8885,-0.8885,-0.8885,-0.8885,-0.8881,-0.8716,-0.8826,-0.8885,-0.8885,-0.7878,-0.7096,-0.7096,-0.5977,-0.525,-0.5361,0.0,0.0,-0.5194,-0.5194,-0.4693,-0.3469,-0.3413,-0.3413,-0.3413,-0.3413,-0.3413,-0.3413,-0.3413,-0.2856,-0.1795,-0.1795,-0.2353,-0.3413,-0.447,-0.5083,0.0,0.0,0.0,0.0,0.0,0.0,0.0,0.0,0.0,0.0,0.0,0.0,0.0,0.0,0.0,-0.0224,0.0,0.0,0.0,0.0,0.0,0.0,0.0,0.0,0.0,0.0,0.0,0.0,0.0,0.0,0.0,0.0,0.0,0.0,0.0,0.0,0.0,0.0,0.0,0.0,0.0,0.0,-0.0367,-0.1528,-0.2138,-0.2504,-0.4939,-0.5975,-0.609,-0.7636,-0.849,-0.8913,-0.9205,-0.9296,-0.9279,-0.9157,-0.9169,-0.9096,-0.8981,-0.8885,-0.8885,-0.8885,-0.8885,-0.8885,-0.8885,-0.8885,0.0,-0.8885,-0.8885,-0.8885,-0.8885,-0.8885,-0.8885,-0.8885,-0.8885,-0.8885,-0.8885,-0.8885,-0.8885,-0.8885,-0.8885,-0.8602,-0.7598,-0.8269,-0.8885,-0.8885,-0.7878,-0.7096,-0.7096,-0.5254,-0.4305,-0.5306,-0.4528,-0.397,-0.397,-0.397,-0.3413,-0.2242,-0.213,-0.213,-0.213,-0.213,-0.213,-0.213,-0.213,-0.2018,-0.1795,-0.1795,-0.1907,-0.213,-0.2409,-0.3023,0.0,0.0,0.0,0.0,0.0,0.0,0.0,0.0,0.0,0.0,0.0,-0.4627,0.0,0.0,-0.084,-0.0112,0.0,0.0,0.0,0.0,0.0,0.0,0.0,0.0,0.0,0.0,0.0,0.0,0.0,0.0,0.0,0.0,0.0,0.0,0.0,0.0,0.0,0.0,0.0,0.0,0.0,0.0,0.0,-0.0679,-0.0987,-0.1172,-0.3754,-0.4921,-0.5102,-0.7501,-0.8831,-0.9364,-0.9542,-0.951,-0.9371,-0.9354,-0.9323,-0.9313,-0.9184,-0.911,-0.9045,-0.9045,-0.8998,-0.8885,-0.8885,-0.8885,-0.8885,-0.8885,-0.8885,-0.8885,-0.8885,-0.8885,-0.8885,-0.8885,-0.8885,-0.8885,-0.8885,-0.8885,-0.8885,-0.8885,-0.8885,-0.8491,-0.7321,-0.7598,-0.782,-0.726,-0.6144,-0.5365,-0.5365,-0.3805,-0.2911,-0.3525,-0.3079,-0.2688,-0.2688,-0.2688,-0.2465,-0.1851,-0.1795,-0.1795,-0.1795,-0.1795,-0.1795,-0.1795,-0.1795,-0.1795,-0.1795,-0.1795,-0.1795,-0.1795,-0.1795,-0.213,0.0,0.0,0.0,0.0,0.0,0.0,0.0,0.0,-0.7695,-0.7757,-0.5529,-0.3579,-0.3576,-0.1623,0.0,0.0,0.0,0.0,0.0,0.0,0.0,0.0,0.0,0.0,0.0,0.0,0.0,0.0,0.0,0.0,0.0,0.0,0.0,0.0,0.0,0.0,0.0,0.0,0.0,0.0,0.0,0.0,0.0,0.0,0.0,-0.0123,-0.2771,-0.4059,-0.449,-0.75,-0.9095,-0.964,-0.964,-0.9556,-0.9462,-0.9435,-0.9425,-0.9422,-0.9391,-0.93,-0.9255,-0.9255,-0.9117,-0.9018,-0.8988,-0.8981,-0.8974,-0.8892,-0.8885,-0.8885,-0.8885,-0.8885,-0.8885,-0.8885,-0.8885,-0.8885,-0.8885,-0.8885,-0.8885,-0.8885,-0.8716,-0.8156,-0.6982,-0.6594,-0.6202,-0.5528,-0.4359,-0.358,-0.358,-0.2521,-0.1795,-0.1795,-0.1795,-0.1795,-0.1795,-0.1795,-0.1795,-0.1795,-0.1739,-0.1739,-0.1795,-0.1683,-0.1627,-0.1683,-0.1627,-0.1627,-0.1627,-0.1627,-0.1627,-0.1683,-0.1683,-0.1739,-0.8854,-0.8524,-0.8164,-0.8034,-0.7687,-0.7372,0.0,0.0,-0.6951,-0.5947,-0.4592,-0.3301,-0.2239,-0.0952,0.0,0.0,0.0,0.0,0.0,0.0,0.0,0.0,0.0,0.0,0.0,0.0,0.0,0.0,0.0,0.0,0.0,0.0,0.0,0.0,0.0,0.0,0.0,0.0,0.0,0.0,0.0,0.0,0.0,0.0,0.0,-0.0123,-0.2771,-0.4553,-0.5784,-0.7378,-0.8421,-0.8976,-0.8976,-0.9319,-0.9754,-0.9632,-0.9585,-0.9564,-0.9429,-0.9371,-0.9354,-0.9354,-0.9344,-0.9306,-0.9228,-0.9187,-0.9103,-0.8974,-0.8885,-0.8885,-0.8885,-0.8885,-0.8885,-0.8885,-0.8885,-0.8885,-0.8885,-0.8885,-0.8885,-0.8885,-0.8045,-0.6927,-0.5808,-0.4695,-0.4305,-0.525,-0.4359,-0.358,-0.358,-0.2521,-0.1795,-0.1795,-0.1795,-0.1795,-0.1795,-0.1795,-0.1795,-0.1795,-0.1514,-0.1514,-0.1795,-0.129,-0.1121,-0.1346,-0.1121,-0.1009,-0.1009,-0.1009,-0.1121,-0.1346,-0.1346,-0.1514,-0.8518,-0.8337,0.0,0.0,-0.7712,-0.7542,-0.7474,-0.7583,-0.749,-0.6821,-0.5704,-0.4485,-0.3284,-0.1988,-0.0798,0.0,0.0,0.0,0.0,0.0,0.0,0.0,0.0,0.0,0.0,0.0,0.0,0.0,0.0,0.0,0.0,0.0,0.0,0.0,0.0,0.0,0.0,0.0,0.0,0.0,0.0,0.0,0.0,0.0,-0.0432,-0.1295,-0.3078,-0.4797,-0.6333,-0.7869,-0.8729,-0.9156,-0.9339,-0.9579,-0.9815,-0.9754,-0.9734,-0.9724,-0.9659,-0.9585,-0.9513,-0.9513,-0.9452,-0.9367,-0.9306,-0.9279,-0.9197,-0.9079,-0.9001,-0.8885,-0.8885,-0.8885,-0.8885,-0.8885,-0.8885,-0.8885,-0.8885,-0.8885,-0.8716,-0.7989,-0.7432,-0.6538,-0.4695,-0.3914,-0.3525,-0.3358,-0.2856,-0.2577,-0.2577,-0.213,-0.1795,-0.1795,-0.1795,-0.1795,-0.1795,-0.1795,-0.1795,-0.1795,-0.1683,-0.157,-0.1514,-0.129,-0.1121,-0.1065,-0.0953,-0.0897,-0.0897,-0.0897,-0.0953,-0.1065,-0.1065,-0.1121,-0.8485,0.0,0.0,-0.8049,-0.7903,-0.7826,-0.7739,-0.7908,-0.8047,-0.7827,-0.6835,-0.5627,-0.4316,-0.2943,-0.1566,-0.0235,0.0,0.0,0.0,0.0,0.0,0.0,0.0,0.0,0.0,0.0,0.0,0.0,0.0,0.0,0.0,0.0,0.0,0.0,0.0,0.0,0.0,0.0,0.0,0.0,0.0,0.0,0.0,0.0,-0.0555,-0.1542,-0.2833,-0.406,-0.5349,-0.7255,-0.8297,-0.872,-0.9332,-0.964,-0.9822,-0.9822,-0.9822,-0.9822,-0.9822,-0.9754,-0.9666,-0.9666,-0.9591,-0.9496,-0.9456,-0.9367,-0.9326,-0.9286,-0.911,-0.8998,-0.8998,-0.8967,-0.8885,-0.8885,-0.8885,-0.8826,-0.8491,-0.838,-0.8045,-0.6871,-0.6369,-0.5588,-0.3914,-0.3301,-0.28,-0.1907,-0.1795,-0.1795,-0.1795,-0.1795,-0.1795,-0.1795,-0.1795,-0.1795,-0.1795,-0.1795,-0.1795,-0.1795,-0.1739,-0.157,-0.129,-0.1121,-0.0953,-0.0785,-0.0673,-0.0673,-0.0673,-0.0673,-0.0673,-0.0785,-0.0785,-0.0841,0.0,0.0,-0.8671,-0.8526,-0.8214,-0.7992,-0.7989,-0.8152,-0.8303,-0.8303,-0.7418,-0.6152,-0.4516,-0.3228,-0.1938,-0.0294,0.0,0.0,0.0,0.0,0.0,0.0,0.0,0.0,0.0,0.0,0.0,0.0,0.0,0.0,0.0,0.0,0.0,0.0,0.0,0.0,0.0,0.0,0.0,0.0,0.0,0.0,0.0,0.0,0.0,-0.0123,-0.148,-0.2096,-0.2342,-0.4923,-0.6392,-0.7123,-0.8419,-0.9278,-0.9822,-0.9822,-0.9822,-0.9822,-0.9822,-0.9819,-0.9815,-0.9815,-0.9812,-0.9781,-0.9646,-0.9598,-0.9564,-0.9415,-0.932,-0.9204,-0.9204,-0.9042,-0.8885,-0.8885,-0.8885,-0.8605,-0.7432,-0.7152,-0.6816,-0.5695,-0.4526,-0.3692,-0.3636,-0.2633,-0.1851,-0.1795,-0.1795,-0.1795,-0.1795,-0.1795,-0.1795,-0.1795,-0.1795,-0.1795,-0.1795,-0.1795,-0.1795,-0.1795,-0.1514,-0.129,-0.129,-0.0729,-0.0449,-0.0393,-0.0168,0.0,0.0,0.0,-0.0168,-0.0393,-0.0393,-0.0729,0.0,0.0,-0.8634,-0.8417,-0.836,-0.8311,-0.8311,-0.8523,-0.8676,-0.8676,-0.8417,-0.7766,-0.6359,-0.4766,-0.3172,-0.1877,-0.0732,0.0,0.0,0.0,0.0,0.0,0.0,0.0,0.0,0.0,0.0,0.0,0.0,0.0,0.0,0.0,0.0,0.0,0.0,0.0,0.0,0.0,0.0,0.0,0.0,0.0,0.0,0.0,0.0,-0.0062,-0.1418,-0.1973,-0.2157,-0.412,-0.5712,-0.6938,-0.7612,-0.8653,-0.9822,-0.9822,-0.9822,-0.9822,-0.9822,-0.9822,-0.9822,-0.9822,-0.9822,-0.9812,-0.9764,-0.9683,-0.9598,-0.9547,-0.9422,-0.934,-0.9234,-0.9173,-0.9055,-0.8905,-0.8885,-0.8549,-0.7376,-0.7096,-0.6538,-0.4583,-0.3858,-0.3358,-0.2521,-0.2074,-0.1795,-0.1795,-0.1795,-0.1795,-0.1795,-0.1795,-0.1795,-0.1795,-0.1795,-0.1795,-0.1795,-0.1795,-0.1795,-0.1795,-0.1458,-0.1234,-0.1065,-0.0617,-0.0336,-0.0112,-0.0056,0.0,0.0,0.0,-0.0056,-0.0112,-0.0112,-0.0224,0.0,-0.8877,-0.8892,-0.8724,-0.873,-0.8794,-0.8794,-0.9013,-0.9173,-0.9173,-0.9212,-0.8794,-0.7485,-0.569,-0.4012,-0.2703,-0.111,0.0,0.0,0.0,0.0,0.0,0.0,0.0,0.0,0.0,0.0,0.0,0.0,0.0,0.0,0.0,0.0,0.0,0.0,0.0,0.0,0.0,0.0,0.0,0.0,0.0,0.0,0.0,0.0,-0.0062,-0.0925,-0.1296,-0.1418,-0.3076,-0.4424,-0.559,-0.6874,-0.8099,-0.9147,-0.9636,-0.9822,-0.9822,-0.9822,-0.9822,-0.9822,-0.9822,-0.9822,-0.9822,-0.9822,-0.9758,-0.9686,-0.9686,-0.9578,-0.9442,-0.934,-0.9333,-0.9255,-0.9052,-0.8677,-0.8044,-0.6768,-0.6146,-0.5254,-0.3358,-0.2967,-0.2688,-0.1907,-0.1795,-0.1795,-0.1795,-0.1795,-0.1795,-0.1795,-0.1795,-0.1795,-0.1795,-0.1795,-0.1795,-0.1795,-0.1795,-0.1795,-0.1795,-0.1458,-0.1177,-0.0897,-0.0561,-0.028,0.0,0.0,0.0,0.0,0.0,0.0,0.0,0.0,-0.0056,-0.9344,-0.9388,-0.9395,-0.9395,-0.9398,-0.9405,-0.9405,-0.9517,-0.9618,-0.9618,-0.9727,-0.9329,0.0,0.0,-0.4426,-0.2893,-0.1171,0.0,0.0,0.0,0.0,0.0,0.0,0.0,0.0,0.0,0.0,0.0,0.0,0.0,0.0,0.0,0.0,0.0,0.0,0.0,0.0,0.0,0.0,0.0,0.0,0.0,0.0,0.0,0.0,0.0,0.0,0.0,-0.0123,-0.1725,-0.2586,-0.3201,-0.6023,-0.7492,-0.8041,-0.9268,-0.9761,-0.9822,-0.9822,-0.9822,-0.9822,-0.9822,-0.9822,-0.9822,-0.9822,-0.9822,-0.9822,-0.9822,-0.9724,-0.9618,-0.9612,-0.9503,-0.9354,-0.9258,-0.8306,-0.7018,-0.5674,-0.4479,-0.325,-0.2021,-0.1796,-0.1795,-0.1795,-0.1795,-0.1795,-0.1795,-0.1795,-0.1795,-0.1795,-0.1795,-0.1795,-0.1795,-0.1795,-0.1795,-0.1795,-0.1795,-0.1795,-0.1795,-0.1458,-0.1121,-0.0897,-0.0561,-0.028,0.0,0.0,0.0,0.0,0.0,0.0,0.0,0.0,-0.0112,-0.9371,-0.9462,-0.9551,-0.9551,-0.9632,-0.9707,-0.9707,-0.9737,-0.9768,-0.9768,-0.9795,-0.9697,0.0,0.0,0.0,-0.4366,-0.1848,0.0,0.0,0.0,0.0,0.0,0.0,0.0,0.0,0.0,0.0,0.0,0.0,0.0,0.0,0.0,0.0,0.0,0.0,0.0,0.0,0.0,0.0,0.0,0.0,0.0,0.0,0.0,0.0,0.0,0.0,0.0,-0.0062,-0.0432,-0.1541,-0.3017,-0.3753,-0.5651,-0.7919,-0.8285,-0.8961,-0.9822,-0.9822,-0.9822,-0.9822,-0.9822,-0.9822,-0.9822,-0.9822,-0.9822,-0.9822,-0.9822,-0.9795,-0.9744,-0.9639,-0.9581,-0.9513,-0.9361,-0.8332,-0.7043,-0.5801,-0.4537,-0.325,-0.2057,-0.181,-0.1795,-0.1795,-0.1795,-0.1795,-0.1795,-0.1795,-0.1795,-0.1795,-0.1795,-0.1795,-0.1795,-0.1795,-0.1795,-0.1795,-0.157,-0.1402,-0.1402,-0.0953,-0.0617,-0.0505,-0.028,-0.0056,0.0,0.0,0.0,0.0,0.0,0.0,0.0,0.0,-0.0056,-0.9557,-0.9635,-0.9703,-0.9703,-0.9764,-0.9822,-0.9822,-0.9822,-0.9822,-0.9822,-0.9822,0.0,0.0,0.0,0.0,0.0,0.0,0.0,-0.0062,0.0,0.0,0.0,0.0,0.0,0.0,0.0,0.0,0.0,0.0,0.0,0.0,0.0,0.0,0.0,0.0,0.0,0.0,0.0,0.0,0.0,0.0,0.0,0.0,0.0,0.0,0.0,0.0,-0.0062,-0.0247,-0.037,-0.1173,-0.2404,-0.3078,-0.4488,-0.6202,-0.6815,-0.7856,-0.8961,-0.8961,-0.9329,-0.9822,-0.9822,-0.9822,-0.9822,-0.9822,-0.9822,-0.9822,-0.9822,-0.9822,-0.9802,-0.9724,-0.9703,-0.9483,-0.88,-0.7643,-0.6391,-0.5057,-0.3734,-0.267,-0.1976,-0.1836,-0.1814,-0.1814,-0.1804,-0.1795,-0.1795,-0.1795,-0.1795,-0.1795,-0.1795,-0.1795,-0.1795,-0.1795,-0.1795,-0.1795,-0.1514,-0.129,-0.129,-0.0729,-0.0393,-0.0393,-0.0168,0.0,0.0,0.0,0.0,0.0,0.0,0.0,0.0,0.0,0.0,-0.9788,-0.9822,-0.9822,-0.9822,-0.9822,-0.9822,-0.9822,-0.9822,-0.9822,-0.9822,0.0,0.0,-0.9822,0.0,-0.6446,-0.51,0.0,-0.1542,-0.0185,0.0,0.0,0.0,0.0,0.0,0.0,0.0,0.0,0.0,0.0,0.0,0.0,0.0,0.0,0.0,0.0,0.0,0.0,0.0,0.0,0.0,0.0,0.0,0.0,0.0,0.0,0.0,0.0,-0.0185,-0.0494,-0.0803,-0.1173,-0.1667,-0.3018,-0.3692,-0.4059,-0.5223,-0.6571,-0.7919,-0.7919,-0.8714,-0.9822,-0.9822,-0.9822,-0.9822,-0.9822,-0.9822,-0.9822,-0.9822,-0.9822,-0.9822,-0.9822,-0.9822,-0.9421,-0.7973,-0.6748,-0.5526,-0.4033,-0.2779,-0.1891,-0.1887,-0.1864,-0.1789,-0.1789,-0.1821,-0.1801,-0.1801,-0.1797,-0.1795,-0.1795,-0.1795,-0.1795,-0.1795,-0.1795,-0.1795,-0.1739,-0.1458,-0.1234,-0.1177,-0.0673,-0.0336,-0.0336,-0.0112,0.0,0.0,0.0,0.0,0.0,0.0,0.0,0.0,0.0,0.0,-0.9815,-0.9822,-0.9822,-0.9822,-0.9822,-0.9822,-0.9822,-0.9822,0.0,0.0,0.0,-0.9822,-0.9822,-0.8224,0.0,-0.51,0.0,0.0,0.0,0.0,0.0,0.0,0.0,0.0,0.0,0.0,0.0,0.0,0.0,0.0,0.0,0.0,0.0,0.0,0.0,0.0,0.0,0.0,0.0,0.0,0.0,0.0,0.0,0.0,0.0,0.0,0.0,0.0,-0.0494,-0.0556,-0.0926,-0.1544,-0.179,-0.2712,-0.3937,-0.4182,-0.5774,-0.7919,-0.7919,-0.8714,-0.9822,-0.9822,-0.9822,-0.9822,-0.9822,-0.9822,-0.9822,-0.9822,-0.9822,-0.9822,-0.9822,-0.9822,-0.9447,-0.8138,-0.685,-0.5506,-0.4151,-0.2846,-0.1916,-0.1891,-0.1881,-0.1878,-0.1878,-0.1853,-0.1775,-0.1775,-0.1811,-0.1795,-0.1795,-0.1795,-0.1795,-0.1795,-0.1795,-0.1683,-0.1402,-0.1121,-0.0841,-0.0561,-0.0224,-0.0056,-0.0056,0.0,0.0,0.0,0.0,0.0,0.0,0.0,0.0,0.0,0.0,0.0,-0.9822,-0.9822,-0.9822,-0.9822,-0.9822,-0.9822,-0.9822,0.0,0.0,0.0,0.0,-0.9822,-0.9822,0.0,0.0,0.0,0.0,0.0,0.0,0.0,0.0,0.0,0.0,0.0,0.0,0.0,0.0,0.0,0.0,0.0,0.0,0.0,0.0,0.0,0.0,0.0,0.0,0.0,0.0,0.0,0.0,0.0,0.0,0.0,0.0,0.0,0.0,-0.0309,-0.0741,-0.0741,-0.1173,-0.1729,-0.1729,-0.2221,-0.2898,-0.2898,-0.4123,-0.5835,-0.5835,-0.7121,-0.8714,-0.798,-0.8714,-0.9822,-0.9822,-0.9822,-0.9636,-0.9022,-0.8836,-0.8836,-0.8836,-0.8285,-0.7612,-0.6999,-0.5349,-0.3696,-0.302,-0.2392,-0.195,-0.1936,-0.192,-0.1909,-0.1909,-0.1884,-0.1864,-0.1864,-0.1838,-0.1819,-0.1819,-0.1805,-0.1795,-0.1795,-0.1795,-0.1683,-0.1346,-0.1065,-0.0785,-0.0449,-0.0168,0.0,0.0,0.0,0.0,0.0,0.0,0.0,0.0,0.0,0.0,0.0,0.0,0.0,-0.9822,-0.9822,-0.9822,-0.9822,-0.9822,-0.9822,-0.9822,-0.9822,0.0,0.0,0.0,-0.9822,-0.9822,0.0,0.0,0.0,0.0,0.0,0.0,0.0,0.0,0.0,0.0,0.0,0.0,0.0,0.0,0.0,0.0,0.0,0.0,0.0,0.0,0.0,0.0,0.0,0.0,0.0,0.0,0.0,0.0,0.0,0.0,0.0,0.0,0.0,0.0,-0.037,-0.0926,-0.0988,-0.1359,-0.1915,-0.1977,-0.1977,-0.1977,-0.1977,-0.2836,-0.3875,-0.3875,-0.5468,-0.7304,-0.6265,-0.749,-0.9329,-0.9022,-0.8961,-0.8775,-0.7734,-0.749,-0.749,-0.749,-0.6693,-0.5835,-0.5529,-0.3696,-0.1977,-0.1977,-0.1977,-0.1977,-0.1977,-0.1958,-0.1941,-0.1941,-0.1916,-0.1896,-0.1896,-0.187,-0.1792,-0.1792,-0.1823,-0.1805,-0.1692,-0.1686,-0.157,-0.1234,-0.0953,-0.0673,-0.0336,-0.0112,0.0,0.0,0.0,0.0,0.0,0.0,0.0,0.0,0.0,0.0,0.0,0.0,0.0,-0.9822,-0.9822,-0.9822,-0.9822,-0.9822,-0.9822,-0.9822,0.0,0.0,0.0,-0.9822,-0.9822,-0.9822,-0.9339,0.0,0.0,0.0,0.0,0.0,0.0,0.0,0.0,0.0,0.0,0.0,0.0,0.0,0.0,0.0,0.0,0.0,0.0,0.0,0.0,0.0,0.0,0.0,0.0,0.0,0.0,0.0,0.0,0.0,0.0,0.0,0.0,0.0,-0.0185,0.0,-0.0864,-0.1235,-0.1606,-0.1853,-0.1977,-0.1977,-0.1977,-0.2836,-0.3875,-0.3875,-0.4855,-0.608,-0.5957,-0.6877,-0.7856,-0.6632,-0.6263,-0.6263,-0.6141,-0.608,-0.608,-0.608,-0.6018,-0.559,-0.4366,-0.302,-0.1977,-0.1977,-0.1977,-0.1977,-0.1977,-0.1975,-0.1973,-0.1973,-0.1947,-0.1927,-0.1927,-0.1901,-0.1881,-0.1881,-0.1855,-0.1722,-0.1492,-0.1358,-0.1234,-0.0953,-0.0617,-0.0336,-0.0056,0.0,0.0,0.0,0.0,0.0,0.0,0.0,0.0,0.0,0.0,0.0,0.0,0.0,0.0,-0.9822,-0.9822,-0.9822,-0.9822,-0.9822,-0.9822,-0.9822,0.0,0.0,-0.9822,-0.9822,-0.9822,-0.9822,-0.946,-0.8909,0.0,0.0,0.0,0.0,0.0,0.0,0.0,0.0,0.0,0.0,0.0,0.0,0.0,0.0,0.0,0.0,0.0,0.0,0.0,0.0,0.0,0.0,0.0,0.0,0.0,0.0,0.0,0.0,0.0,0.0,0.0,0.0,-0.0185,0.0,-0.0617,-0.0926,-0.1235,-0.1544,-0.1729,-0.1729,-0.1915,-0.2346,-0.2774,-0.2774,-0.3633,-0.455,-0.3817,-0.4429,-0.5529,-0.5835,-0.5896,-0.5712,-0.4916,-0.4671,-0.4671,-0.4671,-0.4671,-0.4366,-0.3081,-0.2345,-0.1977,-0.1977,-0.1977,-0.1977,-0.1977,-0.1977,-0.1977,-0.1977,-0.1967,-0.1958,-0.1958,-0.1932,-0.1913,-0.1913,-0.1886,-0.1809,-0.1693,-0.1482,-0.1121,-0.0617,-0.0505,-0.028,0.0,0.0,0.0,0.0,0.0,0.0,0.0,0.0,0.0,0.0,0.0,0.0,0.0,0.0,0.0,-0.9822,-0.9822,-0.9822,-0.9822,-0.9822,-0.9822,0.0,0.0,0.0,-0.9822,-0.9822,-0.9761,-0.964,-0.9396,-0.9095,0.0,0.0,0.0,0.0,0.0,0.0,0.0,0.0,0.0,0.0,0.0,0.0,0.0,0.0,0.0,0.0,0.0,0.0,0.0,0.0,0.0,0.0,0.0,0.0,0.0,0.0,0.0,0.0,0.0,0.0,0.0,0.0,-0.0123,0.0,-0.0432,-0.0617,-0.0864,-0.1235,-0.1359,-0.142,-0.1729,-0.1853,-0.1853,-0.1977,-0.259,-0.3203,-0.2284,-0.259,-0.351,-0.443,-0.4735,-0.4551,-0.3633,-0.3325,-0.3325,-0.3325,-0.3325,-0.3142,-0.2223,-0.1977,-0.1977,-0.1977,-0.1977,-0.1977,-0.1977,-0.1977,-0.1977,-0.1977,-0.1977,-0.1977,-0.1977,-0.1958,-0.1945,-0.1945,-0.1918,-0.1899,-0.178,-0.1505,-0.1136,-0.0565,-0.0452,-0.0282,0.0,0.0,0.0,0.0,0.0,0.0,0.0,0.0,0.0,0.0,0.0,0.0,0.0,0.0,0.0,-0.9822,-0.9822,-0.9822,-0.9822,-0.9822,-0.9822,0.0,0.0,0.0,-0.9822,-0.9822,-0.97,-0.9335,-0.9095,-0.8793,-0.843,0.0,0.0,0.0,0.0,0.0,0.0,0.0,0.0,0.0,0.0,0.0,0.0,0.0,0.0,0.0,0.0,0.0,0.0,0.0,0.0,0.0,0.0,0.0,0.0,0.0,0.0,0.0,0.0,0.0,0.0,0.0,0.0,0.0,-0.037,-0.0494,-0.0556,-0.0864,-0.0988,-0.105,-0.1359,-0.1482,-0.1544,-0.1915,-0.2038,-0.2038,-0.1977,-0.2038,-0.2038,-0.2038,-0.2038,-0.2038,-0.2038,-0.2038,-0.2038,-0.2038,-0.2038,-0.2038,-0.1977,-0.1977,-0.1977,-0.1977,-0.1977,-0.1977,-0.1977,-0.1977,-0.1977,-0.1977,-0.1977,-0.1977,-0.1977,-0.1976,-0.1976,-0.1976,-0.1949,-0.181,-0.1508,-0.1427,-0.1287,-0.0921,-0.0632,-0.0342,0.0,0.0,0.0,0.0,0.0,0.0,0.0,0.0,0.0,0.0,0.0,0.0,0.0,0.0,0.0,-0.9822,-0.9822,-0.9822,-0.9822,-0.9822,-0.9822,-0.9822,0.0,0.0,-0.9822,-0.9822,-0.97,-0.9335,-0.9095,-0.8793,-0.843,0.0,0.0,0.0,0.0,0.0,0.0,0.0,0.0,0.0,0.0,0.0,0.0,0.0,0.0,0.0,0.0,0.0,0.0,0.0,0.0,0.0,0.0,0.0,0.0,0.0,0.0,0.0,0.0,0.0,0.0,0.0,0.0,0.0,-0.0123,-0.0185,-0.0185,-0.0556,-0.0679,-0.0679,-0.105,-0.1173,-0.1173,-0.1297,-0.1482,-0.1667,-0.1667,-0.1791,-0.1977,-0.1977,-0.1977,-0.1977,-0.1977,-0.1977,-0.1977,-0.1977,-0.1977,-0.1977,-0.1977,-0.1977,-0.1977,-0.1977,-0.1977,-0.1977,-0.1977,-0.1977,-0.1977,-0.1977,-0.1977,-0.1977,-0.1977,-0.1977,-0.1977,-0.1977,-0.1968,-0.1839,-0.1533,-0.1465,-0.1264,-0.0703,-0.0526,-0.035,0.0,0.0,0.0,0.0,0.0,0.0,0.0,0.0,0.0,0.0,0.0,0.0,0.0,0.0,0.0,0.0,-0.9822,-0.9822,-0.9822,-0.9822,0.0,0.0,0.0,0.0,0.0,-0.9822,-0.964,-0.9217,-0.9037,-0.8732,-0.8305,0.0,0.0,0.0,0.0,0.0,0.0,0.0,0.0,0.0,0.0,0.0,0.0,0.0,0.0,0.0,0.0,0.0,0.0,0.0,0.0,0.0,0.0,0.0,0.0,0.0,0.0,0.0,0.0,0.0,0.0,0.0,0.0,0.0,0.0,0.0,0.0,-0.0247,-0.0309,-0.037,-0.0803,-0.0988,-0.105,-0.1297,-0.1544,-0.1667,-0.1667,-0.1853,-0.1977,-0.1977,-0.1977,-0.1977,-0.1977,-0.1977,-0.1977,-0.1977,-0.1977,-0.1977,-0.1977,-0.1977,-0.1977,-0.1977,-0.1977,-0.1977,-0.1977,-0.1977,-0.1977,-0.1977,-0.1977,-0.1977,-0.1977,-0.1977,-0.1977,-0.1977,-0.1977,-0.1853,-0.1544,-0.1482,-0.1225,-0.0541,-0.0477,-0.0356,0.0,0.0,0.0,0.0,0.0,0.0,0.0,0.0,0.0,0.0,0.0,0.0,0.0,0.0,0.0,0.0,0.0,0.0,0.0,0.0,0.0,0.0,0.0,0.0,0.0,0.0,0.0,0.0,0.0,-0.8668,-0.7994,0.0,0.0,0.0,0.0,0.0,0.0,0.0,0.0,0.0,0.0,0.0,0.0,0.0,0.0,0.0,0.0,0.0,0.0,0.0,0.0,0.0,0.0,0.0,0.0,0.0,0.0,0.0,0.0,0.0,0.0,0.0,0.0,0.0,0.0,0.0,0.0,0.0,0.0,-0.0062,-0.0741,-0.0988,-0.105,-0.1729,-0.1915,-0.1977,-0.1977,-0.1977,-0.1977,-0.1977,-0.1977,-0.1977,-0.1977,-0.1977,-0.1977,-0.1977,-0.1977,-0.1977,-0.1977,-0.1977,-0.1977,-0.1977,-0.1977,-0.1977,-0.1977,-0.1977,-0.1977,-0.1977,-0.1977,-0.1977,-0.1977,-0.1977,-0.1977,-0.1977,-0.1977,-0.1853,-0.1482,-0.1482,-0.1173,-0.0494,-0.0487,-0.036,0.0,0.0,0.0,0.0,0.0,0.0,0.0,0.0,0.0,0.0,0.0,0.0,0.0,0.0,0.0,0.0,0.0,0.0,0.0,0.0,0.0,0.0,0.0,0.0,0.0,0.0,0.0,0.0,0.0,0.0,0.0,0.0,0.0,0.0,0.0,0.0,0.0,0.0,0.0,0.0,0.0,0.0,0.0,0.0,0.0,0.0,0.0,0.0,0.0,0.0,0.0,0.0,0.0,0.0,0.0,0.0,0.0,0.0,0.0,0.0,0.0,0.0,0.0,0.0,0.0,0.0,0.0,0.0,0.0,-0.0062,-0.0494,-0.0617,-0.0679,-0.1111,-0.142,-0.1667,-0.1915,-0.1977,-0.1977,-0.1977,-0.1977,-0.1977,-0.1977,-0.1977,-0.1977,-0.1977,-0.1977,-0.1977,-0.1977,-0.1977,-0.1977,-0.1977,-0.1977,-0.1977,-0.1977,-0.1977,-0.1977,-0.1977,-0.1977,-0.1977,-0.1977,-0.1977,-0.1977,-0.1977,-0.1977,-0.1791,-0.1173,-0.1111,-0.0864,-0.0185,-0.0369,-0.0368,0.0,0.0,0.0,0.0,0.0,0.0,0.0,0.0,0.0,0.0,0.0,0.0,0.0,0.0,0.0,0.0,0.0,0.0,0.0,0.0,0.0,0.0,0.0,0.0,0.0,0.0,0.0,0.0,0.0,0.0,0.0,0.0,0.0,0.0,0.0,0.0,0.0,0.0,0.0,0.0,0.0,0.0,0.0,0.0,0.0,0.0,0.0,0.0,0.0,0.0,0.0,0.0,0.0,0.0,0.0,0.0,0.0,0.0,0.0,0.0,0.0,0.0,0.0,0.0,0.0,0.0,0.0,0.0,0.0,-0.0062,-0.0556,-0.0741,-0.0803,-0.1297,-0.1606,-0.1729,-0.1915,-0.1977,-0.1977,-0.1977,-0.1977,-0.1977,-0.1977,-0.1977,-0.1977,-0.1977,-0.1977,-0.1977,-0.1977,-0.1977,-0.1977,-0.1977,-0.1977,-0.1977,-0.1977,-0.1977,-0.1977,-0.1977,-0.1977,-0.1977,-0.1977,-0.1977,-0.1977,-0.1977,-0.1977,-0.1729,-0.105,-0.0988,-0.0741,-0.0062,-0.0185,-0.0185,0.0,0.0,0.0,0.0,0.0,0.0,0.0,0.0,0.0,0.0,0.0,0.0,0.0,0.0,0.0,0.0,0.0,0.0,0.0,0.0,0.0,0.0,0.0,0.0,0.0,0.0,0.0,0.0,0.0,0.0,0.0,0.0,0.0,0.0,0.0,0.0,0.0,0.0,0.0,0.0,0.0,0.0,0.0,0.0,0.0,0.0,0.0,0.0,0.0,0.0,0.0,0.0,0.0,0.0,0.0,0.0,0.0,0.0,0.0,0.0,0.0,0.0,0.0,0.0,0.0,0.0,0.0,0.0,-0.0062,-0.0123,-0.0741,-0.105,-0.1173,-0.1791,-0.1977,-0.1977,-0.1977,-0.1977,-0.1977,-0.1977,-0.1977,-0.1977,-0.1977,-0.1977,-0.1977,-0.1977,-0.1977,-0.1977,-0.1977,-0.1977,-0.1977,-0.1977,-0.1977,-0.1977,-0.1977,-0.1977,-0.1977,-0.1977,-0.1977,-0.1977,-0.1977,-0.1977,-0.1977,-0.1977,-0.1977,-0.1729,-0.105,-0.0988,-0.0741,-0.0062,0.0,0.0,0.0,0.0,0.0,0.0,0.0,0.0,0.0,0.0,0.0,0.0,0.0,0.0,0.0,0.0,0.0,-0.9822,-0.9822,0.0,0.0,0.0,0.0,0.0,0.0,0.0,0.0,0.0,0.0,0.0,0.0,0.0,0.0,0.0,0.0,0.0,0.0,0.0,0.0,0.0,0.0,0.0,0.0,0.0,0.0,0.0,0.0,0.0,0.0,0.0,0.0,0.0,0.0,0.0,0.0,0.0,0.0,0.0,0.0,0.0,0.0,0.0,0.0,0.0,0.0,0.0,0.0,0.0,0.0,0.0,-0.0185,-0.0494,-0.0864,-0.1173,-0.1482,-0.1853,-0.1977,-0.1977,-0.1977,-0.1977,-0.1977,-0.1977,-0.1977,-0.1977,-0.1977,-0.1977,-0.1977,-0.1977,-0.1977,-0.1977,-0.1977,-0.1977,-0.1977,-0.1977,-0.1977,-0.1977,-0.1977,-0.1977,-0.1977,-0.1977,-0.1977,-0.1977,-0.1977,-0.1977,-0.1977,-0.1977,-0.1977,-0.1729,-0.105,-0.0988,-0.0741,-0.0062,0.0,0.0,0.0,0.0,0.0,0.0,0.0,0.0,0.0,0.0,0.0,0.0,0.0,0.0,0.0,0.0,0.0,-0.9822,-0.9822,-0.9822,0.0,0.0,0.0,0.0,0.0,0.0,0.0,0.0,0.0,0.0,0.0,0.0,0.0,0.0,0.0,0.0,0.0,0.0,0.0,0.0,0.0,0.0,0.0,0.0,-0.121,-0.0404,0.0,0.0,0.0,0.0,0.0,0.0,0.0,0.0,0.0,0.0,0.0,0.0,0.0,0.0,0.0,0.0,0.0,0.0,0.0,0.0,0.0,-0.0123,-0.0247,-0.0062,-0.0309,-0.0803,-0.0926,-0.1297,-0.1791,-0.1729,-0.1853,-0.1977,-0.1977,-0.1977,-0.1977,-0.1977,-0.1977,-0.1977,-0.1977,-0.1977,-0.1977,-0.1977,-0.1977,-0.1977,-0.1977,-0.1977,-0.1977,-0.1977,-0.1977,-0.1977,-0.1977,-0.1977,-0.1977,-0.1977,-0.1977,-0.1977,-0.1977,-0.1977,-0.1977,-0.1977,-0.1977,-0.1791,-0.1297,-0.1111,-0.0803,-0.0309,-0.0123,0.0,0.0,0.0,0.0,0.0,0.0,0.0,0.0,0.0,0.0,0.0,0.0,0.0,0.0,0.0,0.0,-0.9822,-0.9822,-0.9822,0.0,0.0,0.0,0.0,0.0,0.0,0.0,0.0,0.0,0.0,0.0,0.0,0.0,0.0,0.0,0.0,0.0,0.0,0.0,0.0,0.0,0.0,0.0,0.0,-0.2151,-0.1076,-0.0336,0.0,0.0,0.0,0.0,0.0,0.0,0.0,0.0,0.0,0.0,0.0,0.0,0.0,0.0,0.0,0.0,0.0,0.0,0.0,0.0,-0.0123,-0.037,-0.0185,-0.0556,-0.1111,-0.1235,-0.1544,-0.1977,-0.1729,-0.1791,-0.1977,-0.1977,-0.1981,-0.1986,-0.1986,-0.1991,-0.1997,-0.1997,-0.1935,-0.1931,-0.198,-0.1981,-0.1986,-0.1986,-0.1992,-0.1997,-0.1997,-0.1997,-0.1995,-0.1988,-0.1924,-0.186,-0.1854,-0.1791,-0.1791,-0.1791,-0.1853,-0.1853,-0.1853,-0.1977,-0.1853,-0.1544,-0.1297,-0.0926,-0.0556,-0.0185,0.0,0.0,0.0,0.0,0.0,0.0,0.0,0.0,0.0,0.0,0.0,0.0,0.0,0.0,0.0,0.0,-0.9822,-0.9822,-0.9822,-0.9822,0.0,0.0,0.0,0.0,0.0,0.0,0.0,0.0,0.0,0.0,0.0,0.0,0.0,0.0,0.0,0.0,0.0,0.0,0.0,0.0,0.0,0.0,-0.4967,-0.2286,-0.2017,-0.1412,-0.0067,0.0,0.0,0.0,0.0,0.0,0.0,0.0,0.0,0.0,0.0,0.0,0.0,0.0,0.0,0.0,0.0,0.0,0.0,0.0,0.0,-0.0062,-0.037,-0.0864,-0.1482,-0.1791,-0.1977,-0.1977,-0.1977,-0.1977,-0.1977,-0.1977,-0.1994,-0.2016,-0.2016,-0.2035,-0.2122,-0.2122,-0.18,-0.1597,-0.1928,-0.1996,-0.2016,-0.2016,-0.2037,-0.2122,-0.2122,-0.2122,-0.2049,-0.2021,-0.1763,-0.1505,-0.1548,-0.1297,-0.105,-0.105,-0.1359,-0.1544,-0.1544,-0.1791,-0.1853,-0.1544,-0.1482,-0.1173,-0.0556,-0.0185,0.0,0.0,0.0,0.0,0.0,0.0,0.0,0.0,0.0,0.0,0.0,0.0,0.0,0.0,0.0,0.0,-0.9822,-0.9822,-0.9822,-0.9822,0.0,0.0,0.0,0.0,0.0,0.0,0.0,0.0,0.0,0.0,0.0,0.0,0.0,0.0,0.0,0.0,0.0,0.0,0.0,0.0,0.0,-0.6911,-0.557,-0.3625,-0.262,-0.1473,-0.0066,0.0,0.0,0.0,0.0,0.0,0.0,0.0,0.0,0.0,0.0,0.0,0.0,0.0,0.0,0.0,0.0,0.0,0.0,0.0,-0.0125,-0.0376,-0.0885,-0.1332,-0.1586,-0.1713,-0.1904,-0.2031,-0.184,-0.1904,-0.2031,-0.2031,-0.2038,-0.2047,-0.2047,-0.2054,-0.2128,-0.2128,-0.1805,-0.1608,-0.1973,-0.1848,-0.1727,-0.1983,-0.2056,-0.2128,-0.2128,-0.2128,-0.2125,-0.2049,-0.1727,-0.1468,-0.1524,-0.1197,-0.1002,-0.1002,-0.1118,-0.1173,-0.1173,-0.1297,-0.1359,-0.1173,-0.0988,-0.0679,-0.0247,-0.0062,0.0,0.0,0.0,0.0,0.0,0.0,0.0,0.0,0.0,0.0,0.0,0.0,0.0,0.0,0.0,0.0,-0.9822,-0.9822,0.0,0.0,0.0,0.0,0.0,0.0,0.0,0.0,0.0,0.0,0.0,0.0,0.0,0.0,0.0,0.0,0.0,0.0,0.0,0.0,0.0,0.0,0.0,-0.7715,-0.6496,-0.5066,-0.3601,-0.2189,-0.072,-0.0262,0.0,0.0,0.0,0.0,0.0,0.0,0.0,0.0,0.0,0.0,0.0,0.0,0.0,0.0,0.0,0.0,0.0,0.0,-0.0254,-0.07,-0.1156,-0.1483,-0.1741,-0.1741,-0.1934,-0.2064,-0.1805,-0.1934,-0.2128,-0.2128,-0.2005,-0.1948,-0.1948,-0.1889,-0.1765,-0.1765,-0.1504,-0.1308,-0.17,-0.1564,-0.1429,-0.1818,-0.1955,-0.1962,-0.1962,-0.2027,-0.2155,-0.208,-0.1688,-0.1361,-0.1355,-0.096,-0.07,-0.07,-0.0757,-0.0813,-0.0871,-0.0933,-0.0993,-0.0989,-0.0679,-0.0432,-0.0185,-0.0062,0.0,0.0,0.0,0.0,0.0,0.0,0.0,0.0,0.0,0.0,0.0,0.0,0.0,0.0,0.0,0.0,-0.9822,0.0,0.0,0.0,0.0,0.0,0.0,0.0,0.0,0.0,0.0,0.0,0.0,0.0,0.0,0.0,0.0,0.0,0.0,0.0,0.0,0.0,0.0,0.0,-0.8573,-0.8584,-0.7934,-0.6444,-0.5055,-0.3656,-0.2061,-0.0709,0.0,0.0,0.0,0.0,0.0,0.0,0.0,0.0,0.0,0.0,0.0,0.0,0.0,0.0,0.0,0.0,0.0,0.0,-0.0387,-0.1032,-0.1032,-0.1484,-0.2129,-0.2129,-0.2129,-0.2129,-0.2129,-0.2129,-0.2129,-0.2129,-0.189,-0.1582,-0.1582,-0.1398,-0.1077,-0.1077,-0.0808,-0.0606,-0.101,-0.1066,-0.1121,-0.1516,-0.1599,-0.1616,-0.1616,-0.1885,-0.2146,-0.2116,-0.1582,-0.105,-0.1035,-0.0452,0.0,0.0,-0.0258,-0.0514,-0.0506,-0.0758,-0.1005,-0.099,-0.0679,-0.0494,-0.0494,-0.0185,0.0,0.0,0.0,0.0,0.0,0.0,0.0,0.0,0.0,0.0,0.0,0.0,0.0,0.0,0.0,0.0,-0.9822,0.0,0.0,0.0,0.0,0.0,0.0,0.0,0.0,0.0,0.0,0.0,0.0,0.0,0.0,0.0,0.0,0.0,0.0,0.0,0.0,0.0,0.0,0.0,-0.8337,-0.8339,-0.7736,-0.6277,-0.4918,-0.3539,-0.2093,-0.0699,0.0,0.0,0.0,0.0,0.0,0.0,0.0,0.0,0.0,0.0,0.0,0.0,0.0,0.0,0.0,0.0,0.0,-0.0261,-0.0659,-0.1064,-0.1064,-0.1529,-0.2128,-0.1862,-0.1928,-0.2195,-0.2195,-0.2195,-0.2195,-0.2195,-0.2133,-0.2007,-0.2007,-0.1745,-0.1481,-0.1481,-0.1212,-0.101,-0.1346,-0.1074,-0.0803,-0.1472,-0.1812,-0.202,-0.202,-0.1885,-0.1748,-0.1741,-0.1137,-0.0668,-0.0665,-0.0264,0.0,0.0,-0.0065,-0.0129,-0.0128,-0.0254,-0.0315,-0.0314,-0.0186,-0.0123,-0.0123,-0.0062,0.0,0.0,0.0,0.0,0.0,0.0,0.0,0.0,0.0,0.0,0.0,0.0,0.0,0.0,0.0,0.0,0.0,0.0,0.0,0.0,0.0,0.0,0.0,0.0,0.0,0.0,0.0,0.0,0.0,0.0,0.0,0.0,0.0,0.0,0.0,0.0,0.0,0.0,0.0,-0.8182,-0.8167,-0.8172,-0.7827,-0.695,-0.5672,-0.4244,-0.281,-0.15,-0.0561,0.0,0.0,0.0,0.0,0.0,0.0,0.0,0.0,0.0,0.0,0.0,0.0,0.0,0.0,0.0,0.0,-0.0331,-0.0735,-0.1144,-0.1279,-0.1683,-0.2155,-0.1953,-0.1885,-0.1953,-0.1953,-0.1885,-0.175,-0.175,-0.175,-0.175,-0.175,-0.1481,-0.1144,-0.1144,-0.0942,-0.074,-0.0942,-0.074,-0.0673,-0.1279,-0.1616,-0.175,-0.175,-0.1818,-0.1818,-0.1818,-0.1346,-0.0875,-0.074,-0.0468,-0.0133,0.0,0.0,0.0,0.0,0.0,0.0,0.0,0.0,0.0,0.0,0.0,0.0,0.0,0.0,0.0,0.0,0.0,0.0,0.0,0.0,0.0,0.0,0.0,0.0,0.0,0.0,0.0,0.0,0.0,0.0,0.0,0.0,0.0,0.0,0.0,0.0,0.0,0.0,0.0,0.0,0.0,0.0,0.0,0.0,0.0,0.0,0.0,0.0,0.0,0.0,-0.8081,-0.8193,-0.8201,-0.8155,-0.8108,-0.6839,-0.5426,-0.4002,-0.2711,-0.1357,-0.0062,0.0,0.0,0.0,0.0,0.0,0.0,0.0,0.0,0.0,0.0,0.0,0.0,0.0,0.0,0.0,-0.0337,-0.074,-0.1077,-0.1414,-0.175,-0.2087,-0.2087,-0.1818,-0.1548,-0.1548,-0.1346,-0.1077,-0.1077,-0.1077,-0.1077,-0.1077,-0.0808,-0.0471,-0.0471,-0.0269,-0.0067,-0.0067,-0.0269,-0.0606,-0.0942,-0.1077,-0.1144,-0.1212,-0.1683,-0.2087,-0.2087,-0.175,-0.1346,-0.1077,-0.0673,-0.0337,-0.0067,0.0,0.0,0.0,0.0,0.0,0.0,0.0,0.0,0.0,0.0,0.0,0.0,0.0,0.0,0.0,0.0,0.0,0.0,0.0,0.0,0.0,0.0,0.0,0.0,0.0,0.0,0.0,0.0,0.0,0.0,0.0,0.0,0.0,0.0,0.0,0.0,0.0,0.0,0.0,0.0,0.0,0.0,0.0,0.0,0.0,0.0,0.0,0.0,-0.7971,-0.7921,-0.7945,-0.7948,-0.7937,-0.7974,-0.6673,-0.5369,-0.3999,-0.2711,-0.1357,-0.0062,0.0,0.0,0.0,0.0,0.0,0.0,0.0,0.0,0.0,0.0,0.0,0.0,0.0,0.0,0.0,-0.0337,-0.0538,-0.0606,-0.074,-0.101,-0.1279,-0.101,-0.101,-0.1212,-0.1212,-0.1144,-0.1077,-0.1077,-0.1077,-0.1077,-0.1077,-0.0808,-0.0471,-0.0471,-0.0471,-0.0404,-0.0404,-0.0673,-0.0942,-0.0673,-0.1077,-0.1548,-0.1885,-0.1616,-0.1346,-0.1346,-0.0808,-0.0337,-0.0269,-0.0135,-0.0067,0.0,0.0,0.0,0.0,0.0,0.0,0.0,0.0,0.0,0.0,0.0,0.0,0.0,0.0,0.0,0.0,0.0,0.0,0.0,0.0,0.0,0.0,0.0,0.0,0.0,0.0,0.0,0.0,0.0,0.0,0.0,0.0,0.0,0.0,0.0,0.0,0.0,0.0,0.0,0.0,0.0,0.0,0.0,0.0,0.0,0.0,0.0,0.0,0.0,-0.7872,-0.7872,-0.7872,-0.7872,-0.7872,-0.7872,-0.7255,-0.5965,-0.3997,-0.3263,-0.2034,-0.0062,0.0,0.0,0.0,0.0,0.0,0.0,0.0,0.0,0.0,0.0,0.0,0.0,0.0,0.0,0.0,-0.0337,-0.0471,-0.0538,-0.074,-0.0942,-0.1077,-0.0875,-0.0808,-0.0808,-0.0808,-0.074,-0.0606,-0.0606,-0.0673,-0.0808,-0.0808,-0.0673,-0.0471,-0.0471,-0.0404,-0.0269,-0.0269,-0.0404,-0.0538,-0.0538,-0.0942,-0.1346,-0.1414,-0.1212,-0.1077,-0.1077,-0.0808,-0.0471,-0.0269,-0.0135,0.0,0.0,0.0,0.0,0.0,0.0,0.0,0.0,0.0,0.0,0.0,0.0,0.0,0.0,0.0,0.0,0.0,0.0,0.0,0.0,0.0,0.0,0.0,0.0,0.0,0.0,0.0,0.0,0.0,0.0,0.0,0.0,0.0,0.0,0.0,0.0,0.0,0.0,0.0,0.0,0.0,0.0,0.0,0.0,0.0,0.0,0.0,0.0,0.0,0.0,-0.7872,-0.7872,-0.7872,-0.7872,-0.7872,-0.7872,-0.7872,-0.67,-0.4059,-0.3875,-0.2708,-0.0062,0.0,0.0,0.0,0.0,0.0,0.0,0.0,0.0,0.0,0.0,0.0,0.0,0.0,0.0,0.0,-0.0269,-0.0404,-0.0471,-0.0808,-0.0942,-0.0942,-0.0942,-0.0673,-0.0404,-0.0404,-0.0202,0.0,0.0,-0.0202,-0.0404,-0.0404,-0.0404,-0.0404,-0.0404,-0.0202,0.0,0.0,-0.0067,-0.0135,-0.0337,-0.074,-0.0942,-0.074,-0.0942,-0.1144,-0.1144,-0.101,-0.0808,-0.0471,-0.0202,0.0,0.0,0.0,0.0,0.0,0.0,0.0,0.0,0.0,0.0,0.0,0.0,0.0,0.0,0.0,0.0,0.0,0.0,0.0,0.0,0.0,0.0,0.0,0.0,0.0,0.0,0.0,0.0,0.0,0.0,0.0,0.0,0.0,0.0,0.0,0.0,0.0,0.0,0.0,0.0,0.0,0.0,0.0,0.0,0.0,0.0,0.0,0.0,0.0,0.0,-0.7872,-0.7872,-0.7872,-0.7872,-0.7872,-0.7872,-0.7872,-0.67,-0.4059,-0.3875,-0.2708,-0.0062,0.0,0.0,0.0,0.0,0.0,0.0,0.0,0.0,0.0,0.0,0.0,0.0,0.0,0.0,0.0,-0.0067,-0.0067,-0.0067,-0.0135,-0.0135,-0.0135,-0.0135,-0.0135,-0.0067,-0.0067,-0.0067,0.0,0.0,0.0,-0.0067,-0.0067,-0.0067,-0.0067,-0.0067,-0.0067,0.0,0.0,-0.0202,-0.0404,-0.0135,-0.0337,-0.074,-0.1346,-0.1481,-0.1414,-0.1144,-0.0606,-0.0135,-0.0067,0.0,0.0,0.0,0.0,0.0,0.0,0.0,0.0,0.0,0.0,0.0,0.0,0.0,0.0,0.0,0.0,0.0,0.0,0.0,0.0,0.0,0.0,0.0,0.0,0.0,0.0,0.0,0.0,0.0,0.0,0.0,0.0,0.0,0.0,0.0,0.0,0.0,0.0,0.0,0.0,0.0,0.0,0.0,0.0,0.0,0.0,0.0,0.0,0.0,0.0,0.0,-0.7872,-0.7872,-0.7872,-0.7872,-0.7872,-0.7872,-0.7872,-0.67,-0.4059,-0.3875,-0.2708,-0.0062,0.0,0.0,0.0,0.0,0.0,0.0,0.0,0.0,0.0,0.0,0.0,0.0,0.0,0.0,0.0,0.0,0.0,0.0,0.0,0.0,0.0,0.0,0.0,0.0,0.0,0.0,0.0,0.0,0.0,0.0,0.0,0.0,0.0,0.0,0.0,0.0,0.0,-0.0135,-0.0202,-0.0067,-0.0269,-0.0606,-0.0942,-0.0808,-0.0673,-0.0538,-0.0202,0.0,0.0,0.0,0.0,0.0,0.0,0.0,0.0,0.0,0.0,0.0,0.0,0.0,0.0,0.0,0.0,0.0,0.0,0.0,0.0,0.0,0.0,0.0,0.0,0.0,0.0,0.0,0.0,0.0,0.0,0.0,0.0,0.0,0.0,0.0,0.0,0.0,0.0,0.0,0.0,0.0,0.0,0.0,0.0,0.0,0.0,0.0,0.0,0.0,0.0,0.0,0.0,0.0,-0.7872,-0.7872,-0.7872,-0.7872,-0.7872,-0.7872,-0.7872,-0.67,-0.4059,-0.3875,-0.2708,-0.0062,0.0,0.0,0.0,0.0,0.0,0.0,0.0,0.0,0.0,0.0,0.0,0.0,0.0,0.0,0.0,0.0,0.0,0.0,0.0,0.0,0.0,0.0,0.0,0.0,0.0,0.0,0.0,0.0,0.0,0.0,0.0,0.0,0.0,0.0,0.0,0.0,0.0,0.0,0.0,0.0,-0.0202,-0.0404,-0.0606,-0.0404,-0.0135,-0.0135,-0.0067,0.0,0.0,0.0,0.0,0.0,0.0,0.0,0.0,0.0,0.0,0.0,0.0,0.0,0.0,0.0,0.0,0.0,0.0,0.0,0.0,0.0,0.0,0.0,0.0,0.0,0.0,0.0,0.0,0.0,0.0,0.0,0.0,0.0,0.0,0.0,0.0,0.0,0.0,0.0,0.0,0.0,0.0,0.0,0.0,0.0,0.0,0.0,0.0,0.0,0.0,0.0,0.0,0.0,0.0,-0.7872,-0.7872,-0.7872,-0.7872,-0.7872,-0.7872,-0.67,-0.4059,-0.3875,-0.2708,-0.0062,0.0,0.0,0.0,0.0,0.0,0.0,0.0,0.0,0.0,0.0,0.0,0.0,0.0,0.0,0.0,0.0,0.0,0.0,0.0,0.0,0.0,0.0,0.0,0.0,0.0,0.0,0.0,0.0,0.0,0.0,0.0,0.0,0.0,0.0,0.0,0.0,0.0,0.0,0.0,0.0,0.0,-0.0202,-0.0942,-0.074,-0.0471,-0.0471,-0.0202,0.0,0.0,0.0,0.0,0.0,0.0,0.0,0.0,0.0,0.0,0.0,0.0,0.0,0.0,0.0,0.0,0.0,0.0,0.0,0.0,0.0,0.0,0.0,0.0,0.0,0.0,0.0,0.0,0.0,0.0,0.0,0.0,0.0,0.0,0.0,0.0,0.0,0.0,0.0,0.0,0.0,0.0,0.0,0.0,0.0,0.0,0.0,0.0,0.0,0.0,0.0,0.0,0.0,0.0,-0.7872,-0.7872,-0.7872,-0.7872,-0.7872,-0.7872,-0.67,-0.4059,-0.3875,-0.2708,-0.0062,0.0,0.0,0.0,0.0,0.0,0.0,0.0,0.0,0.0,0.0,0.0,0.0,0.0,0.0,0.0,0.0,0.0,0.0,0.0,0.0,0.0,0.0,0.0,0.0,0.0,0.0,0.0,0.0,0.0,0.0,0.0,0.0,0.0,0.0,0.0,0.0,0.0,0.0,0.0,0.0,0.0,-0.0067,-0.0337,-0.0269,-0.0202,-0.0202,-0.0067,0.0,0.0,0.0,0.0,0.0,0.0,0.0,0.0,0.0,0.0,0.0,0.0,0.0,0.0,0.0,0.0,0.0,0.0,0.0,0.0,0.0,0.0,0.0,0.0,0.0,0.0,0.0,0.0,0.0,0.0,0.0,0.0,0.0,0.0,0.0,0.0,0.0,0.0,0.0,0.0,0.0,0.0,0.0,0.0,0.0,0.0,0.0,0.0,0.0,0.0,0.0,0.0,0.0,0.0,-0.8058,-0.8058,-0.7994,-0.7872,-0.7872,-0.7872,0.0,-0.4059,-0.3875,-0.2708,-0.0062,0.0,0.0,0.0,0.0,0.0,0.0,0.0,0.0,0.0,0.0,0.0,0.0,0.0,0.0,0.0,0.0,0.0,0.0,0.0,0.0,0.0,0.0,0.0,0.0,0.0,0.0,0.0,0.0,0.0,0.0,0.0,0.0,0.0,0.0,0.0,0.0,0.0,0.0,0.0,0.0,0.0,0.0,0.0,0.0,0.0,0.0,0.0,0.0,0.0,0.0,0.0,0.0,0.0,0.0,0.0,0.0,0.0,0.0,0.0,0.0,0.0,0.0,0.0,0.0,0.0,0.0,0.0,0.0,0.0,0.0,0.0,0.0,0.0,0.0,0.0,0.0,0.0,0.0,0.0,0.0,0.0,0.0,0.0,0.0,0.0,0.0,0.0,0.0,0.0,0.0,0.0,0.0,0.0,0.0,0.0,0.0,0.0,0.0,0.0,0.0,0.0,-0.8369,-0.8369,-0.8119,-0.7872,-0.7872,-0.7872,-0.67,-0.4059,-0.3815,-0.2648,-0.0062,0.0,0.0,0.0,0.0,0.0,0.0,0.0,0.0,0.0,0.0,0.0,0.0,0.0,0.0,0.0,0.0,0.0,0.0,0.0,0.0,0.0,0.0,0.0,0.0,0.0,0.0,0.0,0.0,0.0,0.0,0.0,0.0,0.0,0.0,0.0,0.0,0.0,0.0,0.0,0.0,0.0,0.0,0.0,0.0,0.0,0.0,0.0,0.0,0.0,0.0,0.0,0.0,0.0,0.0,0.0,0.0,0.0,0.0,0.0,0.0,0.0,0.0,0.0,0.0,0.0,0.0,0.0,0.0,0.0,0.0,0.0,0.0,0.0,0.0,0.0,0.0,0.0,0.0,-0.9822,0.0,0.0,0.0,0.0,0.0,0.0,0.0,0.0,0.0,0.0,0.0,0.0,0.0,0.0,0.0,0.0,0.0,0.0,0.0,0.0,0.0,0.0,0.0,-0.8369,-0.8119,-0.7872,0.0,-0.7872,-0.67,-0.4059,-0.2094,-0.0744,0.0,0.0,0.0,0.0,0.0,0.0,0.0,0.0,0.0,0.0,0.0,0.0,0.0,0.0,0.0,0.0,0.0,0.0,0.0,0.0,0.0,0.0,0.0,0.0,0.0,0.0,0.0,0.0,0.0,0.0,0.0,0.0,0.0,0.0,0.0,0.0,0.0,0.0,0.0,0.0,0.0,0.0,0.0,0.0,0.0,0.0,0.0,0.0,0.0,0.0,0.0,0.0,0.0,0.0,0.0,0.0,0.0,0.0,0.0,0.0,0.0,0.0,0.0,0.0,0.0,0.0,0.0,0.0,0.0,0.0,0.0,0.0,0.0,0.0,0.0,0.0,0.0,0.0,0.0,0.0,0.0,0.0,0.0,0.0,0.0,-0.9518,-0.9335,-0.9278,0.0,0.0,0.0,0.0,0.0,0.0,0.0,0.0,0.0,0.0,0.0,0.0,0.0,0.0,0.0,-0.8613,-0.8305,-0.8058,-0.7933,-0.7872,-0.67,-0.4059,-0.1426,0.0,0.0,0.0,0.0,0.0,0.0,0.0,0.0,0.0,0.0,0.0,0.0,0.0,0.0,0.0,0.0,0.0,0.0,0.0,0.0,0.0,0.0,0.0,0.0,0.0,0.0,0.0,0.0,0.0,0.0,0.0,0.0,0.0,0.0,0.0,0.0,0.0,0.0,0.0,0.0,0.0,0.0,0.0,0.0,0.0,0.0,0.0,0.0,0.0,0.0,0.0,0.0,0.0,0.0,0.0,0.0,0.0,0.0,0.0,0.0,0.0,0.0,0.0,0.0,0.0,0.0,0.0,0.0,0.0,0.0,0.0,0.0,0.0,0.0,0.0,0.0,0.0,0.0,0.0,0.0,0.0,0.0,0.0,0.0,0.0,0.0,-0.9217,-0.9034,-0.9037,0.0,0.0,0.0,0.0,0.0,0.0,0.0,0.0,0.0,0.0,0.0,0.0,0.0,0.0,0.0,-0.8976,-0.8613,-0.8305,-0.7994,-0.7625,-0.6399,-0.4009,-0.144,0.0,0.0,0.0,0.0,0.0,0.0,0.0,0.0,0.0,0.0,0.0,0.0,0.0,0.0,0.0,0.0,0.0,0.0,0.0,0.0,0.0,0.0,0.0,0.0,0.0,0.0,0.0,0.0,0.0,0.0,0.0,0.0,0.0,0.0,0.0,0.0,0.0,0.0,0.0,0.0,0.0,0.0,0.0,0.0,0.0,0.0,0.0,0.0,0.0,0.0,0.0,0.0,0.0,0.0,0.0,0.0,0.0,0.0,0.0,0.0,0.0,0.0,0.0,0.0,0.0,0.0,0.0,0.0,0.0,0.0,0.0,0.0,0.0,0.0,0.0,0.0,0.0,0.0,0.0,0.0,0.0,0.0,0.0,0.0,0.0,0.0,-0.8915,-0.8732,-0.8613,0.0,0.0,0.0,0.0,0.0,0.0,0.0,0.0,0.0,0.0,0.0,0.0,0.0,0.0,0.0,-0.9217,-0.8732,-0.8369,-0.8308,-0.6027,-0.4452,-0.3944,-0.1448,0.0,0.0,0.0,0.0,0.0,0.0,0.0,0.0,0.0,0.0,0.0,0.0,0.0,0.0,0.0,0.0,0.0,0.0,0.0,0.0,0.0,0.0,0.0,0.0,0.0,0.0,0.0,0.0,0.0,0.0,0.0,0.0,0.0,0.0,0.0,0.0,0.0,0.0,0.0,0.0,0.0,0.0,0.0,0.0,0.0,0.0,0.0,0.0,0.0,0.0,0.0,0.0,0.0,0.0,0.0,0.0,0.0,0.0,0.0,0.0,0.0,0.0,0.0,0.0,0.0,0.0,0.0,0.0,0.0,0.0,0.0,0.0,0.0,0.0,0.0,0.0,0.0,0.0,0.0,0.0,0.0,0.0,0.0,-0.8424,0.0,0.0,0.0,-0.8366,-0.8302,0.0,0.0,0.0,0.0,0.0,0.0,0.0,0.0,0.0,0.0,0.0,0.0,0.0,0.0,0.0,-0.9339,-0.9034,-0.8732,-0.843,-0.5636,-0.387,-0.39,-0.1406,0.0,0.0,0.0,0.0,0.0,0.0,0.0,0.0,0.0,0.0,0.0,0.0,0.0,0.0,0.0,0.0,0.0,0.0,0.0,0.0,0.0,0.0,0.0,0.0,0.0,0.0,0.0,0.0,0.0,0.0,0.0,0.0,0.0,0.0,0.0,0.0,0.0,0.0,0.0,0.0,0.0,0.0,0.0,0.0,0.0,0.0,0.0,0.0,0.0,0.0,0.0,0.0,0.0,0.0,0.0,0.0,0.0,0.0,0.0,0.0,0.0,0.0,0.0,0.0,0.0,0.0,0.0,0.0,0.0,0.0,0.0,0.0,0.0,0.0,0.0,0.0,0.0,0.0,0.0,0.0,0.0,0.0,0.0,0.0,0.0,-0.7994,0.0,0.0,0.0,0.0,0.0,0.0,0.0,0.0,0.0,0.0,0.0,0.0,0.0,0.0,0.0,0.0,0.0,0.0,-0.9396,-0.9275,-0.8851,-0.8,-0.5426,-0.3781,-0.3539,-0.1298,0.0,0.0,0.0,0.0,0.0,0.0,0.0,0.0,0.0,0.0,0.0,0.0,0.0,0.0,0.0,0.0,0.0,0.0,0.0,0.0,0.0,0.0,0.0,0.0,0.0,0.0,0.0,0.0,0.0,0.0,0.0,0.0,0.0,0.0,0.0,0.0,0.0,0.0,0.0,0.0,0.0,0.0,0.0,0.0,0.0,0.0,0.0,0.0,0.0,0.0,0.0,0.0,0.0,0.0,0.0,0.0,0.0,0.0,0.0,0.0,0.0,0.0,0.0,0.0,0.0,0.0,0.0,0.0,0.0,0.0,0.0,0.0,0.0,0.0,0.0,0.0,0.0,0.0,0.0,0.0,0.0,0.0,0.0,0.0,-0.7872,0.0,0.0,0.0,-0.7933,-0.7994,0.0,0.0,0.0,0.0,0.0,0.0,0.0,0.0,0.0,0.0,0.0,0.0,0.0,0.0,-0.9761,-0.9278,-0.8177,-0.6337,-0.4742,-0.3418,-0.2246,-0.0783,0.0,0.0,0.0,0.0,0.0,0.0,0.0,0.0,0.0,0.0,0.0,0.0,0.0,0.0,0.0,0.0,0.0,0.0,0.0,0.0,0.0,0.0,0.0,0.0,0.0,0.0,0.0,0.0,0.0,0.0,0.0,0.0,0.0,0.0,0.0,0.0,0.0,0.0,0.0,0.0,0.0,0.0,0.0,0.0,0.0,0.0,0.0,0.0,0.0,0.0,0.0,0.0,0.0,0.0,0.0,0.0,0.0,0.0,0.0,0.0,0.0,0.0,0.0,0.0,0.0,0.0,0.0,0.0,0.0,0.0,0.0,0.0,0.0,0.0,0.0,0.0,0.0,0.0,0.0,0.0,0.0,0.0,0.0,0.0,0.0,0.0,-0.7872,0.0,-0.7872,0.0,0.0,0.0,0.0,0.0,0.0,0.0,-0.8183,0.0,0.0,0.0,0.0,0.0,0.0,0.0,-0.9518,-0.8413,-0.7373,-0.6514,-0.4212,-0.2558,-0.206,-0.0724,0.0,0.0,0.0,0.0,0.0,0.0,0.0,0.0,0.0,0.0,0.0,0.0,0.0,0.0,0.0,0.0,0.0,0.0,0.0,0.0,0.0,0.0,0.0,0.0,0.0,0.0,0.0,0.0,0.0,0.0,0.0,0.0,0.0,0.0,0.0,0.0,0.0,0.0,0.0,0.0,0.0,0.0,0.0,0.0,0.0,0.0,0.0,0.0,0.0,0.0,0.0,0.0,0.0,0.0,0.0,0.0,0.0,0.0,0.0,0.0,0.0,0.0,0.0,0.0,0.0,0.0,0.0,0.0,0.0,0.0,0.0,0.0,0.0,0.0,0.0,0.0,0.0,0.0,0.0,0.0,-0.7441,0.0,0.0,0.0,0.0,0.0,0.0,0.0,0.0,0.0,0.0,0.0,0.0,0.0,0.0,0.0,0.0,-0.8244,0.0,0.0,0.0,0.0,0.0,0.0,0.0,-0.7431,-0.646,-0.5746,-0.3423,-0.1871,-0.162,-0.0597,0.0,0.0,0.0,0.0,0.0,0.0,0.0,0.0,0.0,0.0,0.0,0.0,0.0,0.0,0.0,0.0,0.0,0.0,0.0,0.0,0.0,0.0,0.0,0.0,0.0,0.0,0.0,0.0,0.0,0.0,0.0,0.0,0.0,0.0,0.0,0.0,0.0,0.0,0.0,0.0,0.0,0.0,0.0,0.0,0.0,0.0,0.0,0.0,0.0,0.0,0.0,0.0,0.0,0.0,0.0,0.0,0.0,0.0,0.0,0.0,0.0,0.0,0.0,0.0,0.0,0.0,0.0,0.0,0.0,0.0,0.0,0.0,0.0,0.0,0.0,0.0,0.0,0.0,0.0,0.0,0.0,0.0,0.0,-0.7872,0.0,0.0,0.0,0.0,-0.7872,0.0,0.0,0.0,0.0,0.0,0.0,-0.7872,0.0,0.0,0.0,0.0,0.0,0.0,0.0,0.0,0.0,-0.6453,-0.538,-0.2828,-0.2234,-0.1555,-0.0592,-0.02,0.0,0.0,0.0,0.0,0.0,0.0,0.0,0.0,0.0,0.0,0.0,0.0,0.0,0.0,0.0,0.0,0.0,0.0,0.0,0.0,0.0,0.0,0.0,0.0,0.0,0.0,0.0,0.0,0.0,0.0,0.0,0.0,0.0,0.0,0.0,0.0,0.0,0.0,0.0,0.0,0.0,0.0,0.0,0.0,0.0,0.0,0.0,0.0,0.0,0.0,0.0,0.0,0.0,0.0,0.0,0.0,0.0,0.0,0.0,0.0,0.0,0.0,0.0,0.0,0.0,0.0,0.0,0.0,0.0,0.0,0.0,0.0,0.0,0.0,0.0,0.0,0.0,0.0,0.0,0.0,0.0,0.0,-0.5226,-0.5226,0.0,0.0,0.0,0.0,0.0,0.0,0.0,0.0,0.0,0.0,-0.7872,-0.7872,-0.7133,0.0,0.0,0.0,0.0,0.0,0.0,0.0,0.0,0.0,0.0,-0.258,-0.1343,-0.0519,-0.0197,-0.0067,0.0,0.0,0.0,0.0,0.0,0.0,0.0,0.0,0.0,0.0,0.0,0.0,0.0,0.0,0.0,0.0,0.0,0.0,0.0,0.0,0.0,0.0,0.0,0.0,0.0,0.0,0.0,0.0,0.0,0.0,0.0,0.0,0.0,0.0,0.0,0.0,0.0,0.0,0.0,0.0,0.0,0.0,0.0,0.0,0.0,0.0,0.0,0.0,0.0,0.0,0.0,0.0,0.0,0.0,0.0,0.0,0.0,0.0,0.0,0.0,0.0,0.0,0.0,0.0,0.0,0.0,0.0,0.0,0.0,0.0,0.0,0.0,0.0,0.0,0.0,0.0,0.0,0.0,0.0,0.0,-0.3341,-0.3562,0.0,-0.3881,-0.3875,0.0,-0.3875,0.0,0.0,0.0,0.0,0.0,0.0,0.0,0.0,-0.6639,-0.6151,0.0,0.0,-0.5168,0.0,0.0,0.0,0.0,0.0,0.0,-0.2298,-0.184,-0.077,-0.0195,0.0,-0.0067,0.0,0.0,0.0,0.0,0.0,0.0,0.0,0.0,0.0,0.0,0.0,0.0,0.0,0.0,0.0,0.0,0.0,0.0,0.0,0.0,0.0,0.0,0.0,0.0,0.0,0.0,0.0,0.0,0.0,0.0,0.0,0.0,0.0,0.0,0.0,0.0,0.0,0.0,0.0,0.0,0.0,0.0,0.0,0.0,0.0,0.0,0.0,0.0,0.0,0.0,0.0,0.0,0.0,0.0,0.0,0.0,0.0,0.0,0.0,0.0,0.0,0.0,0.0,0.0,0.0,0.0,0.0,0.0,0.0,0.0,0.0,0.0,0.0,0.0,0.0,0.0,0.0,0.0,0.0,0.0]}]]